GFSMA_850_thetae_000.txt.gz
Theta_e
303 306 312 310 311 314 314 312 315 316 316 317 317 319 322 320 320 322 324 323 315 308 315 318 321 323 324 321 310 307 304 304 303 303 303 302 302 302 302 302 302 303 303
301 301 303 310 314 313 311 312 318 314 317 319 321 320 321 322 321 321 322 324 323 311 308 317 319 322 323 323 320 309 304 304 303 303 302 302 302 302 302 303 303 303 304
299 299 300 303 308 312 315 317 318 320 321 323 322 321 319 320 321 322 322 320 321 321 306 309 317 320 325 323 322 316 312 310 304 303 303 303 303 303 303 304 304 305 305
301 300 299 299 300 302 306 315 319 321 321 322 322 321 319 319 319 318 318 321 319 321 311 307 309 316 323 325 324 321 317 315 315 305 305 304 303 303 303 308 308 307 308
301 300 300 300 299 299 300 307 315 317 317 318 319 320 321 321 321 320 319 318 320 321 321 311 309 309 319 324 324 322 321 312 315 315 312 307 304 304 308 310 312 309 308
299 299 301 299 301 301 300 298 299 302 305 309 312 316 319 320 321 320 319 318 318 318 318 319 312 309 314 319 324 323 322 316 313 317 316 315 310 307 309 309 312 315 313
301 302 301 302 301 302 302 301 300 300 301 303 301 308 313 317 321 319 319 318 319 319 317 319 318 313 315 318 321 323 321 317 316 315 318 315 315 313 312 312 313 314 314
302 301 301 301 301 301 301 301 301 300 300 300 301 301 310 316 318 319 318 318 319 317 318 319 320 313 315 319 318 320 320 318 317 316 316 314 314 312 311 310 307 307 307
302 302 301 301 301 301 301 301 300 300 300 299 300 302 302 308 309 314 318 318 319 319 317 317 319 314 313 316 320 317 316 319 316 317 316 314 315 314 311 306 302 302 303
300 300 301 301 302 301 300 300 299 300 300 300 299 299 302 300 300 301 306 315 316 318 317 316 317 319 314 314 316 318 315 316 316 316 318 315 315 315 313 303 301 303 303
297 297 300 301 301 301 301 301 301 299 299 299 299 299 299 299 299 301 300 302 309 312 315 316 316 317 316 316 315 315 317 313 313 311 319 318 317 315 313 303 302 303 303
299 299 299 299 299 299 299 300 300 300 300 299 299 299 298 298 298 298 301 302 300 302 306 311 314 315 315 316 317 316 315 314 313 310 315 320 319 317 316 313 307 303 303
297 296 296 295 295 295 295 296 296 297 297 297 298 298 298 297 297 297 297 297 298 300 301 301 308 314 315 314 317 316 316 314 312 310 309 316 319 319 318 316 312 308 304
292 291 291 291 291 292 292 292 293 293 294 295 296 297 297 297 296 296 296 296 297 297 298 301 301 304 313 315 314 313 315 314 313 311 310 309 317 317 319 319 317 314 311
292 291 290 289 289 289 290 292 293 294 294 295 295 296 297 297 296 296 296 296 296 296 297 297 299 300 302 309 311 313 313 312 313 312 310 309 310 315 315 315 316 316 314
290 289 289 290 291 291 291 291 292 292 293 293 294 295 296 296 296 295 295 295 296 296 296 296 297 301 301 300 309 309 314 315 314 312 310 310 308 309 311 312 311 314 315
289 290 290 290 290 290 290 290 291 291 292 292 293 294 295 295 296 295 295 295 295 295 296 296 297 297 301 300 302 306 309 310 314 314 311 310 310 308 308 308 310 312 315
289 289 289 289 289 289 289 289 289 290 290 291 292 292 293 294 295 294 294 294 294 294 295 296 297 297 297 294 293 296 304 305 309 313 313 311 309 309 306 305 307 310 313
289 288 288 288 287 287 288 288 288 289 289 290 291 291 292 292 293 293 294 294 293 293 294 294 295 296 297 298 296 296 298 302 305 308 314 313 312 308 306 304 306 310 312
288 287 287 287 287 287 287 287 288 288 288 288 288 288 289 291 292 293 293 293 293 294 294 294 294 295 296 298 297 294 302 300 302 307 309 312 313 310 306 307 308 310 312
286 286 286 286 286 286 287 287 287 286 286 286 286 286 287 287 288 289 291 292 293 293 294 294 295 295 296 297 296 296 299 302 303 305 307 308 308 309 308 310 310 312 311
286 286 286 286 286 286 286 285 283 283 283 284 284 285 285 286 286 286 287 289 291 292 292 293 294 295 296 297 298 296 298 300 302 304 306 306 306 308 308 309 310 309 305
285 285 285 286 286 286 285 283 283 283 283 283 284 285 286 286 286 287 287 287 288 289 290 291 293 294 295 296 297 297 298 298 301 303 304 303 302 302 304 309 309 307 307
285 285 285 285 285 284 284 283 284 283 283 284 284 284 285 285 286 287 287 287 287 289 288 288 290 293 295 296 296 297 298 297 299 299 302 300 300 297 300 305 305 304 302
284 285 284 284 283 284 285 285 285 284 284 284 284 285 285 285 285 286 286 286 287 287 288 289 289 291 293 294 296 297 297 297 298 298 297 297 297 295 295 295 298 298 299
284 284 283 282 283 284 286 286 286 285 284 285 285 285 286 286 286 286 286 285 286 287 289 289 290 290 290 292 295 295 297 297 296 295 296 295 295 294 290 289 290 291 294

GFSMA_850_thetae_003.txt.gz
Theta_e
307 308 307 309 311 310 312 313 314 313 316 316 315 318 316 319 320 321 320 320 323 324 324 320 315 319 322 324 323 318 308 307 304 304 304 304 303 304 305 306 304 303 303
305 317 312 309 311 314 315 315 315 315 316 313 318 319 320 318 322 321 320 319 322 323 323 322 321 315 322 325 324 323 313 306 304 304 303 303 303 303 303 303 304 304 304
303 303 308 312 307 301 303 307 311 312 314 317 316 319 321 321 321 321 321 320 321 322 322 323 324 314 315 324 325 324 323 315 308 304 304 304 303 302 302 303 305 306 308
304 304 308 305 301 302 302 300 308 312 317 316 318 319 322 320 321 319 320 318 320 321 320 320 321 319 313 318 325 325 324 322 312 306 304 304 303 302 302 303 305 310 308
303 303 305 305 301 304 303 300 301 304 311 314 317 318 318 318 320 321 322 322 321 319 320 319 320 314 309 312 317 327 325 323 322 312 305 310 305 303 303 304 306 309 306
303 304 305 306 305 304 304 304 303 303 303 304 307 306 309 315 319 320 321 322 321 320 318 320 319 318 313 308 312 319 326 325 322 318 309 313 313 305 304 304 308 309 308
305 305 304 304 304 304 304 304 304 304 303 303 303 304 303 304 308 315 320 320 322 320 319 318 321 321 320 314 307 312 319 325 324 322 314 316 316 314 309 305 308 309 308
305 305 304 304 303 303 304 304 303 303 303 303 302 302 304 306 309 317 319 319 321 320 319 319 318 318 319 319 317 309 315 322 324 323 321 316 318 317 314 313 310 311 309
306 305 305 304 304 304 303 304 303 303 302 302 302 302 302 304 305 304 310 316 318 320 319 319 318 318 318 320 318 318 315 314 324 324 321 318 317 317 316 314 313 312 312
305 305 304 303 303 303 303 303 303 302 302 302 302 302 302 302 302 303 302 302 305 309 318 319 319 318 318 319 319 318 319 317 317 324 321 319 316 318 316 316 314 313 313
304 303 303 302 302 302 302 301 301 301 302 302 302 302 302 302 302 302 302 302 302 303 306 310 317 318 316 317 319 319 316 321 318 319 321 320 317 316 316 315 312 313 311
301 301 301 300 300 300 300 300 300 300 300 300 301 301 301 301 302 301 301 302 301 302 305 304 306 316 317 316 316 318 317 316 320 319 318 319 318 317 315 315 314 310 308
299 298 298 297 296 295 296 296 296 296 296 297 297 298 298 299 299 300 300 300 300 300 300 300 303 303 311 315 316 316 316 316 318 318 317 317 318 316 318 315 315 311 304
297 296 295 295 294 294 294 294 294 294 294 294 295 295 296 297 298 299 300 300 300 299 299 300 300 302 302 303 312 315 316 316 317 318 316 316 316 315 319 317 315 314 302
295 294 294 294 293 293 293 293 293 293 294 294 295 295 296 296 297 298 299 300 299 299 299 299 299 300 301 302 302 308 314 315 316 316 318 316 315 314 314 320 318 315 306
294 294 293 292 292 292 292 293 293 293 293 293 294 294 295 295 296 297 298 298 299 298 298 298 298 298 300 302 304 304 307 311 314 316 316 317 315 314 313 315 319 317 313
293 292 292 292 292 292 292 292 292 292 292 292 293 293 293 294 295 296 296 297 298 298 297 297 297 297 298 301 302 304 305 307 311 309 314 314 315 315 313 311 317 318 316
292 292 292 291 291 291 291 291 291 291 291 291 291 292 292 293 294 294 295 296 296 297 297 296 296 296 297 298 299 300 301 298 300 306 307 313 313 314 313 312 311 314 315
292 291 291 290 290 290 290 290 290 290 290 290 290 291 291 292 292 293 294 294 296 296 296 296 296 295 295 296 299 300 300 300 294 301 306 305 309 313 313 314 311 311 312
291 290 290 289 289 289 289 289 289 289 289 289 289 289 289 290 290 291 292 293 294 295 295 295 295 295 295 295 297 299 299 299 295 294 303 306 306 309 311 312 313 311 311
290 289 288 289 289 288 288 288 288 288 288 287 287 286 287 287 287 287 289 290 292 293 294 294 295 295 295 296 296 297 299 299 296 296 298 301 304 305 309 311 312 312 310
288 288 288 288 288 288 288 287 287 286 285 284 284 284 285 285 285 286 286 286 287 289 291 292 294 295 295 295 296 297 298 297 297 297 301 301 303 303 303 308 309 310 309
288 288 288 287 287 287 287 286 285 284 284 284 284 284 285 285 286 286 286 286 286 287 288 289 291 293 294 295 296 296 297 298 297 297 301 302 302 302 300 305 309 307 308
287 287 287 286 286 286 285 284 284 283 283 284 284 284 285 285 285 286 286 287 287 287 287 287 288 290 292 294 295 296 297 298 297 297 298 301 300 301 303 301 302 307 308
287 286 286 286 285 284 284 285 285 285 284 284 284 284 285 286 286 286 286 286 286 287 288 287 288 288 289 292 294 294 296 298 297 296 297 299 299 299 297 300 299 297 302
286 285 284 284 284 283 285 285 286 286 286 286 286 286 286 286 286 286 286 286 286 286 286 287 288 288 289 290 292 291 292 296 296 295 295 296 297 296 293 292 295 294 297

GFSMA_850_thetae_006.txt.gz
Theta_e
309 311 308 307 307 309 310 309 309 312 312 314 317 317 318 319 320 319 318 322 323 323 324 323 321 317 317 321 325 323 321 322 313 309 307 306 309 311 316 319 314 311 310
308 317 314 311 308 306 308 313 315 315 315 315 317 316 316 318 319 319 319 320 321 320 320 322 322 316 318 316 317 320 322 322 322 308 306 304 305 305 305 312 310 307 306
305 305 307 311 312 303 302 301 302 307 312 316 316 319 318 319 321 321 320 322 321 320 319 320 322 322 318 320 319 318 323 322 323 314 306 304 303 304 304 304 306 306 304
304 305 308 307 303 305 306 303 301 300 304 311 315 315 316 319 319 321 321 320 320 320 319 319 321 321 322 322 321 323 322 323 322 322 312 306 304 304 303 303 304 307 306
304 304 306 305 303 304 304 304 302 302 301 301 305 311 314 315 316 318 318 320 320 321 321 320 319 320 320 322 318 317 322 324 323 323 322 315 304 304 303 303 304 307 308
305 304 306 305 305 305 305 305 304 303 303 303 303 302 302 302 304 308 316 317 318 320 320 320 320 319 319 320 320 318 317 325 326 324 323 322 311 305 304 303 306 308 309
306 305 305 305 305 305 304 304 304 304 303 303 303 303 303 303 304 306 308 312 316 319 321 320 320 319 319 320 319 311 311 315 323 326 324 323 320 310 304 303 307 314 311
305 305 305 304 304 304 303 304 304 304 303 303 303 302 303 303 303 307 308 312 317 318 319 320 321 319 321 319 320 315 309 309 315 323 325 324 323 315 307 305 309 313 314
306 306 306 305 304 304 304 304 303 303 303 303 302 302 303 304 303 302 302 302 304 305 308 312 320 320 319 319 319 320 318 311 308 312 321 324 323 321 312 310 311 312 313
306 306 305 305 304 303 303 303 303 303 303 302 302 303 303 303 303 303 303 302 302 301 302 304 308 313 319 316 317 318 319 318 315 311 313 316 323 323 319 313 311 313 312
304 304 304 304 303 303 302 302 301 299 299 301 302 302 302 302 302 302 303 303 303 303 302 302 303 306 307 314 317 316 317 318 318 319 317 313 315 323 321 317 314 314 314
303 303 302 301 301 301 301 300 297 298 298 297 298 298 300 300 301 301 301 301 302 302 301 301 301 301 302 305 312 316 316 317 319 317 319 319 316 316 321 319 317 316 313
302 301 300 299 299 299 296 294 293 293 293 293 294 294 295 296 297 298 298 298 298 298 299 300 300 300 300 300 301 308 315 315 315 317 317 319 320 319 319 320 317 316 315
300 299 298 296 295 294 293 292 292 292 292 292 294 295 295 296 297 297 297 299 299 298 299 300 300 299 299 300 299 299 301 308 315 316 316 316 318 321 319 319 319 316 316
297 296 295 295 295 293 292 292 292 292 293 293 293 294 294 295 296 297 296 296 297 298 299 300 300 299 299 299 302 302 301 300 303 314 315 316 317 318 321 319 318 317 316
297 295 295 294 292 291 291 291 291 292 292 292 292 293 294 294 294 295 295 296 297 298 299 298 299 299 299 298 298 300 301 302 301 303 311 315 316 316 318 319 317 317 317
295 294 294 292 291 291 291 291 291 291 292 291 291 292 292 292 292 292 294 294 295 296 297 297 298 298 298 298 296 297 299 300 301 302 306 307 311 313 316 316 317 317 316
294 294 292 292 292 291 291 291 291 291 291 291 291 291 291 291 292 292 293 293 294 295 295 296 297 297 298 297 296 295 296 300 300 299 299 303 307 307 313 313 317 317 316
293 292 292 292 291 291 290 290 290 290 290 290 290 290 290 290 291 291 292 292 293 293 294 295 295 296 296 297 297 296 295 296 298 299 300 299 296 300 307 312 309 317 318
292 292 292 291 290 289 289 289 289 289 289 289 289 289 290 290 290 290 290 291 291 291 292 293 295 295 296 296 296 296 295 294 295 298 298 298 296 295 305 307 307 308 315
292 291 290 289 289 289 288 288 288 288 288 288 288 288 288 288 288 288 288 288 288 289 290 291 292 294 295 295 295 295 295 296 296 297 297 297 297 295 301 303 304 305 308
291 289 289 288 288 288 288 287 287 287 287 286 286 285 284 284 284 285 285 285 286 286 287 288 289 291 293 295 295 295 296 295 296 296 298 297 296 296 297 303 303 306 305
289 288 288 288 287 287 287 287 286 286 285 285 284 284 284 284 284 285 285 286 286 286 286 286 286 287 289 291 294 295 295 295 296 297 297 296 295 297 300 299 301 303 304
288 288 287 287 286 286 285 284 284 285 285 285 285 285 285 284 284 285 285 285 286 286 287 287 287 286 287 288 290 294 294 295 296 296 297 297 296 297 300 301 302 303 304
287 286 286 286 285 284 284 284 284 285 285 286 286 286 286 286 286 286 285 286 286 286 286 287 287 287 287 287 288 289 292 293 294 296 297 297 296 296 297 299 300 301 303
286 286 285 285 284 283 284 284 285 285 285 286 285 285 285 285 285 286 286 286 286 286 286 286 286 287 287 288 288 288 289 289 291 293 295 296 296 295 295 296 298 299 301

GFSMA_850_thetae_009.txt.gz
Theta_e
312 308 308 308 308 307 307 308 308 309 309 311 313 315 317 319 319 319 321 320 322 323 324 325 325 325 323 322 319 325 326 325 324 321 314 310 311 311 313 319 319 319 318
312 310 312 308 307 307 306 305 305 306 307 308 310 315 317 317 316 318 318 319 320 318 319 322 322 322 324 323 320 321 325 326 323 321 321 312 308 308 309 314 318 319 318
308 308 309 307 306 307 303 304 302 301 302 306 310 311 311 315 317 318 319 321 319 320 321 320 320 320 320 324 326 320 322 324 322 321 322 318 308 306 306 307 312 315 315
305 305 306 306 305 303 303 303 302 302 301 301 301 306 311 313 315 317 318 319 321 321 320 320 319 319 319 322 321 325 327 323 322 323 324 322 311 305 304 304 305 312 312
304 304 307 305 305 304 304 304 304 303 303 302 302 302 302 302 302 303 308 314 317 318 320 320 320 321 320 320 321 320 321 326 324 324 323 323 318 306 304 303 304 304 306
306 304 305 306 305 305 304 304 304 303 303 303 302 303 303 303 302 303 303 303 303 307 316 318 318 320 320 320 320 320 321 322 325 326 324 324 323 319 315 305 303 304 305
307 306 305 305 305 304 304 304 303 304 303 303 303 302 302 302 303 302 306 305 305 312 316 317 318 319 321 320 319 319 319 319 320 320 327 323 324 322 319 309 304 303 304
307 306 305 305 305 304 304 304 303 303 303 303 302 303 302 301 301 303 303 303 304 303 304 310 315 319 319 319 319 318 319 317 316 318 320 326 324 323 322 319 310 304 305
307 306 306 305 305 305 304 304 304 303 302 303 303 302 302 302 302 302 302 302 302 302 302 302 304 306 307 318 318 318 319 319 314 309 311 315 318 324 323 321 315 307 304
305 305 306 306 305 305 303 303 303 302 303 302 300 298 299 301 303 302 301 302 302 302 301 302 303 302 303 304 309 317 317 317 318 319 313 312 316 318 318 322 317 311 306
305 306 306 306 305 304 304 303 303 302 301 299 297 299 300 300 300 300 300 299 300 299 300 301 301 301 301 301 302 303 311 318 316 317 317 317 314 316 322 320 321 316 309
304 305 305 304 303 303 302 301 300 300 296 294 294 293 294 294 295 296 297 298 298 298 298 297 299 300 300 300 300 301 302 304 315 316 317 318 317 318 318 316 318 318 314
304 303 302 301 300 300 300 299 298 296 296 293 291 291 291 291 292 293 294 295 295 295 296 297 298 297 298 300 299 299 299 299 300 308 313 315 317 318 320 319 317 318 318
303 301 301 300 298 297 299 299 296 293 291 291 292 291 292 291 292 293 294 295 296 295 295 296 296 299 300 299 300 301 302 302 301 300 304 311 315 316 317 320 318 316 316
300 299 299 296 296 298 297 293 293 291 291 291 291 291 292 292 292 292 292 293 294 295 296 296 296 296 295 297 299 299 299 300 303 303 301 301 303 313 315 316 318 318 316
299 298 297 298 297 293 293 292 290 291 291 291 291 291 292 291 292 293 293 294 295 295 295 295 295 297 298 298 298 299 298 298 298 299 300 301 300 302 309 314 316 316 319
300 298 298 294 293 292 292 291 292 291 291 291 291 291 291 291 291 291 292 292 293 293 293 293 294 294 294 295 295 296 298 298 297 297 298 299 300 300 303 307 310 313 316
296 296 294 293 292 292 292 292 291 291 290 290 290 290 290 290 290 290 290 291 291 291 292 292 292 293 294 295 295 295 296 297 297 295 296 298 299 299 299 299 303 310 313
296 293 292 292 292 292 291 290 289 288 289 289 289 289 289 289 289 289 289 290 290 290 291 291 292 293 293 294 295 295 295 296 297 296 295 296 296 297 298 298 297 302 307
293 293 292 292 291 290 289 289 288 288 288 288 289 289 289 289 289 289 289 289 289 290 290 290 290 290 291 291 293 294 295 296 296 296 295 294 293 294 295 296 296 296 299
293 292 292 291 290 288 288 288 288 288 288 287 287 287 287 287 287 287 287 286 286 286 287 287 288 288 289 290 291 293 295 295 295 295 295 295 294 294 296 294 295 296 294
292 291 291 289 288 288 287 287 287 287 286 286 286 286 286 285 285 286 285 285 285 284 285 285 286 286 287 288 289 292 294 295 295 295 295 294 294 295 295 296 296 296 294
291 289 288 288 287 287 287 286 285 285 284 284 284 285 285 286 286 286 285 285 285 285 285 285 285 285 286 286 287 288 290 292 294 295 295 295 294 295 295 296 296 295 295
289 288 287 286 286 286 285 284 284 284 284 284 285 285 285 285 285 286 286 286 286 286 285 285 285 286 286 286 286 286 287 289 292 293 294 295 295 295 296 296 296 294 297
288 286 286 285 285 285 284 283 283 284 284 284 284 284 284 286 285 285 285 285 285 285 286 286 285 286 286 287 287 287 287 287 288 289 292 294 295 295 296 296 295 296 299
286 285 285 285 285 284 283 282 283 284 283 284 283 284 284 284 284 284 285 285 285 285 286 286 286 286 286 286 287 288 288 288 287 289 290 291 293 295 296 296 294 296 298

GFSMA_850_thetae_012.txt.gz
Theta_e
312 311 308 307 307 307 307 307 307 307 307 308 308 310 314 316 317 319 320 320 321 323 322 324 325 325 326 325 324 324 322 327 326 324 322 319 321 322 321 320 320 321 321
311 310 309 309 308 307 306 306 304 304 303 303 304 306 308 312 317 317 317 317 318 320 320 320 320 322 323 324 326 325 324 323 326 326 324 322 318 314 313 313 316 320 320
309 309 310 309 309 308 307 304 304 303 302 302 302 302 305 310 310 312 313 316 318 319 320 319 319 320 321 321 320 325 325 323 323 325 325 324 323 320 315 310 312 315 318
306 306 307 310 309 307 305 303 303 303 303 302 302 302 302 301 302 303 304 307 309 312 318 321 321 320 320 319 319 320 322 327 321 323 325 325 323 322 319 312 308 311 314
308 306 305 306 308 306 304 304 304 304 303 303 303 303 302 302 302 302 302 302 302 303 306 315 318 319 319 319 319 320 321 323 328 322 320 319 321 323 322 313 308 307 310
309 308 305 304 305 305 305 305 304 304 302 302 302 301 301 301 301 301 302 302 305 305 308 309 313 315 317 318 318 319 320 321 322 322 325 322 321 322 323 319 307 305 306
308 308 307 306 305 305 305 304 304 303 302 302 302 302 300 300 300 299 300 300 305 305 303 303 303 309 316 318 318 319 320 320 320 321 321 321 326 323 323 323 314 305 305
308 308 307 307 305 305 304 304 304 303 303 302 301 302 302 300 299 299 298 298 298 299 301 302 302 302 303 305 312 318 320 319 319 318 319 321 323 322 323 323 322 319 309
308 308 307 307 306 305 305 304 304 304 303 302 301 303 301 300 297 298 299 299 299 297 297 298 301 302 302 303 304 309 317 318 319 319 318 319 319 321 324 323 323 322 317
307 307 307 306 306 305 305 304 304 303 303 303 302 302 297 297 299 299 298 297 296 297 295 295 295 298 301 301 301 302 308 313 318 318 318 318 314 315 319 322 323 323 320
306 306 306 306 306 305 305 303 303 302 302 299 295 295 295 295 293 293 295 294 293 293 293 293 293 294 299 301 301 300 300 302 307 307 316 317 318 314 312 317 319 321 321
307 306 305 306 306 305 305 304 303 301 299 300 300 299 296 293 291 292 294 294 294 292 294 294 293 294 295 296 295 298 299 299 299 305 301 312 315 317 318 316 321 320 318
307 306 305 306 305 302 303 302 300 299 299 299 299 294 291 291 291 292 293 294 294 294 294 294 294 293 295 296 299 298 300 300 300 300 300 300 303 311 316 317 316 320 319
304 303 303 302 300 299 300 298 298 299 299 296 293 292 291 291 291 292 293 293 294 294 293 294 294 294 294 294 294 299 299 299 299 301 302 301 301 302 308 314 316 316 320
302 301 301 299 301 301 300 300 296 295 293 292 291 290 291 291 291 291 292 292 293 294 294 294 295 295 295 295 297 297 297 298 298 298 298 301 302 302 301 303 312 315 316
299 298 298 299 299 297 296 295 293 292 292 291 291 291 291 291 291 291 291 291 291 292 292 292 292 292 292 292 291 294 298 298 299 299 298 298 297 299 300 300 302 307 313
298 300 300 297 296 294 293 292 292 292 292 291 291 291 290 289 290 290 290 290 290 290 291 291 291 292 292 292 292 293 292 294 297 297 297 297 296 296 297 299 300 301 304
298 296 295 293 292 292 292 292 292 291 290 289 288 288 288 288 289 289 289 289 289 289 289 289 290 290 291 291 292 293 293 294 292 292 296 297 297 296 297 297 298 299 299
296 295 293 293 292 292 292 291 290 289 288 288 288 288 288 288 288 288 288 289 289 289 289 289 289 289 289 290 290 290 291 292 293 293 294 295 296 296 295 295 295 296 297
294 293 292 292 292 291 291 289 288 288 287 288 288 288 288 287 287 287 287 287 287 287 287 287 287 288 288 288 288 289 290 290 291 292 294 295 296 296 295 295 293 294 294
295 292 292 291 291 290 288 288 287 287 287 287 286 286 286 286 286 286 286 286 285 285 285 285 286 286 286 286 287 288 288 289 290 291 293 294 295 295 294 294 293 294 294
292 292 292 290 288 288 287 286 286 286 286 285 284 284 284 284 285 285 285 285 285 285 285 284 284 285 285 285 285 286 287 288 291 292 293 294 295 295 295 294 294 293 294
292 291 289 288 287 286 286 286 285 284 284 284 283 284 284 284 285 285 285 285 285 285 286 285 284 284 285 285 285 285 286 287 288 289 291 293 295 295 295 294 294 293 294
289 289 288 287 286 285 285 284 284 283 283 283 284 284 284 284 284 284 284 285 285 285 285 285 285 285 285 285 285 285 286 286 286 286 288 290 292 294 294 293 294 294 294
288 287 286 285 285 284 284 283 283 282 283 283 283 283 283 284 284 284 283 284 284 284 285 285 285 285 285 285 285 286 286 286 286 286 286 287 289 291 292 293 294 295 295
287 286 285 284 284 283 283 282 282 283 283 283 284 284 284 284 284 284 284 284 284 284 285 285 285 285 285 286 286 286 286 286 286 286 287 287 288 290 291 292 292 294 295

GFSMA_850_thetae_015.txt.gz
Theta_e
314 312 312 310 308 308 307 307 307 307 308 307 308 308 308 310 312 315 317 320 320 320 320 321 323 325 326 326 327 327 325 324 324 327 326 326 321 321 325 325 322 321 322
314 312 312 311 310 310 309 307 306 305 304 303 302 303 304 305 307 309 313 316 318 318 318 319 320 321 321 322 323 325 326 325 324 323 326 326 324 320 322 324 322 321 320
309 309 309 309 310 311 310 308 307 303 303 303 303 302 302 301 302 303 304 305 307 310 315 318 320 320 320 319 320 320 322 324 326 325 324 326 325 323 319 319 321 321 319
309 308 307 307 307 309 308 306 304 303 303 304 304 303 303 303 302 302 302 302 302 302 303 310 314 317 320 320 320 320 320 320 321 326 325 324 325 325 323 321 317 314 315
309 308 308 307 305 305 306 305 304 304 304 304 303 303 302 302 302 301 301 301 301 303 304 304 304 307 312 316 319 319 319 319 319 320 325 325 323 325 325 324 322 320 314
308 307 308 308 306 305 305 304 305 305 304 304 302 303 303 304 303 301 300 300 300 302 304 303 304 305 308 311 315 318 319 319 319 320 322 325 323 323 326 325 322 322 317
307 307 307 308 307 307 306 305 305 304 304 303 302 302 302 302 303 301 300 299 299 298 298 299 301 302 303 304 309 314 316 318 319 319 320 324 324 324 323 322 322 323 321
309 308 307 307 307 307 307 306 305 305 304 304 302 302 301 302 302 301 300 299 298 298 298 297 297 297 300 302 303 304 308 312 317 316 320 320 321 322 323 321 322 323 323
309 308 307 307 307 307 307 306 305 304 304 304 303 302 302 301 300 301 300 299 298 297 295 294 294 294 294 298 302 302 304 305 310 316 317 317 318 320 321 320 319 322 323
309 308 307 307 307 308 307 305 304 304 303 304 303 303 301 297 295 294 297 297 296 296 293 292 292 292 292 295 300 301 301 301 303 308 310 315 317 318 319 319 321 323 323
311 308 307 307 307 308 306 304 304 303 304 303 301 298 296 296 296 295 294 296 295 292 292 291 290 291 291 292 293 295 298 300 299 299 303 308 312 317 317 316 315 318 322
310 310 309 306 308 307 305 304 303 302 300 300 300 299 299 296 294 292 292 292 291 291 291 290 290 291 291 291 293 297 297 296 297 299 300 304 307 307 316 316 317 315 317
307 307 307 305 306 305 305 302 300 299 299 300 300 299 299 299 295 292 291 291 292 292 292 292 291 291 292 293 291 292 294 298 299 300 301 300 303 306 307 312 316 317 317
306 306 305 304 303 300 297 298 298 299 300 299 299 296 294 292 291 291 291 292 291 292 292 292 292 291 293 294 295 293 295 295 297 300 300 300 301 302 302 302 305 315 316
305 303 300 299 297 297 298 299 299 298 297 294 292 292 291 291 291 291 291 290 291 292 291 291 291 291 291 291 291 291 290 295 297 298 299 298 298 299 300 301 302 303 311
303 300 298 297 298 299 299 297 294 293 292 292 292 292 291 291 290 290 289 289 290 290 291 290 290 290 290 291 291 292 291 290 292 297 298 297 297 298 298 297 298 300 302
298 297 298 299 298 293 293 292 292 292 292 292 291 291 289 288 287 287 287 288 288 289 289 289 289 289 289 288 288 288 289 289 290 290 293 296 296 297 296 296 297 298 299
298 298 298 295 293 292 292 292 292 292 290 290 289 288 287 287 287 287 288 288 288 288 288 288 288 289 288 288 288 289 289 290 291 291 292 291 293 294 297 297 296 297 298
295 295 294 293 292 292 292 291 291 290 289 288 288 287 287 287 287 287 287 287 287 287 287 287 287 288 288 288 288 288 288 287 288 288 289 291 292 293 295 296 297 297 295
294 294 295 292 292 292 291 290 289 288 287 287 286 286 286 286 286 286 286 286 285 285 285 286 286 286 286 286 286 286 287 287 287 288 288 289 290 292 295 296 296 295 295
294 292 292 292 291 291 289 288 287 286 286 286 286 285 285 285 284 284 284 284 284 285 285 285 285 285 285 285 285 286 286 286 286 287 288 289 290 291 294 295 295 295 294
293 292 292 291 290 288 287 286 285 285 285 284 284 284 284 284 284 284 284 284 285 285 285 284 285 285 285 285 284 285 285 285 286 286 287 288 290 291 292 293 295 295 294
291 290 289 288 287 286 286 285 284 284 284 283 283 283 283 283 283 283 284 284 284 284 284 284 285 285 285 285 285 284 284 285 285 286 288 289 290 293 293 294 295 294 294
289 288 288 287 286 285 284 284 283 283 283 283 283 283 283 283 283 283 283 283 284 284 284 284 285 285 285 285 285 285 285 285 285 285 286 286 287 288 292 294 295 295 294
287 287 286 285 284 284 283 282 283 282 283 283 283 283 284 284 284 284 284 284 284 284 284 284 284 284 284 285 285 285 285 285 285 285 286 286 286 287 287 292 293 293 293
286 286 285 284 283 282 282 282 282 282 283 283 283 284 284 284 284 284 284 284 284 284 285 284 284 284 285 285 285 285 285 285 285 285 286 286 287 287 287 289 290 292 291

GFSMA_850_thetae_018.txt.gz
Theta_e
319 318 314 312 311 310 308 309 308 307 306 306 305 305 304 304 305 305 306 309 316 318 319 319 320 322 323 323 326 327 327 327 325 326 329 330 329 327 322 321 324 321 323
317 316 312 310 311 310 309 309 308 307 306 305 304 304 304 303 303 303 303 304 308 312 311 315 317 318 319 320 322 324 325 325 326 325 325 325 326 326 326 321 323 324 321
310 309 308 308 308 308 309 309 308 307 305 304 303 303 304 304 304 304 303 304 304 303 302 302 306 313 317 319 319 320 321 322 323 323 326 326 324 324 326 324 321 324 324
309 309 308 307 308 307 306 307 306 306 304 303 304 304 304 303 303 303 303 302 302 303 302 303 303 303 306 311 317 320 320 320 320 321 321 323 326 325 325 326 322 321 324
309 308 308 307 308 308 307 305 305 305 304 304 304 304 303 303 303 303 303 303 302 301 301 302 303 303 304 305 306 311 316 320 321 320 320 321 322 326 326 325 325 321 319
309 309 308 308 307 308 307 307 306 305 305 305 304 304 303 303 303 303 302 302 301 300 300 299 300 302 302 304 304 307 311 315 318 319 319 320 322 323 322 326 325 325 323
310 309 309 308 307 307 307 307 307 306 306 305 304 304 304 303 303 302 302 302 301 301 302 300 299 298 298 299 302 302 304 307 311 314 318 319 319 320 321 321 326 324 325
311 311 310 309 308 307 307 307 307 307 306 306 305 304 304 304 304 303 302 302 302 301 301 300 299 299 297 296 296 301 302 304 307 309 311 316 317 318 319 321 322 323 325
311 311 310 309 308 307 307 307 307 307 307 306 305 304 303 303 303 302 301 301 302 301 301 300 298 297 296 294 294 295 299 301 302 304 306 309 315 316 318 320 321 320 325
310 309 310 310 309 307 307 307 307 307 306 305 304 303 303 303 302 301 300 299 299 300 301 300 296 295 294 294 292 292 293 298 299 299 300 303 307 314 315 315 315 318 323
308 308 308 307 309 308 307 308 308 306 305 304 304 303 302 301 298 297 296 297 296 298 299 297 295 294 293 292 291 291 292 295 295 297 297 299 301 305 308 315 315 316 318
307 306 306 306 306 307 306 306 306 304 304 303 302 299 298 297 295 294 294 296 298 300 299 294 291 291 291 290 290 290 290 291 295 297 296 297 299 299 302 311 315 317 318
305 304 303 303 305 305 304 303 302 300 298 298 298 298 298 299 298 297 295 294 292 292 292 291 290 290 290 289 289 290 291 291 292 294 297 302 301 302 301 303 309 314 316
303 303 303 303 304 302 300 298 298 297 298 299 299 299 298 297 294 292 292 291 291 291 290 290 289 289 289 289 289 290 291 290 291 295 297 303 302 299 300 303 304 309 307
302 302 302 301 300 298 298 298 298 299 297 296 295 294 293 292 292 291 291 291 290 290 290 289 289 289 289 289 288 288 289 289 289 290 294 298 300 298 298 300 302 304 305
301 301 299 298 297 298 298 298 297 293 293 292 292 292 291 291 290 289 288 288 287 288 288 288 288 288 288 288 288 288 288 288 288 288 289 293 296 297 297 300 299 300 301
299 297 297 298 298 297 293 292 292 292 292 292 291 290 289 288 287 287 287 287 287 288 288 288 288 287 287 288 288 287 287 287 287 288 288 289 290 293 295 298 296 298 299
296 296 297 294 293 293 292 292 292 292 291 290 290 288 287 287 287 287 287 287 287 287 287 288 287 287 287 287 287 287 287 287 287 287 288 288 289 291 293 294 296 296 297
295 295 296 295 294 293 292 292 291 290 289 288 287 287 286 286 286 286 286 286 286 286 286 286 286 286 286 286 286 286 286 286 286 287 287 287 288 288 290 292 293 296 296
294 294 293 292 292 291 291 290 289 288 287 287 286 286 285 285 285 285 284 284 284 284 284 284 284 285 285 285 285 285 285 286 286 287 287 287 288 288 288 289 292 294 296
292 292 292 292 292 291 290 288 287 286 286 286 285 285 284 284 283 284 283 284 284 284 284 284 284 284 284 284 285 285 285 285 286 286 286 287 287 288 288 289 291 294 297
294 293 292 290 289 288 287 286 286 285 284 284 283 283 283 283 283 283 283 283 283 284 284 284 284 284 284 284 285 284 284 284 284 285 286 287 286 287 288 289 290 292 295
290 289 289 288 287 286 285 285 284 283 283 282 283 283 283 283 283 283 283 283 282 283 283 283 283 284 284 284 284 284 284 285 285 285 285 285 286 289 289 291 291 292 294
288 288 287 286 286 285 284 283 282 282 282 282 282 283 283 283 284 284 284 283 283 283 283 284 284 284 284 284 284 284 284 285 285 285 285 285 285 286 287 288 290 293 294
287 286 286 285 284 283 283 282 282 282 282 282 283 283 283 284 284 283 283 283 283 284 284 284 284 284 284 284 284 284 284 284 284 284 285 285 285 286 286 287 288 290 294
286 285 284 283 283 282 282 281 281 282 282 282 282 283 283 284 283 283 283 283 283 284 284 284 284 285 285 284 284 284 284 284 284 285 285 285 285 285 286 287 288 290 292

GFSMA_850_thetae_021.txt.gz
Theta_e
316 315 315 315 312 310 310 310 309 309 308 307 306 304 303 303 303 304 305 305 306 311 316 318 320 319 321 322 322 324 326 327 327 327 325 325 328 328 328 326 322 323 321
312 311 310 309 309 308 308 308 308 307 307 307 305 304 303 303 303 303 303 303 303 303 304 307 311 316 319 319 319 320 322 322 325 326 326 325 329 329 329 328 325 322 323
310 309 309 309 308 307 307 307 307 307 306 305 305 304 304 304 304 304 304 304 304 304 303 303 303 303 305 312 316 318 319 320 321 321 323 325 325 325 325 326 326 324 322
309 309 309 308 308 307 307 308 307 306 305 305 305 304 304 304 304 304 304 303 303 303 303 302 302 303 303 303 304 310 315 319 320 321 321 321 322 323 326 325 324 326 323
311 310 310 309 308 308 307 308 307 307 306 306 305 304 305 305 304 303 304 304 304 303 302 302 301 301 301 303 303 303 305 310 314 320 321 321 321 321 322 324 326 325 326
311 311 311 311 310 309 308 308 308 307 307 306 305 305 305 305 304 304 304 304 303 302 301 302 303 302 301 300 301 303 304 306 311 311 315 320 321 320 321 321 323 327 325
311 310 310 310 309 309 309 308 308 308 307 307 305 305 305 305 304 304 303 303 303 303 302 302 302 302 301 300 299 299 302 304 305 306 308 312 316 318 319 322 322 323 322
312 312 312 311 311 310 308 308 308 308 308 307 307 306 306 306 305 304 303 302 302 302 301 302 302 302 301 300 300 298 297 300 303 304 305 307 309 312 316 318 319 319 320
311 311 310 310 310 309 310 310 308 308 308 308 307 306 306 306 306 304 303 302 301 300 300 300 301 301 301 299 298 297 295 295 297 301 302 303 304 307 310 314 317 318 319
308 307 307 307 307 307 307 309 309 308 307 308 306 306 305 305 305 305 303 301 300 298 297 298 298 299 299 299 298 295 294 293 293 294 298 301 302 302 305 306 312 316 317
304 303 304 305 304 304 305 306 307 307 306 307 306 305 304 304 302 301 303 301 297 296 297 297 299 300 299 298 296 294 293 292 292 292 294 295 297 300 301 303 304 308 315
301 301 303 303 302 303 303 304 305 305 304 303 303 302 301 302 300 298 297 298 298 298 297 298 297 296 296 295 294 292 291 291 291 291 291 294 296 296 297 299 301 303 309
300 301 302 302 302 302 303 303 301 300 299 299 299 299 299 298 298 297 297 296 295 296 295 294 294 293 293 293 292 290 290 290 290 291 291 292 295 300 299 301 301 301 304
300 301 302 301 301 301 301 299 298 298 297 298 298 298 298 297 296 295 295 294 293 295 294 294 293 292 292 292 292 289 288 288 289 289 289 292 295 301 303 302 302 303 303
300 301 300 299 299 298 298 298 298 298 297 295 295 295 294 293 293 292 292 292 292 292 293 292 291 291 291 291 291 291 291 289 288 288 289 289 291 298 300 299 299 302 303
299 298 297 297 297 296 296 295 293 293 292 293 292 291 291 290 290 289 289 290 290 290 289 289 290 290 290 290 289 290 290 289 287 287 288 288 289 290 297 298 297 299 301
297 297 297 295 296 295 293 293 292 292 292 291 291 290 289 289 288 288 289 289 289 289 289 289 289 289 289 289 289 289 290 290 289 288 287 288 288 288 289 294 296 299 299
296 295 295 295 295 294 293 292 292 291 291 290 290 288 287 287 287 288 288 288 288 288 288 288 288 288 288 288 289 289 289 289 289 289 288 287 287 288 288 289 294 296 297
295 295 295 292 292 292 292 291 290 290 289 288 287 286 286 286 286 286 286 286 286 286 286 286 287 287 287 287 287 287 288 288 288 287 286 286 287 287 287 288 289 293 295
294 292 292 291 291 292 291 291 290 288 287 286 286 286 285 285 285 284 284 284 285 285 285 285 286 286 286 287 287 287 287 288 288 288 287 287 287 287 287 287 288 289 293
292 292 293 293 292 290 289 288 287 286 286 285 284 284 283 283 283 283 284 284 285 285 285 285 285 285 286 286 286 286 287 287 287 287 287 287 288 288 288 288 288 288 289
291 290 289 289 288 288 286 286 285 284 284 283 283 283 283 283 283 284 284 284 284 283 284 284 285 285 285 286 286 285 285 286 286 287 286 287 287 288 288 289 289 288 288
289 288 288 287 286 286 285 284 283 283 282 282 282 283 283 283 283 283 283 284 284 283 283 283 283 284 284 285 285 285 285 285 286 286 286 286 286 286 287 287 288 288 288
287 287 286 286 285 284 283 283 282 282 282 282 282 282 282 283 283 283 283 283 283 283 283 284 283 284 284 284 285 285 285 285 285 285 285 285 286 286 286 287 287 288 290
286 285 285 284 283 283 282 282 281 281 281 281 282 282 282 283 283 283 283 283 283 283 284 283 283 284 284 284 284 284 284 284 285 285 285 285 285 285 286 286 286 287 289
285 284 284 283 282 282 281 281 280 281 281 281 282 282 282 283 283 283 283 283 282 283 283 283 283 283 284 284 284 285 285 285 285 285 286 286 286 286 287 287 286 287 287

GFSMA_850_thetae_024.txt.gz
Theta_e
324 324 322 321 320 320 319 319 319 318 316 311 308 307 306 308 305 309 310 305 304 305 305 311 317 319 320 320 322 324 326 327 326 327 327 326 326 328 324 324 323 323 321
320 320 319 318 318 318 317 317 317 314 314 310 309 306 304 309 308 305 307 306 305 305 305 305 306 314 318 319 320 320 320 321 323 324 326 327 326 325 327 327 327 324 322
310 310 317 317 316 317 313 312 313 311 310 311 307 306 305 305 306 304 305 307 306 305 304 304 304 305 304 305 309 315 317 318 320 321 322 324 326 326 327 329 328 328 324
311 311 315 316 315 314 316 316 316 315 314 312 310 309 308 308 307 305 305 306 307 306 305 304 304 304 304 304 304 303 305 312 317 319 320 321 321 322 325 326 325 326 327
312 311 311 313 314 315 316 316 315 315 313 312 310 309 309 308 308 307 307 306 306 305 306 305 302 302 303 303 303 303 303 303 306 313 318 320 321 321 321 322 325 326 325
311 311 311 312 314 315 315 315 315 315 314 312 310 309 308 309 308 308 307 307 306 306 305 305 304 304 302 303 303 302 302 303 304 304 308 316 320 321 321 321 321 323 326
313 313 312 312 312 314 315 314 314 315 315 313 311 310 309 309 309 308 308 307 306 306 305 305 304 304 303 302 302 302 301 300 301 303 304 305 309 315 320 320 320 321 321
312 311 310 310 311 312 313 313 314 314 314 313 312 311 310 310 310 309 308 307 307 306 305 305 303 302 301 302 301 301 301 301 299 299 301 303 304 305 309 313 317 319 322
307 306 304 304 304 306 310 311 312 312 313 313 312 311 311 310 310 310 309 308 307 306 305 304 302 300 300 300 301 301 301 300 299 298 297 299 301 303 304 307 310 314 318
306 304 304 304 304 306 308 309 309 310 311 311 312 312 311 310 310 310 308 307 306 305 305 303 301 300 300 300 300 301 300 300 299 297 296 296 297 298 301 303 305 307 311
305 304 305 300 301 303 305 305 307 308 308 309 309 310 310 309 308 307 308 307 306 304 303 301 300 300 300 300 300 299 300 300 298 297 294 294 295 295 296 298 301 303 305
303 303 304 300 301 302 302 302 303 303 304 305 305 305 305 303 304 305 305 306 306 302 300 300 300 300 299 300 299 298 296 296 296 295 294 293 292 293 294 295 295 297 300
302 302 301 302 303 302 301 301 301 301 300 300 300 300 300 299 299 300 299 299 299 300 300 300 299 299 298 298 298 296 294 293 291 292 292 291 291 292 292 293 294 295 296
301 301 301 301 300 300 301 299 299 299 299 298 298 297 296 296 295 295 294 294 295 295 297 297 299 298 297 296 296 295 294 292 291 289 289 290 290 290 292 294 298 297 298
300 300 300 300 300 299 298 297 297 296 294 294 293 293 293 293 293 292 292 292 292 294 295 296 296 296 295 294 294 294 294 294 293 291 288 288 289 289 290 292 298 301 301
299 300 299 298 297 297 296 295 295 296 294 294 294 293 293 293 293 292 292 292 292 292 292 292 292 292 292 292 292 292 292 291 291 291 289 287 288 288 288 289 293 300 300
298 298 297 296 295 295 294 293 293 293 293 293 293 293 292 292 291 291 291 291 291 291 291 291 291 291 291 291 292 292 292 292 292 291 291 289 288 288 288 288 289 293 299
296 296 296 295 293 293 293 293 293 292 291 291 291 290 290 289 289 290 290 290 290 290 290 290 290 290 291 291 291 291 291 291 291 291 290 290 289 287 288 288 288 288 293
294 294 294 294 293 292 292 291 291 290 290 290 289 289 289 289 289 289 288 288 288 288 288 288 289 289 289 289 289 290 290 290 290 290 290 289 289 288 287 287 287 288 288
295 295 294 292 292 292 290 289 289 289 288 288 288 288 288 288 288 287 287 287 287 287 287 288 288 288 288 289 289 289 289 290 290 290 290 290 289 289 289 287 287 287 287
294 293 292 290 290 289 288 287 286 287 287 287 287 287 286 286 285 284 284 285 286 287 287 287 287 287 287 288 288 288 288 288 289 289 289 289 290 290 291 290 289 288 287
290 290 289 289 288 288 287 286 285 284 285 286 286 286 285 285 285 285 284 284 284 284 285 285 286 286 287 287 287 288 288 288 288 288 288 289 288 289 289 290 290 290 290
289 288 288 288 287 287 286 284 284 283 284 285 286 285 285 285 285 285 284 284 283 284 283 283 284 285 286 286 286 287 287 287 288 287 287 288 288 288 288 288 288 289 289
288 288 287 287 286 286 284 283 283 283 284 285 285 284 284 284 284 283 283 283 284 284 285 285 285 285 285 285 285 286 286 287 287 287 287 287 287 287 287 287 287 287 288
287 287 286 286 285 285 283 282 281 282 283 283 283 283 283 283 283 283 283 284 284 285 285 284 284 284 284 284 284 285 286 286 286 287 287 287 287 286 287 287 287 287 287
286 286 285 284 284 283 282 281 280 281 281 282 282 283 283 283 283 283 283 284 284 284 284 284 284 284 284 284 284 284 285 285 286 287 287 287 287 287 287 287 288 288 288

GFSMA_850_thetae_027.txt.gz
Theta_e
325 324 323 322 322 321 321 320 320 319 320 319 317 316 315 314 314 315 313 312 307 305 305 305 308 312 316 318 319 321 325 327 327 327 327 327 326 326 326 325 324 323 323
322 322 321 320 319 318 319 318 317 318 318 317 316 314 313 311 311 313 311 310 308 305 305 305 305 306 309 316 319 320 320 322 324 326 326 327 327 326 326 327 323 323 323
320 319 320 319 318 318 318 318 318 318 318 317 316 314 312 311 311 312 310 309 310 307 305 305 305 305 305 305 306 308 316 319 319 320 321 323 325 327 326 325 326 326 326
313 313 319 318 318 318 318 318 318 318 317 317 316 315 312 311 311 311 310 310 309 310 308 306 305 305 305 305 304 304 304 305 310 316 318 320 321 322 324 326 325 327 327
318 316 317 318 318 318 318 318 317 317 317 317 316 314 313 312 311 311 310 310 309 308 309 309 307 305 305 304 304 303 303 303 304 304 308 317 320 320 321 321 323 326 326
316 316 316 317 317 317 317 317 316 316 316 316 316 315 313 312 311 311 311 310 309 309 308 308 307 305 304 304 304 304 303 303 302 303 304 304 312 319 321 321 322 322 323
315 315 314 314 314 314 314 314 315 316 316 316 316 316 315 314 312 311 311 311 310 309 309 308 307 307 306 305 303 304 304 304 303 302 301 302 304 305 313 320 321 321 321
313 313 312 311 311 311 311 311 312 313 314 314 314 314 314 314 314 312 311 311 310 310 309 308 307 307 306 305 304 304 303 304 303 302 302 301 301 302 304 307 312 316 319
312 311 310 309 309 309 309 309 310 310 311 312 312 313 313 314 313 313 313 312 311 310 309 308 307 307 306 304 304 303 303 303 303 303 301 301 301 300 300 302 304 307 311
309 308 307 307 307 308 307 308 308 308 309 310 310 310 311 313 313 313 312 312 311 311 309 308 307 306 304 303 303 303 303 303 303 303 303 302 300 300 299 299 300 302 305
306 305 305 305 306 306 306 307 307 307 307 307 307 308 309 309 310 308 310 311 311 310 309 308 308 306 304 303 303 303 302 301 302 303 303 303 301 300 299 298 297 298 300
305 304 304 304 305 305 306 305 305 305 304 303 303 303 304 304 305 303 305 306 307 308 308 307 305 304 303 302 302 302 302 300 300 300 300 299 299 299 299 297 296 296 296
303 302 303 303 304 304 303 302 302 301 300 299 299 299 299 300 300 299 299 299 300 302 302 305 302 301 301 301 301 301 300 298 298 296 294 295 296 296 297 296 295 295 294
301 302 302 302 301 301 301 300 299 298 298 297 297 297 296 296 296 295 295 294 295 296 297 298 299 300 300 299 299 299 298 296 295 295 292 291 292 292 293 294 294 294 293
301 301 301 301 300 300 299 298 298 297 297 295 295 295 295 294 294 294 293 293 293 295 295 297 297 298 298 298 297 297 296 296 295 294 294 293 291 290 290 291 292 292 292
300 299 299 299 299 298 297 296 295 295 295 295 294 294 294 294 294 294 293 292 291 292 293 294 294 294 294 294 294 294 294 294 294 293 293 293 292 289 288 288 289 290 291
298 297 295 295 296 295 295 295 294 294 294 293 293 293 293 293 292 292 292 292 293 292 292 292 291 292 292 292 293 293 293 293 293 293 293 292 292 291 289 288 288 288 289
297 296 295 295 296 295 294 294 293 293 292 292 292 291 291 290 290 290 291 291 291 291 291 291 291 291 291 291 292 292 292 293 292 292 292 292 291 291 290 289 288 288 288
296 296 296 295 295 294 293 293 292 292 291 290 290 290 290 290 290 290 290 290 290 290 290 290 290 290 290 290 290 291 291 291 291 291 291 291 291 290 290 289 289 288 288
295 294 294 294 293 292 291 290 290 289 289 289 289 289 289 289 289 289 289 289 289 289 288 288 289 289 289 290 290 290 290 291 291 291 291 291 291 291 290 290 290 289 287
293 293 292 291 291 290 290 289 288 287 286 287 287 288 288 288 287 287 286 286 286 287 287 288 288 289 289 289 289 289 289 290 290 290 290 290 291 291 291 291 291 291 290
292 291 290 290 290 289 289 288 287 286 285 286 287 287 288 288 287 287 286 285 285 285 285 285 286 287 287 288 288 288 288 289 289 289 289 289 289 289 290 290 290 291 291
290 290 289 289 289 288 288 287 286 285 284 285 286 287 287 287 286 286 286 285 284 284 284 284 284 285 286 286 286 287 287 288 288 288 289 289 288 288 288 289 289 289 290
289 289 289 288 288 287 286 286 285 284 284 284 285 285 285 285 285 284 284 284 284 285 285 285 285 285 286 286 286 286 287 287 287 287 287 288 287 288 287 288 288 288 287
288 288 288 287 286 286 285 284 283 282 282 283 283 283 283 284 284 284 284 284 284 284 285 286 285 285 284 284 284 284 285 285 287 287 287 287 287 287 287 287 287 287 287
288 288 287 285 284 284 284 282 281 281 280 281 282 282 282 283 283 284 284 283 283 284 285 284 284 284 285 285 285 285 284 285 285 286 286 287 288 288 288 288 287 287 288

GFSMA_850_thetae_030.txt.gz
Theta_e
324 320 320 320 320 320 319 319 319 318 319 319 319 317 316 314 314 311 313 314 313 311 308 305 305 306 308 312 316 317 319 322 325 327 328 328 327 324 324 324 325 326 325
316 315 317 318 319 319 318 316 317 318 318 318 318 316 316 314 312 311 313 313 311 309 308 305 305 305 306 308 314 318 319 320 323 326 327 327 327 327 326 325 325 324 323
316 315 316 317 319 318 317 316 317 318 318 317 317 317 316 315 313 311 310 312 310 309 309 306 306 306 306 306 306 307 314 319 319 320 323 325 326 326 327 326 326 326 324
318 316 315 316 317 318 316 318 317 317 318 317 317 317 316 315 314 312 311 311 310 309 310 309 306 305 305 306 306 306 305 305 307 315 318 320 321 323 324 325 326 326 326
317 317 316 316 316 317 317 317 317 317 317 317 317 317 317 316 315 313 312 311 311 310 310 310 309 308 305 305 306 306 306 305 305 305 305 311 317 319 320 322 323 325 325
316 315 313 313 313 314 314 314 315 315 316 316 315 316 316 315 315 315 313 311 311 310 310 309 309 309 308 306 305 305 305 305 305 304 304 304 305 310 317 320 321 322 322
315 314 314 314 313 312 312 312 311 311 311 314 315 316 315 314 316 317 316 313 311 311 310 309 309 308 308 307 304 304 304 304 304 304 304 303 303 304 305 311 319 320 321
315 314 312 311 310 309 309 308 308 310 311 312 313 314 314 313 313 313 314 315 313 312 311 310 309 309 308 308 306 305 304 304 304 304 304 303 302 303 302 303 307 314 319
314 311 309 308 306 306 307 307 304 306 308 309 310 311 312 312 312 312 313 314 314 313 312 311 310 309 308 308 307 305 305 304 303 304 304 303 302 301 302 301 302 304 307
308 307 306 305 305 305 305 305 306 307 307 307 307 308 309 309 309 309 310 310 311 312 312 312 311 310 308 307 307 305 304 304 303 303 303 303 303 303 303 301 301 300 301
307 306 305 304 303 303 302 305 306 306 306 307 306 305 305 304 305 306 306 307 307 309 310 310 311 310 308 308 306 304 303 303 303 303 302 303 303 304 304 303 300 300 299
306 304 302 301 302 303 304 305 305 302 302 301 301 299 299 299 299 299 299 301 301 304 307 308 309 308 308 306 304 303 303 303 303 302 302 302 302 303 302 301 299 300 299
303 302 301 301 303 303 301 301 300 300 300 299 298 297 297 297 297 297 296 296 296 298 300 302 305 305 306 303 302 303 302 301 301 301 300 300 300 300 300 298 297 297 297
301 301 301 301 300 299 299 299 299 299 297 297 297 295 295 295 295 294 294 294 294 294 295 297 298 299 301 300 299 300 300 300 299 299 300 299 298 296 295 295 295 295 294
300 300 299 297 298 298 298 297 296 296 296 296 296 296 296 295 295 294 294 293 293 293 293 294 295 295 296 298 298 298 298 297 297 297 297 296 295 294 292 293 293 293 292
299 298 297 297 295 295 295 295 293 295 294 294 293 293 293 293 293 293 293 293 293 293 292 292 292 292 293 293 294 294 294 295 295 296 295 295 294 294 293 292 291 291 291
297 297 297 296 295 295 295 295 295 294 294 293 293 293 293 292 292 292 291 291 292 292 293 293 292 292 292 292 292 292 293 293 293 293 293 293 293 293 292 292 291 289 289
297 297 296 296 296 295 294 294 293 293 292 292 291 290 290 290 290 290 290 290 291 291 291 291 291 291 291 291 291 291 291 292 292 293 293 293 293 292 292 291 291 291 289
296 295 295 294 294 293 292 292 291 291 291 291 289 288 289 289 289 289 289 289 290 290 289 290 289 289 289 290 290 290 290 291 291 291 291 292 292 292 292 291 291 290 290
295 294 293 293 292 291 291 290 290 290 289 289 288 286 287 287 288 288 289 288 288 289 288 288 288 288 289 289 289 290 290 291 291 291 291 291 291 291 291 291 291 290 290
293 293 292 291 290 290 290 289 289 288 288 287 287 285 286 287 287 288 288 287 286 286 286 286 286 287 287 288 289 289 289 289 289 290 290 291 291 291 291 291 291 291 291
293 291 290 290 289 289 289 288 288 287 287 286 285 284 286 286 287 287 287 287 286 285 285 285 285 284 285 285 286 287 287 287 287 287 288 288 288 288 288 289 290 290 290
290 290 289 289 289 288 288 287 287 286 285 284 284 284 284 285 285 285 285 285 285 284 284 284 284 284 284 285 285 285 286 286 286 286 287 288 288 288 288 288 288 288 289
289 289 288 288 288 287 286 286 286 284 283 282 282 282 282 283 283 283 283 284 284 285 284 284 285 285 286 286 286 286 286 287 286 286 287 286 286 287 287 287 287 287 287
289 288 288 288 287 286 285 284 284 283 282 281 281 281 282 282 282 282 283 283 283 283 284 284 285 285 285 285 285 285 285 285 284 284 285 286 287 287 287 287 287 287 287
288 288 288 288 286 284 284 284 283 283 282 281 281 281 281 281 282 283 283 283 283 283 283 283 283 284 284 284 285 285 286 285 285 285 285 285 285 286 286 287 288 288 288

GFSMA_850_thetae_033.txt.gz
Theta_e
316 315 316 316 317 319 318 318 318 316 315 315 316 317 317 316 315 314 312 310 311 313 313 312 309 306 306 306 307 310 314 319 323 325 327 327 327 327 325 321 323 326 326
314 314 314 315 316 318 318 317 316 316 317 317 317 317 317 317 317 315 314 311 310 313 312 310 309 306 305 306 307 309 312 316 318 322 326 327 327 327 326 324 323 324 326
314 314 313 314 318 318 317 316 315 315 317 317 317 317 317 317 317 316 315 314 313 311 310 310 308 308 305 306 306 306 308 312 317 319 321 325 327 327 327 326 325 324 325
319 318 317 315 313 313 313 313 313 314 316 317 317 317 317 317 317 317 316 315 313 312 312 310 309 309 308 305 305 306 305 306 307 313 318 319 322 325 326 326 325 326 325
319 319 316 314 313 314 314 315 315 316 316 317 317 317 315 312 314 316 315 316 314 312 311 311 311 310 309 308 306 305 305 305 305 305 306 309 317 319 321 323 324 324 326
316 315 315 314 314 313 313 313 312 312 313 312 311 310 313 314 315 315 313 315 316 315 312 311 310 310 310 309 308 306 305 305 305 305 305 305 305 307 314 319 320 321 324
315 315 315 314 312 311 309 308 308 307 306 306 309 307 310 310 311 310 312 310 311 314 315 313 311 310 310 310 309 308 306 304 304 304 304 304 304 304 304 305 310 318 320
315 314 312 311 309 307 306 306 306 306 304 302 307 309 309 308 308 310 310 312 312 313 314 313 312 311 310 309 309 309 308 306 303 304 303 303 303 303 303 303 304 305 315
311 310 308 308 306 305 305 305 304 302 302 305 307 307 307 307 305 306 306 307 308 309 311 311 312 311 311 310 309 309 309 307 303 303 303 303 303 303 302 302 302 302 305
309 308 307 306 305 304 302 300 302 304 306 306 305 305 304 301 300 301 303 304 305 306 308 309 310 311 310 310 311 309 308 307 306 304 303 302 303 301 301 301 301 301 301
307 307 307 306 302 299 302 303 304 304 302 301 300 300 299 300 298 298 298 299 299 300 302 304 304 307 310 310 308 307 307 306 304 304 303 302 303 302 301 302 303 302 300
307 306 304 301 300 300 302 302 300 299 299 299 299 298 297 296 296 295 296 296 296 296 298 298 299 300 302 306 306 304 307 304 303 303 303 303 302 301 302 302 302 303 302
305 304 300 299 299 299 298 298 298 298 298 297 296 296 296 295 294 295 294 294 294 295 295 295 296 297 299 303 304 303 304 301 300 301 302 302 302 301 301 301 300 298 300
303 301 300 299 298 296 297 297 297 296 295 295 295 294 296 295 295 294 294 294 293 293 293 292 293 294 295 296 300 301 300 301 300 300 297 298 299 301 300 299 299 297 295
301 300 299 297 297 295 295 295 294 294 294 293 294 293 293 293 293 293 293 292 292 293 292 292 292 292 292 292 294 297 297 297 298 298 298 297 298 299 299 299 297 294 293
300 299 297 296 296 296 295 295 295 294 294 293 293 293 293 293 292 292 292 292 292 292 292 292 291 291 292 292 292 292 295 294 294 295 295 295 295 295 295 295 295 294 293
297 297 296 296 296 295 294 294 294 293 293 293 292 292 292 291 290 290 290 290 290 290 291 291 291 290 290 291 291 292 293 292 293 293 294 293 293 293 293 292 292 292 292
295 296 296 295 294 293 293 292 291 291 291 291 291 291 290 288 287 287 289 289 289 289 290 290 290 290 289 290 290 290 290 291 291 291 292 293 293 293 293 293 292 292 292
294 294 294 293 292 292 291 290 290 290 290 290 289 289 288 287 286 285 287 288 288 288 288 289 289 289 289 289 289 288 288 289 289 290 290 291 291 292 292 292 292 292 291
294 294 293 292 291 290 290 290 289 289 288 288 288 287 286 286 285 286 287 287 288 288 288 287 286 286 286 287 287 288 289 290 290 290 290 291 290 291 291 291 291 291 291
293 293 292 290 290 289 289 289 289 288 287 287 287 286 285 284 285 286 286 287 287 287 287 286 286 285 285 285 285 286 288 288 289 289 290 291 291 291 291 291 291 291 291
293 292 290 289 289 288 288 288 287 286 286 286 284 283 283 283 284 284 285 285 285 285 286 286 285 285 284 284 284 284 285 285 286 287 287 287 287 288 289 289 289 289 289
291 290 289 289 288 288 288 287 286 285 284 283 282 281 281 281 281 282 282 283 283 283 284 284 284 284 284 284 285 285 285 285 285 285 286 286 286 286 287 287 288 288 288
290 289 288 288 288 287 287 286 284 284 283 283 282 282 281 281 281 281 281 282 282 283 283 283 284 284 284 285 285 285 285 285 285 286 286 285 286 286 286 286 287 287 287
289 289 288 288 288 287 285 284 283 283 282 282 282 281 280 280 280 281 282 282 283 283 283 283 284 284 283 283 285 285 285 284 284 285 285 285 285 285 286 286 287 287 287
289 289 288 288 287 286 284 283 283 282 282 281 280 280 279 280 280 281 282 282 281 282 282 282 282 283 283 283 283 284 284 284 285 285 286 286 286 285 285 285 286 286 287

GFSMA_850_thetae_036.txt.gz
Theta_e
318 321 315 315 315 316 317 317 317 317 315 315 314 315 315 315 314 315 315 315 314 313 310 310 311 310 309 307 305 306 309 313 320 323 324 325 325 325 325 325 322 320 325
317 314 315 315 316 317 317 317 316 316 315 314 314 316 317 317 317 317 317 316 316 315 314 313 311 310 309 308 307 305 307 311 315 318 322 325 326 326 326 326 325 321 325
316 314 316 314 314 315 314 314 314 315 314 315 316 316 316 317 317 317 317 317 317 316 315 314 313 311 310 309 308 306 306 306 310 316 317 320 324 326 326 326 326 323 322
319 318 319 317 315 313 313 313 314 314 314 315 315 316 317 317 317 317 314 315 316 316 315 313 313 312 311 311 310 308 306 305 305 306 312 318 319 322 325 326 326 325 323
319 320 317 316 315 313 313 314 313 313 312 312 312 312 311 310 309 310 314 313 311 314 315 315 313 312 311 311 311 310 308 306 305 305 305 306 311 318 319 322 324 325 325
317 316 315 315 315 315 314 313 310 308 306 305 304 303 302 301 301 303 307 309 311 312 312 312 314 313 311 311 312 311 310 309 306 305 305 305 305 305 309 318 320 322 323
315 315 314 314 314 313 310 308 307 305 304 303 302 300 300 300 303 304 305 309 310 311 311 312 313 314 312 311 311 311 311 310 308 306 305 304 304 304 304 305 309 316 319
313 313 313 312 310 308 307 306 305 304 302 299 300 304 305 303 303 305 304 306 306 307 307 309 310 311 312 312 311 310 310 310 310 308 307 307 304 304 303 304 304 305 307
310 309 308 307 306 306 306 304 302 299 299 303 304 303 302 302 300 300 301 301 303 304 304 306 306 307 310 311 311 310 309 309 309 309 308 307 305 303 303 303 302 303 303
309 308 308 307 307 304 299 298 300 303 302 301 301 300 300 299 298 298 298 298 298 298 298 298 301 303 305 308 310 310 309 308 307 308 308 307 306 303 302 302 302 301 301
308 308 306 304 301 298 297 299 299 299 298 298 298 298 298 297 296 296 295 295 295 295 295 296 296 297 298 301 304 307 309 310 308 307 305 304 305 303 302 302 301 300 300
306 305 303 301 300 299 297 296 297 298 298 297 297 296 295 295 295 294 294 294 295 294 294 293 294 295 296 297 300 302 304 306 307 305 305 305 305 304 301 300 300 301 301
303 302 301 300 300 298 296 296 295 296 296 295 294 294 294 295 294 294 294 294 293 293 293 293 292 292 292 292 294 298 301 303 304 305 300 301 301 300 299 299 300 301 301
301 301 300 299 297 296 296 295 295 294 294 293 293 293 293 293 293 293 293 293 293 292 292 292 291 291 291 292 292 292 295 299 301 302 299 298 298 298 298 299 299 299 299
300 297 296 296 296 296 295 295 295 294 294 293 293 293 293 293 292 292 292 292 292 292 292 292 291 290 290 291 291 292 292 293 297 299 298 300 296 296 296 297 298 298 298
298 295 297 296 295 295 295 294 294 294 293 293 293 293 292 292 292 291 290 289 290 290 291 290 290 290 290 290 290 291 292 292 293 294 294 296 297 296 296 296 297 300 301
298 293 294 295 295 294 293 292 292 291 291 291 291 291 291 291 289 289 289 287 287 288 289 289 289 289 289 289 290 290 290 290 291 291 293 294 295 294 294 293 293 293 293
297 293 293 293 293 293 291 291 290 290 290 290 290 289 289 288 288 288 287 286 285 287 288 288 288 288 288 289 289 289 289 289 289 289 290 291 293 293 293 293 293 293 292
293 293 292 293 293 291 290 290 289 289 289 288 288 287 287 286 286 286 285 285 285 286 287 288 287 287 287 287 286 287 287 288 288 288 289 290 291 291 291 291 292 292 292
293 293 293 293 292 291 289 289 288 288 288 287 286 285 285 285 284 284 285 285 286 286 287 287 287 287 286 286 285 285 285 285 287 288 290 290 290 290 290 290 290 291 291
293 293 293 291 290 289 288 288 288 288 287 286 285 284 283 282 281 282 284 284 284 285 285 286 286 286 286 285 285 285 284 284 285 287 288 290 290 290 290 290 290 291 291
293 292 291 290 289 288 288 288 287 286 285 284 283 283 282 282 281 281 281 282 282 283 283 283 284 284 284 284 284 284 284 284 284 285 285 287 288 288 289 289 290 290 290
291 290 290 289 288 288 287 287 285 284 284 283 283 282 282 281 281 280 281 281 281 282 282 283 283 284 283 284 284 284 284 285 285 285 285 285 285 286 286 286 287 287 288
291 290 289 288 288 287 287 285 284 284 283 282 282 281 281 280 279 280 280 281 282 282 282 282 283 283 283 283 284 284 284 285 285 285 285 285 285 285 285 286 286 286 286
289 289 288 288 287 287 285 284 283 283 282 281 281 280 279 279 279 279 280 281 281 281 281 281 282 282 283 283 284 283 283 285 285 285 284 284 286 286 286 285 285 286 286
289 288 288 287 286 285 284 283 281 281 280 279 278 278 279 279 279 280 281 281 281 281 281 281 281 282 282 282 282 283 283 283 284 284 286 286 286 286 286 285 285 286 287

GFSMA_850_thetae_039.txt.gz
Theta_e
323 317 318 317 315 316 316 317 317 316 316 316 315 314 316 316 317 317 317 317 317 316 316 315 314 312 311 310 309 308 307 306 307 311 321 323 324 325 325 325 324 322 322
324 320 317 315 315 315 316 316 316 315 314 314 314 314 314 315 316 317 317 317 317 317 316 316 315 315 313 312 310 308 308 306 306 308 311 319 323 325 325 325 325 325 323
321 319 316 318 315 315 315 314 313 313 313 313 313 313 314 314 315 317 317 317 317 315 316 316 315 314 313 313 312 311 310 309 306 306 308 312 316 321 324 325 325 325 325
320 319 319 319 318 317 315 313 313 313 314 312 310 310 310 310 310 309 309 308 311 314 313 312 315 315 312 311 312 312 311 311 309 305 305 306 311 315 318 323 325 325 326
320 320 319 318 316 315 315 314 314 313 312 309 307 305 304 303 302 301 301 302 304 307 308 309 309 313 314 313 312 311 311 311 311 310 307 305 305 307 315 318 321 324 325
319 318 316 316 315 315 314 312 311 309 307 306 305 304 302 301 298 300 304 306 307 307 308 309 309 309 311 313 313 311 310 311 311 311 310 308 305 305 305 308 317 318 320
315 315 315 314 312 311 309 308 307 306 306 305 303 300 298 297 301 302 301 303 307 307 308 308 308 309 309 311 313 313 311 311 315 312 310 309 308 306 305 305 305 312 318
313 311 309 308 308 307 307 306 305 303 300 298 299 300 300 298 299 303 299 298 298 299 299 300 302 304 305 305 308 311 312 311 311 315 311 311 309 309 307 304 304 304 306
310 310 309 308 307 307 305 300 297 296 296 297 299 300 300 299 299 298 297 297 297 296 297 297 297 297 298 299 302 306 310 311 311 310 311 311 311 309 308 305 304 304 304
309 308 308 306 304 302 300 297 297 295 296 298 298 298 298 298 297 297 297 296 295 295 295 294 295 295 296 297 298 300 304 308 310 310 309 310 311 311 309 308 304 303 303
307 305 304 302 301 300 299 299 296 296 298 298 297 297 296 295 295 295 294 294 294 294 294 293 293 294 294 295 297 298 300 302 304 308 309 308 309 312 312 310 305 302 302
302 302 301 301 300 299 298 296 295 295 295 295 295 294 294 294 294 293 293 293 293 293 294 293 293 292 292 292 292 294 295 298 301 302 305 307 307 307 312 310 304 301 300
300 300 300 299 295 295 295 295 295 295 294 294 293 293 293 293 293 293 293 293 292 292 293 292 292 292 291 291 291 292 292 294 296 300 301 303 305 306 310 307 304 304 300
299 299 298 296 294 295 295 294 294 295 294 294 293 293 293 293 293 292 292 292 291 292 292 292 291 291 290 290 290 291 292 292 293 297 300 301 304 305 301 303 304 302 302
298 298 298 294 295 296 295 295 294 294 293 293 292 292 292 292 292 292 291 289 290 289 289 289 289 289 289 289 289 290 290 291 292 292 296 298 299 300 301 300 300 299 298
297 298 297 295 293 294 294 293 293 292 291 291 291 291 290 291 292 290 290 289 288 288 287 287 287 288 288 289 289 289 289 290 290 290 291 294 295 297 298 298 297 295 295
298 298 297 293 292 293 293 292 291 290 290 289 289 290 289 289 289 289 288 287 287 286 285 286 286 286 287 287 288 288 289 289 289 289 289 290 293 294 295 296 296 296 295
298 296 293 293 293 293 292 291 290 289 289 289 288 288 288 287 287 286 285 285 285 285 285 285 285 287 288 287 287 287 287 286 288 288 288 288 290 291 293 294 293 293 293
296 296 294 292 293 291 291 290 289 288 288 288 287 287 286 285 284 284 283 283 284 285 285 286 286 287 287 287 287 286 286 286 285 287 288 289 290 290 291 291 293 293 293
295 295 293 293 292 291 289 288 288 287 287 287 286 285 284 284 283 282 282 282 283 284 284 285 285 285 286 286 286 286 286 285 285 285 286 288 289 290 290 290 290 291 291
295 294 293 292 290 289 288 288 287 287 287 285 284 284 283 282 282 281 281 281 281 281 282 283 283 284 284 285 285 285 285 284 284 284 284 285 288 289 289 289 289 289 290
294 294 293 290 290 288 288 287 287 286 285 284 283 283 282 282 281 281 281 280 280 281 281 281 282 282 283 283 284 284 283 283 284 284 285 285 285 287 288 289 289 289 290
293 292 291 290 288 288 287 287 286 284 283 283 282 281 281 280 280 280 279 280 280 281 281 281 282 282 282 282 283 283 283 283 284 284 284 285 285 285 285 286 287 287 288
291 290 288 288 288 287 287 286 284 283 282 281 280 279 279 279 279 279 279 280 280 281 281 281 281 281 282 283 283 283 283 284 283 284 285 284 285 285 285 285 286 286 286
290 289 288 288 287 287 285 284 283 282 281 280 280 280 279 279 279 279 280 280 281 281 281 281 281 281 281 281 282 284 284 283 283 284 284 284 285 285 286 286 286 286 286
289 289 288 287 286 285 284 282 281 281 280 279 279 279 279 279 280 280 280 280 280 281 281 281 281 282 281 281 282 282 282 282 282 283 284 285 286 286 286 286 286 285 285

GFSMA_850_thetae_042.txt.gz
Theta_e
324 322 320 319 316 315 315 315 316 316 316 315 314 314 313 313 314 315 315 316 317 316 316 315 315 316 315 314 313 311 310 308 308 306 306 307 318 322 323 324 325 324 322
326 323 318 317 316 315 315 315 315 315 314 313 313 313 313 311 311 313 314 316 316 316 316 316 316 316 315 314 313 312 312 311 310 308 306 307 309 317 322 323 324 324 324
326 322 318 318 318 317 316 316 315 314 313 313 314 314 312 309 307 307 307 308 309 311 313 315 315 314 316 315 314 311 311 312 312 311 309 306 307 311 316 321 323 324 324
324 321 319 319 319 318 317 316 315 314 313 313 312 310 308 307 305 304 302 301 301 302 303 305 309 310 311 314 315 313 311 314 312 312 311 309 306 305 310 315 319 322 324
321 321 320 319 316 316 315 314 312 311 311 309 307 307 306 306 305 302 300 300 303 304 305 306 308 309 309 309 313 314 312 312 313 314 311 311 310 307 305 306 314 318 322
319 317 316 315 312 311 310 309 308 307 306 305 304 303 302 299 298 298 302 304 305 304 305 306 307 307 308 308 309 311 313 313 312 312 316 313 311 310 308 305 305 309 317
315 313 312 310 309 308 308 307 306 305 302 298 296 296 295 298 302 300 299 300 300 299 297 298 299 302 305 307 308 309 311 313 312 311 312 315 314 311 310 308 305 305 305
308 309 309 309 308 308 307 304 301 299 297 295 295 295 298 297 298 300 300 297 296 296 295 295 295 296 296 297 300 303 306 309 311 312 311 312 314 314 312 310 309 306 304
308 309 309 308 307 303 302 300 298 297 296 295 295 297 298 298 297 296 296 297 296 295 295 295 295 295 295 296 296 297 298 301 305 309 311 311 312 314 313 311 310 308 306
308 308 305 303 301 300 299 297 295 295 295 295 295 296 297 297 296 296 295 294 294 294 294 294 293 293 294 295 295 296 297 297 298 301 306 310 310 312 312 312 311 310 307
304 302 301 300 299 298 296 294 294 295 295 295 295 295 295 294 294 294 293 293 293 293 293 293 293 293 292 292 292 293 294 295 296 298 301 305 308 309 309 311 312 312 309
298 298 298 298 297 296 293 294 294 294 294 294 294 293 293 292 292 292 292 293 292 292 292 291 292 292 292 291 291 291 292 292 293 294 297 300 302 305 308 309 314 312 311
296 296 296 297 297 296 293 293 293 293 294 294 294 293 293 293 293 293 293 292 292 292 291 291 291 291 291 290 290 290 290 290 291 292 293 295 299 302 304 307 308 309 309
297 297 297 297 297 296 293 294 294 294 294 293 293 293 292 292 292 291 292 292 291 290 290 289 289 289 288 288 288 288 289 289 290 290 292 293 295 299 302 305 306 307 306
298 297 298 297 296 294 294 295 294 293 292 291 291 290 290 290 291 291 291 290 288 288 288 288 288 288 287 287 287 287 288 288 289 290 290 290 292 297 300 301 304 306 304
298 298 297 295 295 293 294 293 293 292 291 290 289 289 289 289 289 289 289 289 288 287 287 287 287 286 286 285 286 287 288 287 288 289 289 289 290 293 297 298 299 301 300
298 298 297 296 295 294 293 292 292 291 290 289 288 288 288 288 288 287 287 286 286 285 285 285 285 285 285 285 287 287 287 287 287 287 288 288 289 289 292 296 295 297 300
296 297 296 295 295 293 292 292 290 289 288 288 288 287 287 287 286 285 284 284 283 283 283 284 284 284 285 285 287 287 286 286 286 286 286 287 288 288 289 292 294 294 295
295 295 295 295 295 293 292 291 289 288 287 287 287 287 286 285 284 283 283 282 282 282 282 283 283 284 284 285 286 286 286 286 286 286 285 286 288 288 289 289 292 293 293
293 294 295 294 294 292 291 289 288 288 287 287 287 285 284 283 283 282 282 282 281 281 280 281 282 283 283 283 284 285 285 286 285 285 285 285 286 289 289 290 289 291 291
293 293 294 293 293 291 289 289 287 287 287 286 285 284 283 282 282 281 281 281 281 280 280 280 281 281 281 282 282 283 284 284 284 284 284 284 284 285 288 288 289 289 290
293 293 292 291 290 289 288 287 287 287 286 284 283 282 282 281 280 280 280 279 279 279 280 280 280 281 281 281 282 282 283 283 283 283 283 284 285 284 286 288 288 288 289
292 291 290 289 289 288 287 287 287 285 284 283 282 281 280 279 279 279 279 279 279 280 280 280 281 281 281 281 282 282 282 282 283 283 283 284 284 285 285 285 286 288 288
289 289 289 288 288 288 287 286 285 284 283 282 281 280 280 279 279 279 279 280 280 281 281 281 281 281 281 281 281 281 282 283 283 283 283 283 284 285 285 285 285 285 286
290 289 289 288 288 287 286 284 283 282 281 281 280 280 279 279 279 279 280 280 280 280 281 281 281 281 281 281 281 281 282 283 283 283 283 283 284 284 284 285 285 285 285
290 289 288 287 286 286 284 283 282 281 281 280 279 279 278 278 278 279 279 279 279 279 280 280 281 282 282 282 281 281 281 282 283 282 283 283 283 284 285 286 286 286 286

GFSMA_850_thetae_045.txt.gz
Theta_e
326 325 322 320 320 316 316 315 315 316 316 315 313 313 313 314 313 311 310 309 310 312 315 315 315 315 314 314 315 314 313 312 311 310 309 306 306 309 319 321 323 325 324
326 325 322 319 317 316 317 317 316 316 315 314 313 313 313 314 312 309 308 307 306 307 310 314 315 315 316 315 314 315 314 313 312 311 311 310 307 306 310 319 322 323 324
325 325 322 319 318 319 318 317 316 315 315 314 314 314 313 312 310 309 307 306 304 303 302 302 305 308 312 314 313 313 315 314 312 312 312 311 311 308 306 311 318 323 323
322 323 321 320 319 318 317 315 315 314 312 311 311 310 309 308 307 306 305 304 303 301 302 302 302 303 304 305 308 310 314 315 313 312 313 312 311 311 309 305 309 316 321
319 319 318 316 315 314 312 311 309 308 308 308 307 306 305 303 301 300 298 299 300 302 303 304 305 305 305 306 307 308 308 312 314 312 312 314 313 311 311 309 306 306 314
313 314 313 312 310 309 309 308 308 307 304 301 299 298 297 296 296 296 298 301 302 303 301 300 300 300 302 305 306 306 307 308 311 313 312 312 313 315 312 311 309 306 305
309 308 308 308 309 309 308 306 302 300 298 297 296 299 296 297 300 302 300 298 299 299 298 296 295 295 295 295 296 300 305 307 308 310 312 313 312 312 315 313 311 309 306
308 308 308 308 308 305 302 300 298 297 296 295 295 298 299 299 299 299 299 296 296 296 296 295 295 295 295 295 295 295 295 297 301 306 308 311 312 311 312 314 313 312 309
308 307 306 304 302 299 298 297 296 295 294 294 294 297 298 299 298 297 297 296 296 295 294 293 294 294 294 294 294 295 295 296 296 297 300 303 307 311 311 313 314 313 312
306 303 301 298 297 296 296 296 295 293 293 296 295 296 296 296 297 296 296 295 294 294 293 293 293 293 293 292 293 293 294 294 295 296 296 297 300 304 309 311 313 313 312
300 297 296 296 296 295 296 296 293 292 293 294 295 294 294 294 294 294 294 294 294 294 294 292 292 291 292 292 292 292 292 292 292 293 294 295 296 299 302 307 310 312 312
297 297 297 297 296 296 296 296 293 293 293 293 294 294 295 294 294 294 293 293 294 293 293 293 292 291 290 291 291 290 290 290 291 291 291 292 293 295 299 302 306 309 312
297 298 297 297 297 297 296 294 293 294 294 294 294 293 293 293 292 292 292 293 292 293 293 292 292 291 291 290 290 289 288 288 288 289 289 290 291 293 295 298 302 306 309
299 298 298 298 298 297 295 295 293 293 293 293 292 291 290 290 290 290 291 291 291 290 290 290 290 290 289 289 288 288 289 288 287 286 288 289 289 290 292 295 299 302 305
298 298 298 298 298 296 295 294 293 293 292 292 291 290 290 289 289 289 289 289 289 289 289 289 289 289 288 288 288 288 288 288 286 287 287 288 288 289 290 293 299 302 303
297 297 297 297 297 296 295 294 293 292 292 291 290 289 288 288 288 288 288 287 287 287 287 287 287 287 286 286 286 286 287 287 287 287 286 287 288 288 289 290 295 299 300
296 295 294 296 297 295 295 293 293 292 290 289 288 288 287 287 287 287 286 285 285 285 285 285 285 285 286 286 286 287 287 287 288 287 286 286 287 287 288 289 291 296 297
292 292 293 296 295 295 294 293 292 290 289 288 287 287 287 287 286 285 284 284 284 283 283 284 284 285 285 285 285 286 286 287 287 286 286 286 286 286 287 288 288 290 296
291 291 292 295 295 294 293 293 290 289 288 288 287 287 286 285 284 284 284 283 283 283 283 283 283 283 283 284 284 285 286 286 286 286 286 286 285 285 288 288 289 289 293
290 290 291 293 293 292 292 291 289 289 288 287 287 286 285 284 284 283 283 283 283 282 282 282 282 282 283 283 283 284 284 285 286 286 285 285 285 285 285 288 289 290 291
290 290 292 292 291 291 291 289 289 288 287 287 285 284 283 282 282 281 281 281 281 281 281 281 281 282 282 282 282 283 283 284 284 285 285 285 285 285 285 286 288 289 289
290 291 291 290 289 289 289 288 287 287 287 285 284 283 282 281 280 280 280 279 279 279 280 281 281 282 282 282 282 283 283 283 283 284 285 285 285 286 286 286 288 288 289
290 289 289 289 288 288 288 287 287 286 284 283 283 282 281 280 280 279 279 279 280 280 280 281 281 281 282 282 282 282 283 283 283 283 284 284 285 285 285 285 285 287 288
290 290 289 289 288 288 288 287 286 284 283 283 282 281 280 279 279 278 279 280 280 280 280 280 281 281 281 282 282 282 282 282 282 283 283 282 284 285 285 285 285 285 287
290 290 289 288 288 287 286 286 284 283 283 282 281 280 279 278 278 278 279 279 279 279 280 280 280 280 282 282 282 282 282 282 283 284 284 283 283 285 285 284 284 285 285
288 289 288 288 287 286 285 284 283 283 282 281 280 279 278 278 277 278 278 278 278 279 279 279 279 280 281 282 282 282 282 282 282 284 284 283 284 284 286 286 286 286 286

GFSMA_850_thetae_048.txt.gz
Theta_e
326 326 325 324 321 321 321 319 319 318 317 316 315 314 314 313 312 313 312 311 312 310 308 307 308 312 314 313 313 314 314 315 314 312 311 310 310 307 306 311 320 323 324
323 322 324 323 320 319 318 318 317 317 316 315 314 313 314 313 312 312 312 311 310 309 307 305 304 305 310 313 313 313 315 313 315 315 313 311 311 310 307 307 310 320 322
322 322 322 322 320 319 318 316 316 314 314 313 313 312 312 311 310 310 310 309 309 308 306 304 303 303 302 303 304 307 311 312 312 315 315 312 312 311 311 307 307 310 320
321 321 321 320 319 318 315 313 312 311 311 310 310 310 309 308 308 306 307 307 306 305 305 303 302 302 303 304 304 304 304 306 307 311 315 314 312 313 312 311 308 306 310
314 314 313 313 311 310 310 310 309 308 308 307 306 304 303 304 302 303 305 305 304 302 303 303 301 302 302 302 303 304 305 306 308 307 309 314 313 312 314 313 311 308 306
309 309 308 308 308 309 309 307 305 305 304 303 303 301 303 302 302 304 304 304 303 302 301 300 299 300 298 297 297 297 299 303 305 305 307 309 313 313 313 314 314 312 309
310 309 309 308 307 307 305 303 302 302 301 302 302 301 301 302 305 304 303 302 301 301 300 299 298 298 299 299 298 296 295 295 296 299 305 307 308 310 313 313 314 314 312
309 308 308 307 305 304 303 302 301 300 300 300 301 301 300 300 301 303 302 301 300 299 298 298 297 297 297 298 298 296 295 295 295 295 296 298 304 306 309 311 314 314 314
308 308 305 302 301 300 301 300 300 300 299 299 300 300 300 300 300 299 299 299 299 298 298 297 297 297 296 297 297 297 295 293 294 294 295 296 296 298 304 306 310 313 314
305 303 300 298 299 300 300 299 298 299 299 298 297 298 298 298 297 297 296 296 296 296 296 296 296 296 296 296 295 295 294 293 292 292 292 293 294 295 296 299 304 310 312
301 298 298 299 301 301 300 300 299 299 298 297 297 297 297 296 296 296 296 295 295 295 295 295 295 295 295 295 295 295 293 292 291 291 291 291 291 293 294 296 298 303 309
302 302 301 301 301 301 300 299 299 298 297 297 296 297 296 296 295 295 295 295 294 294 294 294 294 294 294 294 293 292 292 291 290 290 289 288 289 290 291 293 295 298 303
301 301 301 301 300 299 300 299 298 297 296 296 296 295 295 295 294 294 294 293 292 292 292 292 293 293 292 292 291 291 291 290 289 289 288 288 287 288 289 291 292 295 299
301 301 300 300 300 299 299 298 297 297 296 296 295 295 294 294 293 293 292 291 291 291 290 290 290 291 291 291 291 289 289 289 289 289 288 287 287 287 288 288 290 292 296
300 300 300 300 299 298 298 298 297 296 296 295 295 294 293 292 291 291 290 290 290 290 290 289 289 289 289 289 289 289 288 288 288 288 287 287 287 286 287 287 288 290 295
298 298 298 297 297 297 297 296 296 295 295 294 294 292 291 291 290 289 289 289 288 288 288 288 288 288 288 288 288 288 288 288 288 288 288 287 287 286 286 287 287 289 292
295 294 294 295 296 296 296 296 295 294 294 293 292 291 290 289 289 288 288 288 287 287 287 287 287 287 287 287 287 288 288 288 288 288 288 288 287 286 286 286 287 288 289
294 294 294 295 295 295 295 294 293 292 292 292 291 290 289 289 288 287 287 287 287 286 286 286 286 286 286 286 286 286 286 286 287 288 288 287 287 286 286 286 286 287 288
294 294 294 294 294 294 293 293 292 291 290 290 289 289 288 287 287 287 287 286 286 286 285 285 285 285 285 285 285 285 285 286 286 287 287 287 286 286 286 285 286 287 288
294 294 294 293 292 292 292 291 291 290 290 289 289 288 287 286 286 286 285 284 284 284 284 284 284 283 284 284 284 284 285 285 286 286 287 287 286 286 286 285 285 286 288
293 293 292 291 291 290 290 290 290 289 289 288 287 286 285 284 283 282 281 282 282 282 282 282 282 283 283 284 284 284 284 284 285 285 285 286 287 287 287 287 287 286 288
293 293 292 292 291 291 289 288 288 288 288 286 285 284 284 283 282 281 281 280 280 280 281 281 282 283 283 284 284 284 284 284 285 285 285 286 286 287 287 288 288 287 289
293 292 292 292 291 290 288 288 288 286 286 285 284 283 283 282 282 282 281 280 281 282 282 281 281 282 283 284 284 284 284 284 284 285 285 285 286 286 286 287 287 286 288
292 291 291 291 290 289 288 288 286 285 285 284 283 283 282 282 282 280 279 280 281 281 281 281 281 281 282 282 282 282 283 284 284 284 284 284 285 285 286 287 287 286 285
291 291 290 289 289 288 287 286 285 284 284 283 283 283 281 281 280 278 278 279 280 280 280 280 280 280 280 281 282 283 283 284 284 285 284 285 285 285 286 286 286 287 285
290 290 289 289 288 287 286 285 284 283 283 283 283 282 281 280 279 277 278 278 279 280 279 279 280 281 281 282 283 283 283 284 284 285 284 285 285 285 286 287 287 287 286

GFSMA_850_thetae_051.txt.gz
Theta_e
326 325 325 325 321 324 324 323 323 322 320 320 318 318 317 317 316 316 315 315 314 313 312 310 309 306 305 306 309 312 314 314 315 315 315 315 312 310 309 307 308 316 322
324 324 323 325 325 323 321 320 319 318 318 317 317 316 315 315 315 315 314 313 313 312 310 309 306 305 304 304 304 304 307 309 311 314 314 314 315 312 311 310 307 307 315
323 322 323 322 321 321 319 319 317 316 315 315 315 314 314 313 312 312 312 311 310 310 309 307 304 303 303 303 303 303 303 304 305 306 309 312 315 314 313 311 310 307 308
319 318 317 316 315 314 313 313 313 313 312 311 310 310 309 307 306 307 306 305 308 308 307 306 305 302 301 302 302 303 304 304 305 308 308 308 312 316 315 314 312 311 307
309 310 311 311 311 312 312 312 310 309 308 307 306 306 305 304 305 305 305 305 307 306 306 304 303 300 300 299 299 298 298 299 301 305 306 309 309 309 314 314 314 313 311
311 313 313 312 311 311 311 309 308 306 305 304 304 304 304 304 303 304 306 306 306 305 303 303 302 301 300 299 299 298 297 296 296 297 299 302 305 307 307 312 314 315 314
313 313 312 312 311 309 308 307 305 303 303 302 302 302 303 302 302 305 305 305 304 303 302 301 300 300 299 299 300 300 299 297 296 296 296 296 297 302 305 306 310 314 315
311 311 309 310 309 307 305 304 303 303 302 301 301 301 301 301 301 303 303 303 303 302 301 300 299 299 299 298 298 298 298 297 296 294 294 295 297 296 296 299 305 309 313
310 308 308 307 306 304 303 303 302 301 301 300 300 299 299 300 300 299 299 299 299 299 298 298 298 298 298 298 297 297 297 296 295 293 293 293 294 297 297 297 297 304 308
310 307 306 304 304 303 303 302 301 301 300 299 299 299 299 298 299 298 298 297 297 297 297 297 297 297 297 297 296 296 295 296 294 293 292 293 293 294 295 296 297 299 303
307 306 304 303 304 303 302 302 301 301 300 299 299 298 298 298 298 298 297 297 297 296 296 296 295 296 296 295 295 296 295 293 292 292 291 291 292 293 292 293 294 295 298
304 303 303 303 303 302 302 302 300 300 299 298 298 298 298 297 297 297 296 295 295 295 294 294 293 293 295 295 294 293 293 292 291 291 290 290 291 291 291 291 291 292 294
303 303 303 302 301 301 301 301 301 300 299 298 298 297 297 296 296 295 295 294 293 293 293 293 292 292 292 293 294 292 292 291 290 289 289 290 290 290 291 289 290 290 291
303 303 302 301 300 300 300 300 299 299 299 297 297 297 296 295 295 294 293 292 292 292 291 291 291 291 291 291 290 290 290 291 290 289 288 288 289 288 288 288 288 288 289
301 300 299 299 299 298 298 298 298 298 297 297 296 296 295 295 294 293 292 291 291 291 290 290 290 290 289 289 289 289 289 289 289 288 288 287 287 287 287 287 286 286 287
298 297 296 296 296 296 297 297 297 297 297 296 296 295 294 293 292 291 291 291 290 290 290 289 289 289 288 288 288 288 288 288 288 289 289 289 288 289 288 287 286 286 286
296 296 296 296 296 296 296 296 296 296 295 295 294 294 293 292 291 291 290 289 289 289 289 288 288 288 288 288 287 287 287 288 288 287 287 288 288 289 288 287 286 285 286
296 296 295 296 296 295 295 295 295 295 294 293 293 293 292 291 290 290 289 289 288 288 288 288 287 287 287 287 286 286 286 286 287 287 287 287 288 288 288 287 286 285 285
296 295 295 295 295 295 294 292 293 293 292 292 291 291 290 290 289 288 288 288 287 287 286 286 286 286 286 285 285 285 285 286 286 286 286 286 287 287 287 287 286 285 285
295 295 295 295 293 292 293 292 292 291 291 291 291 290 289 288 287 286 285 284 285 285 285 285 285 285 284 284 284 285 285 285 286 286 286 286 287 287 287 286 286 286 285
295 295 295 294 293 292 292 291 291 291 290 290 290 288 287 286 285 283 283 283 283 283 283 283 283 283 283 284 285 285 285 285 285 285 285 285 286 287 287 288 288 288 287
295 295 294 293 293 292 292 291 289 289 289 289 288 287 286 285 285 283 283 282 282 281 282 282 283 283 284 283 284 284 284 285 285 284 285 285 286 286 287 288 289 288 288
294 294 293 292 292 292 291 290 288 288 287 287 287 286 286 285 284 284 283 282 281 281 282 281 282 282 283 283 283 283 283 283 284 284 285 285 285 285 286 287 287 287 287
294 292 292 292 290 292 291 289 288 287 287 287 286 286 285 284 283 282 281 280 281 281 281 282 282 282 282 281 281 281 282 283 283 284 284 285 284 285 285 286 285 286 286
293 291 291 291 290 291 289 288 287 286 286 286 285 285 284 283 282 281 278 279 280 280 281 281 280 280 280 280 281 282 282 284 284 285 285 285 285 285 285 285 286 287 286
292 291 290 290 290 289 289 287 286 284 285 284 284 284 284 283 282 280 277 278 279 280 279 279 279 280 281 282 282 283 283 284 285 285 285 286 285 286 286 287 286 286 287

GFSMA_850_thetae_054.txt.gz
Theta_e
326 326 323 323 323 322 324 323 323 322 321 320 319 318 317 316 315 315 315 315 314 313 312 311 310 308 305 304 304 304 304 304 307 311 313 314 314 315 312 311 309 307 315
324 325 325 324 325 323 322 321 319 319 317 317 315 315 314 314 313 313 312 312 311 311 310 309 308 306 305 303 303 303 304 304 304 305 307 312 314 314 314 313 311 310 307
322 322 322 321 320 317 316 315 314 313 313 313 312 311 310 309 310 309 307 307 306 306 309 308 306 306 305 303 300 301 302 304 305 307 311 311 311 313 315 315 313 311 311
318 314 311 310 310 311 313 312 311 310 308 308 307 306 305 305 306 304 306 306 305 306 308 307 305 304 302 300 300 301 299 301 303 304 309 309 309 309 311 316 315 314 312
311 312 312 312 310 312 312 311 310 306 305 304 303 303 303 303 304 304 303 304 305 307 307 306 304 302 301 300 300 300 301 303 302 302 303 303 305 307 308 307 313 314 314
312 312 313 313 312 311 310 308 306 304 302 302 302 302 302 302 302 302 303 305 307 306 305 304 303 301 300 300 299 299 299 300 300 300 300 300 301 301 303 305 305 309 314
313 312 312 311 310 309 307 306 305 303 302 302 301 300 300 299 302 301 303 304 304 303 304 302 301 300 299 299 299 299 299 298 297 297 296 297 298 299 299 300 301 303 308
312 312 311 309 307 305 302 303 303 302 301 301 300 300 300 299 299 300 299 299 300 299 299 300 298 298 298 298 298 298 298 297 297 297 295 294 295 297 298 298 299 299 301
312 311 309 307 303 301 302 303 303 302 302 300 300 299 299 299 299 299 299 299 298 298 297 298 298 297 297 297 297 297 297 296 296 295 295 295 293 294 296 297 297 297 299
311 310 307 304 303 304 304 303 303 302 301 301 300 299 299 299 298 298 298 298 297 297 297 297 295 295 295 295 295 295 294 294 295 294 293 293 293 293 294 295 296 296 297
308 306 305 304 304 304 303 303 302 302 302 301 300 299 298 298 298 298 297 296 295 295 295 294 294 294 293 293 292 294 294 294 293 293 292 291 292 292 293 293 294 295 296
306 304 304 304 303 303 302 301 301 301 301 299 300 299 298 297 297 297 296 296 295 294 294 293 293 293 293 293 293 294 293 293 292 291 291 290 291 291 292 292 293 293 294
304 303 303 303 303 302 301 300 301 301 300 297 299 298 297 297 297 296 295 294 293 293 292 291 291 291 291 291 291 291 290 290 290 290 290 290 289 289 290 290 291 291 292
304 303 303 302 301 300 300 299 299 299 299 298 298 297 297 297 295 295 294 293 292 292 291 291 291 290 290 290 290 289 289 289 289 288 289 289 288 288 289 289 289 290 290
302 300 299 298 297 297 296 296 297 297 298 298 297 297 296 295 294 294 293 292 291 291 291 290 290 289 289 289 289 288 288 288 288 288 288 288 288 288 288 289 289 289 288
299 298 297 296 296 296 296 296 296 296 297 296 295 295 295 295 294 293 292 291 291 290 290 290 289 289 289 288 288 288 288 287 287 287 287 287 288 287 288 289 289 288 288
297 297 296 296 296 296 296 296 296 296 295 295 295 294 293 293 293 292 291 290 289 289 289 289 289 288 288 287 287 287 286 286 286 286 286 286 287 287 287 288 288 288 288
297 296 296 296 296 296 296 295 296 295 294 294 292 293 293 292 291 290 289 289 288 288 287 287 287 286 286 287 286 285 285 285 285 285 285 286 286 286 286 286 287 287 287
296 296 296 296 295 295 295 292 292 292 292 291 291 291 291 290 290 289 288 288 287 286 285 285 285 285 285 285 284 284 284 284 285 285 286 286 286 286 287 287 287 287 286
296 296 295 295 295 294 293 292 292 291 291 290 290 290 290 289 288 287 286 285 284 283 283 283 283 283 283 283 283 284 284 284 285 285 285 284 285 285 285 286 287 287 286
296 295 295 295 295 293 293 292 292 291 290 291 290 289 288 287 287 286 285 284 283 283 282 281 281 282 282 283 283 283 284 284 284 284 284 284 285 285 285 286 286 287 288
295 295 295 295 294 292 293 293 292 291 289 289 288 288 287 286 286 285 284 284 283 282 281 281 281 282 282 281 283 283 283 282 282 283 283 283 284 284 285 285 286 287 288
295 295 295 294 292 292 291 290 292 290 289 288 287 287 286 286 285 285 284 283 282 280 280 281 281 282 282 282 281 281 281 281 281 282 283 284 284 284 284 284 284 286 287
295 294 294 293 291 291 291 291 290 289 288 286 287 287 286 285 285 284 283 282 280 279 280 280 281 281 281 280 280 280 281 281 282 283 284 285 285 285 285 284 284 285 285
293 293 292 292 290 291 290 290 289 288 287 285 286 285 285 284 284 283 283 281 279 280 279 280 279 279 279 280 281 282 282 282 283 284 284 285 285 285 285 285 285 285 285
291 292 292 291 289 289 290 289 288 287 287 284 284 284 284 284 284 283 282 280 279 280 278 278 279 279 280 280 281 281 282 283 283 283 283 284 284 285 285 286 287 287 286

GFSMA_850_thetae_057.txt.gz
Theta_e
326 325 325 323 324 324 322 323 323 322 321 320 319 318 316 314 313 313 313 313 311 310 310 308 309 308 307 306 304 302 303 304 306 310 310 312 314 315 315 315 312 310 307
323 323 323 323 323 323 322 320 318 315 314 313 312 313 314 313 312 311 310 309 306 306 306 308 308 307 306 305 304 301 300 302 306 309 311 311 311 314 314 315 315 313 311
321 322 322 321 320 314 310 310 309 309 308 307 305 305 305 306 305 305 303 305 305 305 305 306 307 307 305 304 301 300 300 301 304 305 307 308 308 309 311 314 315 315 314
317 315 312 310 311 310 309 309 308 306 304 302 301 300 302 302 300 300 301 303 303 304 306 307 306 306 305 303 301 302 301 303 301 303 304 304 303 305 307 307 310 315 316
311 312 312 311 310 310 309 308 306 303 302 300 299 300 299 299 299 299 302 303 303 306 306 306 304 303 301 300 301 300 299 301 301 300 300 299 300 301 300 302 303 306 313
312 312 312 311 311 310 309 306 303 302 301 301 300 300 299 298 299 301 301 302 301 302 303 302 302 301 300 299 299 299 301 300 298 298 299 299 298 297 299 300 300 299 302
312 311 311 310 309 308 306 302 302 302 301 300 300 299 298 299 297 299 300 299 299 299 300 299 299 299 298 298 298 299 300 298 298 297 297 296 297 296 297 298 299 299 298
312 312 311 310 309 306 302 300 300 300 300 301 301 299 299 298 299 298 298 298 298 298 298 298 298 298 297 296 297 296 296 296 296 295 294 294 295 295 296 296 297 298 298
314 313 311 309 305 303 302 301 301 301 302 302 301 300 300 299 299 298 298 297 297 297 297 297 297 296 295 296 295 294 293 293 294 294 294 294 294 294 295 295 295 296 297
314 312 309 305 303 303 303 303 303 302 302 302 302 301 300 299 298 298 297 297 297 296 296 296 295 294 294 294 293 292 292 294 295 294 293 293 293 293 294 294 294 294 295
309 307 306 304 304 304 304 303 302 302 301 301 301 300 298 299 299 298 297 297 296 295 294 294 293 293 293 292 292 292 294 294 292 293 292 292 292 292 293 292 292 293 294
307 306 304 304 303 303 303 302 301 300 300 300 300 300 297 299 298 297 297 296 296 295 294 292 292 290 290 291 291 291 291 291 290 290 290 292 291 291 291 291 291 291 292
307 306 304 303 303 303 302 300 300 300 299 298 298 299 298 298 297 297 297 296 295 294 292 292 291 290 290 290 290 290 290 289 289 289 289 289 289 290 290 290 290 290 290
307 305 303 303 302 300 299 296 296 296 296 297 299 298 297 297 296 296 295 295 294 292 292 291 290 290 289 289 289 289 289 289 288 288 288 288 288 288 289 289 289 290 290
303 303 303 299 296 295 295 295 295 296 296 296 297 296 295 295 295 295 295 293 292 291 291 290 289 289 289 289 289 288 288 287 287 287 287 287 287 287 288 288 289 289 289
301 300 297 296 296 295 295 296 296 296 296 296 295 295 295 294 294 294 293 293 291 290 290 289 289 289 288 288 288 287 287 287 287 286 286 285 286 286 287 286 286 287 288
299 298 297 296 295 295 295 295 295 295 295 295 295 294 294 292 293 293 292 291 290 289 289 288 288 288 287 286 286 286 286 285 285 284 284 285 285 285 285 286 286 286 286
297 297 296 296 295 295 295 295 295 293 291 291 291 291 292 291 291 290 290 289 288 288 287 286 286 284 284 283 284 284 284 284 283 284 284 285 285 286 286 286 286 286 286
297 296 296 295 295 295 295 295 295 292 291 290 290 290 290 290 290 289 288 288 287 286 285 283 283 283 282 282 282 282 282 283 283 283 284 284 284 284 284 285 285 285 286
296 296 296 295 295 295 295 295 293 292 291 290 290 290 290 289 288 287 287 286 285 284 284 283 282 281 281 281 281 282 282 282 282 283 283 283 283 284 284 284 284 285 285
294 295 295 295 295 295 295 293 292 292 291 290 290 290 288 288 287 287 286 285 285 284 283 282 280 280 281 281 281 282 282 282 282 282 282 282 282 282 283 283 284 285 286
294 294 295 295 295 295 294 291 291 291 291 291 289 288 288 287 287 286 285 285 284 283 282 280 280 280 280 281 282 281 281 280 280 281 281 282 283 284 284 283 284 284 284
294 294 295 294 294 293 293 290 290 290 290 289 287 287 287 287 286 285 285 285 284 282 280 279 280 280 280 280 280 280 280 280 281 281 282 283 284 285 285 285 284 284 284
294 294 293 293 293 292 292 290 291 290 289 288 287 286 286 286 285 285 284 283 283 281 280 280 280 280 280 279 280 280 280 281 282 282 283 283 283 283 284 285 285 285 284
292 291 291 292 292 292 291 289 289 289 289 288 287 286 284 285 284 284 284 283 282 281 280 279 278 279 279 279 280 280 281 281 281 281 282 282 283 283 284 285 285 286 285
292 292 291 292 291 291 289 288 289 288 288 287 286 285 284 284 283 283 283 282 281 280 280 280 279 279 279 279 279 280 280 281 281 281 282 283 283 284 285 285 285 285 285

GFSMA_850_thetae_060.txt.gz
Theta_e
328 326 325 324 323 324 323 323 323 322 321 319 316 314 314 314 313 312 310 310 309 307 306 305 306 308 308 307 307 305 303 301 304 309 310 310 310 313 314 315 316 314 311
325 324 324 323 323 323 322 320 313 310 309 308 307 307 306 306 306 306 305 304 303 305 304 305 306 306 306 305 304 303 302 300 299 302 307 308 308 308 310 311 313 315 315
321 321 322 322 321 318 310 310 308 307 305 303 302 300 300 301 300 300 299 299 303 303 304 306 306 305 304 303 303 303 303 301 301 299 298 298 300 299 303 306 308 311 313
318 320 318 312 311 310 309 308 306 304 302 301 299 299 299 298 299 299 300 302 303 304 306 305 302 302 302 301 303 303 303 302 299 298 297 297 298 297 297 297 299 303 306
311 311 311 311 310 310 309 308 305 302 301 300 300 299 299 298 298 299 300 302 301 304 304 303 301 300 300 301 301 301 301 299 300 298 297 296 295 294 294 295 296 297 298
312 312 312 311 310 309 308 305 301 300 300 300 299 299 299 298 298 297 299 299 300 299 300 299 299 300 299 298 300 300 300 300 300 300 297 296 295 294 294 293 293 296 297
312 312 312 311 310 308 304 301 301 300 299 299 299 300 299 298 298 299 298 297 297 297 297 297 297 297 298 298 298 298 297 297 298 298 297 295 294 294 293 295 293 294 298
312 313 312 311 308 305 303 302 301 300 299 300 301 301 300 299 299 298 298 298 297 296 296 296 297 296 296 296 296 296 296 296 296 296 296 296 295 296 295 296 296 296 295
313 314 313 309 308 306 303 302 302 302 302 302 302 301 301 300 299 298 297 298 297 297 296 296 295 295 295 294 294 294 293 293 294 295 294 295 295 295 295 295 295 295 295
315 314 311 310 308 306 303 303 303 302 302 301 300 300 300 300 298 298 298 298 298 297 296 295 294 294 293 292 292 292 292 292 294 294 293 294 294 294 294 294 294 294 294
312 309 308 307 305 304 303 303 303 302 301 299 299 300 300 299 298 297 298 297 297 296 296 295 294 293 292 290 290 291 290 290 291 290 291 293 293 293 293 293 293 293 293
310 308 307 304 304 303 303 303 302 300 298 299 299 298 298 298 298 297 297 296 296 296 295 294 293 292 291 290 290 290 290 290 290 290 291 291 292 292 292 292 292 292 292
307 305 306 305 303 303 302 300 298 296 295 295 296 296 298 298 298 297 296 295 296 294 294 293 292 292 290 289 289 290 289 289 289 288 288 288 289 289 290 290 290 291 291
308 311 308 304 302 302 298 295 293 293 293 294 295 297 297 297 295 295 295 295 294 294 293 292 291 290 289 289 289 289 289 288 288 288 287 287 287 288 288 289 289 289 289
308 304 303 301 300 296 294 293 292 293 294 295 295 296 295 295 295 293 294 294 294 292 292 290 290 289 289 289 288 288 288 288 287 287 287 287 286 286 287 287 288 288 288
303 300 300 298 296 296 294 293 293 294 295 295 294 294 295 294 294 293 293 292 292 291 290 289 289 288 288 287 287 286 285 285 286 286 286 285 285 284 286 286 286 287 287
300 299 298 297 297 295 295 293 294 294 294 294 292 290 291 292 292 292 291 292 290 289 288 288 287 287 286 284 283 283 283 283 283 284 283 283 284 284 285 285 286 286 286
298 298 297 297 296 295 294 295 295 295 295 294 291 290 289 290 291 290 290 289 289 288 287 286 285 284 283 283 282 282 282 282 282 282 283 283 284 284 284 284 285 285 286
297 297 295 295 296 295 294 295 295 295 294 292 291 290 290 290 290 290 289 288 287 287 285 284 284 283 282 281 281 281 281 282 282 282 282 282 283 283 283 283 284 284 284
294 295 294 295 295 295 295 295 295 294 292 292 291 291 290 290 290 288 287 287 286 285 285 284 283 282 281 281 280 281 282 282 282 282 282 282 282 282 282 282 283 283 284
297 293 293 294 295 295 295 295 294 293 291 291 291 291 290 288 288 288 287 286 285 285 284 283 282 280 280 280 280 281 281 280 280 281 281 281 281 282 283 284 284 283 283
293 292 293 294 294 294 294 293 293 291 290 290 289 290 289 288 287 287 286 286 285 284 284 282 281 280 280 280 280 280 279 280 280 281 281 282 282 283 283 284 285 284 283
292 293 294 294 293 293 293 292 292 291 289 290 290 289 287 287 287 286 286 285 284 284 283 281 280 280 279 279 278 279 280 280 280 281 281 282 282 282 283 283 284 285 284
292 292 292 291 291 291 292 291 291 290 289 290 289 287 287 286 285 285 285 284 284 283 282 280 280 279 278 279 279 279 280 280 280 281 281 281 282 282 282 283 284 285 285
292 292 292 291 291 291 291 291 290 288 288 289 288 287 286 286 285 284 284 283 283 282 281 280 280 279 279 278 279 279 279 280 280 280 281 281 282 282 283 283 284 285 285
291 291 292 292 291 291 291 290 288 287 286 287 287 286 286 284 283 283 283 283 282 281 281 280 280 279 279 278 278 278 279 279 279 280 281 281 282 283 283 283 284 284 285

GFSMA_850_thetae_063.txt.gz
Theta_e
326 327 325 325 324 324 323 323 322 321 320 316 311 309 308 308 309 310 309 308 307 305 304 305 305 306 306 306 305 304 304 303 301 302 301 303 308 308 310 311 311 313 314
326 325 325 324 323 323 323 321 315 310 307 306 304 303 301 301 301 301 300 299 298 302 303 306 307 307 306 305 303 303 303 303 302 301 300 298 298 299 300 303 305 307 311
323 323 323 323 322 319 311 309 307 306 305 303 301 299 298 298 298 298 298 297 299 301 305 306 305 304 303 304 304 304 304 302 300 300 299 298 297 296 296 297 297 298 301
320 321 322 320 311 310 309 309 308 306 302 300 299 298 298 298 298 297 299 301 303 305 305 304 302 301 301 301 303 303 303 301 300 299 298 297 296 296 295 295 295 295 296
318 317 313 311 310 310 310 309 305 302 300 299 298 298 298 298 298 298 298 299 299 302 303 302 301 300 300 300 301 302 301 301 301 300 298 297 296 295 295 295 294 293 294
312 311 311 311 311 310 309 305 303 301 299 299 299 299 298 298 298 298 297 296 298 297 297 297 297 297 298 298 299 299 299 299 299 299 298 296 295 294 293 292 292 293 293
312 312 312 312 312 309 306 304 303 301 300 300 300 299 299 299 299 298 298 297 296 297 297 296 296 296 297 297 297 298 298 299 299 299 299 299 297 296 295 296 294 294 295
313 312 313 313 310 308 306 305 303 302 301 301 301 300 300 299 298 299 298 298 297 297 298 297 296 295 295 295 295 295 295 297 297 297 297 297 296 296 296 295 296 296 296
312 312 313 310 308 306 305 305 303 302 302 302 301 300 300 299 300 297 298 297 296 296 297 297 296 295 294 294 294 293 293 292 294 295 296 296 295 295 295 295 295 295 295
313 313 310 308 307 305 305 305 303 302 302 302 300 298 299 299 299 298 297 297 296 295 296 296 295 295 294 293 291 290 290 291 291 292 295 295 294 294 294 294 294 294 294
313 310 308 306 306 305 305 304 303 302 301 299 298 297 297 298 298 298 298 297 296 295 294 296 295 294 293 292 291 290 289 290 290 291 293 293 293 293 294 294 293 293 295
312 310 308 306 307 310 306 303 302 300 297 295 294 294 295 296 298 298 297 296 295 295 293 295 294 293 292 291 290 289 289 289 289 289 289 291 291 291 292 292 292 292 292
311 309 305 309 309 304 302 301 298 294 293 292 293 293 294 296 297 296 296 295 293 293 293 293 293 293 292 291 290 289 289 289 289 289 288 288 289 289 289 290 290 290 291
311 308 310 308 303 302 299 296 294 293 292 293 294 294 295 295 295 295 295 294 293 293 293 293 291 291 291 290 289 289 289 289 288 288 288 287 287 287 287 288 288 288 289
309 308 304 301 300 298 297 296 294 293 293 294 294 294 294 292 293 295 294 294 294 292 292 291 290 289 289 288 288 288 287 287 287 287 286 286 286 286 286 286 286 287 287
306 301 300 299 298 297 296 294 294 293 294 294 294 294 293 290 290 291 292 292 292 291 290 289 288 287 287 286 285 284 283 283 283 283 283 284 284 284 284 285 286 286 287
301 300 298 298 297 296 294 295 293 293 294 295 294 294 291 290 290 289 290 290 290 289 289 288 287 286 285 283 283 282 282 282 282 282 282 282 282 284 284 284 285 285 285
299 298 297 297 295 295 295 294 294 294 295 295 294 292 290 290 290 290 290 290 289 288 287 287 286 285 284 283 282 282 282 282 281 282 282 282 282 282 283 283 283 284 284
298 297 294 296 296 294 294 294 295 295 295 294 293 291 290 290 290 290 290 289 288 287 286 286 285 284 283 282 282 282 282 281 281 281 282 282 282 282 282 282 283 283 283
294 295 296 295 293 293 294 294 295 295 294 293 291 290 290 290 290 290 289 288 287 286 286 285 284 283 282 281 281 281 281 280 280 280 281 281 281 281 281 282 282 282 282
297 297 297 293 292 293 293 294 294 293 293 292 290 289 290 289 289 289 288 287 286 286 285 284 284 282 282 280 280 279 279 279 280 280 281 281 282 282 283 283 284 284 284
299 294 292 291 292 292 292 292 293 292 292 291 290 289 289 289 289 288 287 286 286 285 284 284 283 282 280 280 279 279 279 279 279 280 280 281 281 282 282 282 283 283 284
292 291 291 291 291 291 290 290 291 291 291 290 289 289 289 288 287 286 286 286 285 284 284 283 282 281 280 279 279 279 279 279 279 280 280 280 280 281 282 282 282 283 284
291 291 291 291 290 290 290 290 291 291 290 289 287 288 288 287 287 286 285 285 284 284 283 282 281 280 280 279 278 278 279 279 279 279 279 280 281 282 282 283 284 283 284
291 290 290 289 289 289 291 291 291 290 289 287 286 288 287 287 286 285 284 284 283 283 282 281 280 280 280 279 278 278 278 278 278 279 280 280 281 282 283 284 284 284 284
291 290 289 289 289 289 289 290 290 289 288 287 287 286 287 286 286 285 283 283 283 282 282 281 280 280 279 279 279 278 278 278 278 278 279 279 280 281 282 284 284 284 284

GFSMA_850_thetae_066.txt.gz
Theta_e
326 326 325 326 324 324 323 323 322 321 320 314 308 306 304 302 301 300 300 300 300 300 303 308 308 308 307 306 305 303 303 303 303 302 301 300 299 299 299 299 301 303 305
325 325 324 324 323 323 322 321 317 310 307 305 302 301 300 299 299 299 299 298 297 298 302 308 308 308 307 305 304 303 304 303 302 301 300 300 299 298 297 297 297 297 298
325 324 324 323 323 322 318 310 308 307 304 302 300 299 298 298 298 298 298 298 299 301 302 305 306 306 303 304 303 302 302 302 301 300 300 299 299 299 298 297 297 296 295
322 321 321 322 320 311 309 310 309 305 302 301 299 298 297 297 297 297 297 299 300 304 305 304 304 303 302 301 303 303 303 302 301 300 299 298 297 297 297 297 297 296 296
318 319 320 316 310 310 310 309 306 304 302 299 298 298 297 297 298 297 297 297 297 299 300 301 300 299 299 299 301 301 301 302 301 300 299 298 297 296 296 295 294 294 294
318 317 312 311 311 311 310 308 306 304 301 300 300 300 298 298 298 298 298 297 296 295 296 297 296 296 296 296 297 299 300 300 301 301 300 300 298 297 295 293 292 292 293
314 311 311 311 312 311 309 307 305 303 302 301 301 301 299 298 298 298 298 297 296 295 296 295 297 296 296 296 296 296 299 299 299 300 302 300 299 298 297 296 296 297 297
312 312 312 313 310 307 307 306 305 304 302 302 301 301 300 298 298 297 298 297 296 296 295 295 297 296 295 295 295 295 295 295 295 297 298 298 298 298 296 296 296 295 296
312 312 312 310 307 307 306 306 306 304 302 302 301 299 298 297 298 297 297 297 297 296 295 294 295 296 295 294 293 293 293 292 291 292 296 296 297 296 296 296 295 295 296
312 312 312 308 308 307 308 308 305 303 302 301 299 296 296 296 299 298 297 297 297 296 295 294 292 295 295 294 293 291 290 290 290 290 293 294 295 295 295 295 296 295 296
313 312 312 309 308 307 309 309 303 302 300 296 294 293 293 294 295 297 298 297 297 296 294 292 293 295 294 293 292 291 290 290 289 289 290 293 293 294 294 294 294 295 295
313 313 311 311 309 308 310 307 302 300 295 293 292 293 293 294 295 297 297 296 295 295 294 293 292 294 293 292 292 291 290 289 289 289 289 289 290 291 291 291 292 292 293
314 313 311 306 306 309 305 302 298 295 294 292 292 293 293 293 293 292 294 294 295 293 293 293 291 293 293 292 291 291 289 289 289 289 289 288 288 289 289 289 289 290 290
313 312 309 308 309 302 300 297 296 295 293 292 293 293 293 293 293 291 292 294 295 294 293 292 291 291 291 291 290 290 289 289 288 288 288 287 287 287 288 288 288 288 288
312 309 310 309 303 299 297 297 296 294 293 293 293 294 294 294 292 290 291 293 292 292 292 291 290 290 289 288 287 286 285 284 284 283 283 283 283 284 285 286 286 286 287
309 310 310 302 299 297 297 296 295 295 293 294 294 294 294 293 290 290 290 289 290 290 290 290 289 287 286 286 285 284 283 283 283 283 283 283 282 282 283 284 285 286 286
311 308 303 298 297 297 295 295 295 294 294 294 294 294 294 292 290 290 289 289 290 290 289 289 288 287 286 285 284 283 282 282 282 282 282 282 282 283 283 284 284 284 285
307 302 298 298 297 295 295 294 294 294 294 294 295 294 293 290 290 290 290 289 290 289 289 288 287 286 285 284 283 282 282 282 282 282 281 282 282 282 282 282 282 282 282
299 298 297 295 294 295 294 293 294 294 294 295 294 293 292 290 290 289 290 290 289 289 288 286 286 285 284 283 282 281 281 281 281 280 280 281 281 281 281 281 281 282 282
298 296 294 295 296 294 292 292 292 293 294 294 293 292 291 290 289 289 289 290 289 287 287 286 285 285 284 283 281 281 281 281 281 280 280 281 281 281 281 281 282 282 283
295 296 299 296 293 291 291 291 290 291 292 292 291 291 290 289 289 289 289 289 288 287 286 285 285 284 283 282 280 280 280 280 280 280 280 280 281 281 281 282 282 282 283
300 299 293 291 291 291 291 290 290 290 290 291 290 290 289 289 289 289 288 287 287 286 286 285 284 283 283 281 280 280 279 279 279 280 279 279 280 280 281 281 282 282 282
299 292 291 291 291 290 290 290 290 290 290 290 290 290 288 287 289 288 287 286 286 286 285 284 283 283 282 280 280 280 279 279 279 279 278 279 280 280 281 282 282 282 283
293 291 290 290 290 289 289 289 289 290 290 290 290 289 287 287 287 287 286 286 285 284 284 283 283 282 280 280 280 279 278 278 278 279 278 278 280 281 282 283 284 284 284
291 290 290 290 289 289 289 289 288 288 290 290 289 288 287 286 287 287 286 285 284 283 283 283 282 281 280 280 279 279 279 278 278 279 279 279 279 280 282 283 284 284 284
290 290 290 289 289 289 289 289 288 287 288 288 288 288 287 286 285 287 286 285 284 283 283 282 281 280 280 280 279 279 279 278 278 278 278 277 279 279 280 283 283 284 284

GFSMA_850_thetae_069.txt.gz
Theta_e
325 326 326 325 325 324 323 323 322 322 319 311 307 305 303 302 300 299 299 298 298 298 301 308 308 308 307 305 305 303 303 302 302 301 300 300 299 299 299 297 297 297 297
326 325 324 325 324 323 323 322 320 311 308 306 304 302 301 300 299 298 298 298 298 299 300 306 308 308 307 305 304 302 301 301 301 301 300 299 299 299 298 298 297 297 297
324 324 324 324 323 322 321 313 308 308 306 303 302 300 299 298 298 298 297 297 298 299 302 305 306 307 306 305 303 303 303 302 302 300 300 299 299 298 297 297 297 296 296
324 323 322 323 322 317 309 310 308 306 305 303 300 299 299 298 297 297 297 297 296 298 303 305 304 303 303 302 302 303 304 303 302 301 300 299 298 298 296 296 296 294 294
321 320 322 320 313 310 310 310 309 308 305 301 300 300 299 298 297 297 297 297 296 295 297 298 298 298 299 298 300 302 302 302 301 300 300 300 299 298 297 296 294 293 294
318 319 320 314 310 311 311 310 309 308 305 302 301 301 300 299 298 298 297 297 296 295 294 294 294 295 297 296 296 297 300 301 301 302 301 301 301 300 299 297 295 293 297
318 318 312 311 311 312 310 309 309 308 305 303 302 302 300 298 298 298 296 297 296 296 296 295 294 294 296 296 296 296 296 297 300 300 302 302 301 300 299 298 298 294 295
316 312 311 311 312 311 309 308 307 306 305 304 302 301 301 300 297 296 296 297 296 296 296 295 294 294 294 295 295 295 294 294 295 295 296 297 298 299 298 297 297 297 297
313 312 312 312 312 309 308 308 308 308 306 303 301 299 299 298 298 297 295 295 297 297 296 295 293 293 292 294 295 294 294 293 292 292 294 295 296 297 297 298 296 297 296
313 312 312 312 310 308 306 309 308 306 304 301 298 295 293 294 297 297 297 296 296 296 296 296 294 292 293 295 295 293 292 292 291 290 290 293 294 295 296 297 296 296 296
313 312 312 312 309 308 308 309 308 304 301 298 294 293 293 293 293 296 296 297 297 297 296 295 292 292 291 294 294 292 292 291 291 290 289 290 292 293 294 294 295 295 294
314 313 313 312 308 309 308 309 304 301 297 295 293 292 292 295 296 297 296 295 295 295 295 295 293 292 291 292 293 292 291 291 290 289 289 289 289 291 291 292 292 293 293
314 313 313 311 309 306 309 308 301 297 296 294 293 292 293 293 293 294 294 294 294 294 294 294 293 292 291 291 292 291 291 290 290 289 289 288 288 288 290 290 290 290 291
314 313 312 311 308 310 308 301 298 297 295 294 293 293 293 293 293 293 292 293 293 293 293 293 291 291 290 291 291 291 290 289 288 287 286 285 284 284 284 286 288 288 289
314 313 310 308 310 309 302 299 297 296 295 294 293 293 294 294 294 292 290 290 293 293 292 292 291 290 289 288 288 287 287 286 284 283 283 283 283 283 283 283 285 286 287
312 309 308 310 308 300 298 297 296 295 295 294 293 294 294 294 293 292 289 290 292 292 291 291 291 290 289 287 286 286 284 283 283 283 283 283 283 283 283 283 284 285 286
309 309 310 309 299 298 298 297 295 295 294 294 294 294 294 294 293 292 290 290 291 291 290 290 290 288 287 287 285 284 283 283 282 283 282 282 282 283 283 283 283 283 284
312 310 309 301 299 298 296 295 295 294 295 294 294 294 294 293 292 291 290 290 291 291 290 290 290 287 286 286 285 284 283 282 282 282 282 282 282 281 281 281 281 282 282
309 304 300 299 297 296 295 295 294 293 294 294 294 294 294 293 291 291 290 290 290 289 289 289 288 286 286 285 284 283 282 282 282 282 282 281 281 281 281 281 281 281 282
301 298 298 295 298 298 296 293 292 292 292 292 293 293 292 291 290 290 290 290 289 289 288 288 286 286 285 284 283 282 282 282 281 281 282 281 280 281 281 281 281 281 282
297 295 297 299 297 293 292 291 291 290 290 290 290 290 291 290 290 289 289 288 288 288 288 287 286 285 285 284 283 282 281 281 281 281 281 282 281 281 282 281 281 281 282
298 299 299 297 293 291 291 291 290 290 289 289 289 290 290 290 290 289 287 289 289 288 287 286 286 285 285 284 282 281 281 281 281 281 281 281 281 281 282 282 282 282 282
300 298 294 292 291 291 290 290 289 289 289 289 289 290 290 290 289 288 286 288 287 287 286 286 285 285 284 283 281 281 281 281 281 281 280 281 281 281 282 282 283 283 283
296 294 293 291 291 290 290 289 289 289 289 288 288 289 290 290 289 287 287 287 287 286 286 285 284 283 283 282 281 280 280 280 280 280 280 280 281 281 281 282 283 284 284
292 291 290 290 290 289 289 289 289 289 289 289 288 288 288 288 288 287 286 287 286 286 285 284 283 283 283 281 280 280 280 280 281 280 280 280 281 280 281 282 283 283 283
290 290 290 290 290 291 291 291 291 291 291 291 289 289 288 287 287 287 286 286 286 286 285 284 283 282 282 281 280 280 280 280 280 280 280 279 279 280 281 282 283 282 283

GFSMA_850_thetae_072.txt.gz
Theta_e
323 324 324 324 323 323 322 323 322 321 316 308 306 305 304 303 300 303 307 299 298 298 301 306 308 308 307 305 304 304 304 302 301 300 300 300 299 299 299 298 298 298 298
326 326 325 325 324 321 322 321 318 310 307 307 306 304 302 300 300 300 306 306 298 298 301 304 309 309 308 306 304 304 303 303 302 301 300 299 299 299 299 298 297 297 297
324 324 324 324 323 323 322 318 309 309 307 306 306 304 301 300 300 299 301 305 306 301 299 303 306 306 307 305 304 305 305 304 303 302 301 299 299 299 298 297 296 296 295
324 323 323 323 323 322 316 309 309 310 309 306 305 304 302 301 300 299 300 300 301 300 302 299 302 304 304 304 303 304 304 304 304 302 301 301 300 299 299 298 297 296 294
323 322 322 322 322 315 310 310 311 309 308 307 305 305 302 303 301 301 301 300 300 299 298 300 296 296 297 298 298 298 302 302 303 304 303 302 302 301 300 299 298 297 296
322 320 321 321 315 310 311 311 310 310 309 308 306 305 305 303 302 302 302 300 301 300 299 299 299 298 297 294 295 296 297 300 302 303 304 304 303 303 302 300 299 298 296
321 320 320 317 311 311 311 310 310 310 308 308 307 308 306 304 303 302 302 301 301 300 300 299 299 298 298 297 296 294 296 296 298 299 300 300 300 300 301 301 299 297 297
319 319 318 312 311 312 311 310 309 309 309 307 307 306 306 304 303 302 302 301 301 300 299 299 299 298 297 297 296 295 294 295 295 295 295 296 296 297 299 300 299 298 298
319 317 312 311 311 312 310 309 310 310 309 307 305 303 302 302 300 301 301 301 300 300 299 299 299 298 297 296 296 296 295 294 295 294 293 294 295 296 296 297 298 298 298
317 313 312 312 312 312 310 309 310 309 307 307 305 303 301 300 299 299 299 300 300 300 299 299 298 298 296 296 296 295 294 295 294 293 292 291 293 294 295 295 296 297 297
315 312 312 312 312 311 309 308 310 309 306 304 301 300 299 299 299 300 300 300 299 298 298 298 298 297 296 295 294 294 293 293 292 292 291 291 290 292 293 293 294 294 295
316 314 313 312 312 311 309 308 310 310 305 299 299 298 298 298 298 298 298 297 297 296 296 297 297 296 295 294 293 291 292 292 292 291 291 290 290 290 290 292 293 293 294
317 316 313 312 312 310 308 310 310 303 299 300 299 298 298 298 298 297 297 296 296 295 296 296 295 295 294 293 292 291 291 291 291 291 289 288 287 287 286 287 290 291 291
316 314 313 311 311 308 310 310 306 300 300 298 298 298 298 298 297 296 296 295 295 295 295 295 295 295 293 292 292 291 290 289 288 288 287 286 284 284 284 283 284 285 288
315 313 312 312 310 309 309 307 300 300 299 298 298 298 298 297 297 296 295 294 294 294 294 294 294 294 292 291 291 291 289 288 287 285 284 283 283 283 283 283 283 284 286
314 313 312 309 308 309 307 299 299 300 299 298 298 298 297 296 296 296 295 294 293 293 293 293 293 293 292 291 291 289 288 287 285 284 283 283 283 283 283 283 283 284 285
314 312 309 310 310 307 299 298 299 299 298 298 298 297 297 296 296 295 295 294 293 293 293 293 292 292 292 291 289 289 288 287 286 284 283 283 283 283 283 283 283 283 283
312 311 312 310 305 300 299 299 298 298 298 298 297 297 296 296 295 295 294 294 293 293 292 292 292 291 291 290 289 288 287 286 285 284 284 283 283 283 283 282 282 282 282
310 310 308 303 300 299 298 299 298 298 298 297 296 296 296 295 295 294 294 293 293 292 292 291 291 291 290 289 288 288 287 286 285 284 283 283 282 283 282 282 281 281 282
309 305 305 300 298 297 299 298 297 296 296 295 295 295 295 295 294 294 293 292 292 291 291 290 290 289 289 289 288 287 286 285 285 284 284 284 283 283 283 283 282 282 282
303 307 299 296 299 299 297 296 295 294 294 294 294 294 294 294 293 291 291 291 291 290 290 289 289 289 289 288 288 287 286 285 284 284 284 284 284 284 284 284 284 283 283
305 297 298 300 298 296 293 291 291 290 292 293 293 293 293 293 293 292 290 290 289 289 289 290 289 289 288 288 287 286 286 284 284 284 284 284 284 284 284 284 284 283 282
299 300 299 296 295 295 292 290 290 289 290 291 292 292 292 292 292 291 290 290 289 288 288 288 289 288 287 287 286 285 284 284 284 284 283 283 283 284 284 284 284 283 283
299 297 296 295 294 293 290 290 289 289 290 291 292 292 292 292 291 291 291 290 289 288 288 287 287 287 286 286 285 284 283 283 283 283 284 283 283 284 284 284 283 283 283
296 295 294 293 293 293 292 291 291 291 291 292 292 291 291 291 291 290 290 289 288 288 287 287 286 286 285 284 283 283 283 283 283 284 284 283 283 283 283 284 285 285 284
292 293 293 293 292 291 291 291 290 290 290 290 290 290 290 290 290 289 287 288 288 287 287 287 286 285 284 283 283 282 282 282 282 283 283 282 282 282 283 283 284 283 284

GFSMA_850_thetae_075.txt.gz
Theta_e
326 325 325 324 323 322 321 320 320 318 317 308 308 307 307 306 306 307 310 307 300 298 301 307 308 308 306 304 304 304 304 303 303 301 301 300 299 299 299 299 298 298 297
325 326 325 324 323 322 321 320 317 313 310 309 309 308 306 305 305 303 307 308 305 299 299 301 307 309 307 305 304 304 303 305 304 303 302 300 300 299 299 299 298 297 296
326 325 325 324 323 321 320 320 313 310 309 309 309 308 307 306 305 304 304 306 306 304 302 299 303 304 305 306 305 305 306 305 305 304 303 301 301 300 300 299 298 298 297
325 325 325 323 321 322 318 313 311 310 311 310 310 308 307 306 305 304 304 303 303 301 302 301 299 298 301 302 302 302 304 305 305 304 303 304 303 302 302 301 300 299 298
324 325 324 322 322 319 314 312 312 312 311 310 309 309 309 307 306 304 304 303 303 303 301 301 300 299 299 298 296 295 296 297 302 304 305 304 305 305 304 303 302 300 299
324 324 323 321 320 316 314 312 312 311 312 311 311 310 310 308 306 305 305 304 303 303 302 302 301 301 299 298 298 296 294 294 300 302 303 303 303 302 302 302 302 302 299
324 324 322 321 317 315 313 312 312 312 312 312 311 312 311 309 307 306 305 304 304 303 302 302 302 301 300 299 298 298 297 294 293 296 299 298 299 300 300 300 301 300 300
323 323 322 319 316 315 312 312 312 313 313 311 311 310 310 309 307 306 305 304 304 303 303 302 301 301 300 299 298 297 296 295 294 293 295 295 295 296 297 298 298 300 300
323 322 320 318 315 314 313 312 312 313 313 312 310 309 308 307 305 305 304 303 304 303 303 302 301 301 300 299 298 298 298 297 295 294 295 295 294 295 296 296 297 297 298
322 321 319 317 315 314 313 313 313 313 312 311 309 308 306 305 304 304 303 303 302 302 302 301 301 300 300 299 298 297 296 295 294 292 292 293 293 293 294 295 295 296 296
320 319 317 316 315 313 313 312 311 310 310 310 307 304 304 303 302 302 303 303 303 301 299 299 299 299 299 298 298 296 295 295 293 291 292 292 291 291 291 293 293 294 294
320 317 316 315 314 313 312 311 308 310 311 310 305 303 302 301 301 302 302 301 300 299 298 298 298 299 298 298 297 295 294 292 291 291 291 291 291 290 290 290 291 292 293
318 317 316 315 314 312 311 309 310 310 310 305 303 302 300 301 301 301 300 299 299 298 297 297 297 298 297 296 296 295 293 292 291 290 290 289 288 288 287 286 285 287 289
319 318 316 314 313 311 309 309 310 308 307 303 302 301 301 300 300 300 299 298 297 297 297 297 297 297 297 296 295 294 292 291 291 290 289 288 287 285 284 283 283 284 286
318 317 316 314 312 310 308 309 309 305 301 302 302 301 301 301 300 299 298 298 297 297 296 296 296 296 295 295 294 293 293 292 291 290 288 286 284 283 283 283 283 283 285
318 316 315 312 311 309 308 309 308 302 303 302 301 301 301 300 299 298 298 297 297 296 296 295 295 295 295 294 294 293 292 291 290 289 288 286 284 283 283 283 283 283 283
317 315 313 312 308 308 308 308 302 302 302 302 301 301 300 299 298 298 298 297 296 296 295 295 294 294 294 293 293 293 292 291 290 289 287 286 285 284 283 283 283 283 283
317 315 312 310 310 310 304 302 302 302 301 301 301 300 299 298 298 298 297 297 296 295 295 295 294 294 293 293 292 293 291 290 289 288 287 286 285 284 283 283 283 283 282
312 310 310 309 309 306 301 302 301 301 301 300 300 299 298 298 297 297 297 296 296 295 294 294 294 293 293 292 291 291 291 289 289 287 286 286 285 284 284 284 284 284 283
309 308 308 307 306 301 301 300 301 300 299 298 297 297 297 297 296 296 296 295 295 294 293 293 293 292 291 290 291 290 290 289 289 288 286 286 286 285 285 285 285 285 284
310 309 308 305 300 300 301 301 299 297 296 295 295 295 295 295 295 295 295 294 293 293 292 292 291 291 290 290 290 290 290 289 288 287 286 286 286 286 286 285 285 285 285
308 305 306 300 301 302 300 297 294 291 292 293 294 294 294 294 294 294 294 293 293 292 291 290 290 290 290 291 290 290 289 288 287 286 286 286 286 285 285 285 285 285 284
304 301 301 302 301 298 297 295 292 290 290 292 292 293 293 293 293 293 293 293 292 292 291 290 289 289 289 290 289 288 288 287 287 286 285 285 284 285 285 285 285 285 284
302 303 301 299 298 297 295 294 292 290 291 292 293 293 293 293 293 292 292 292 292 291 291 290 289 288 288 288 288 288 287 286 285 284 284 284 285 285 285 285 284 284 285
300 299 298 296 295 295 295 294 293 292 292 292 292 292 292 291 291 291 291 291 291 290 290 290 289 288 288 287 287 286 285 285 284 284 284 285 285 284 284 284 284 285 285
297 295 295 295 295 294 294 293 292 291 287 286 287 288 287 287 287 287 288 289 289 289 289 289 288 288 287 287 286 285 284 284 284 284 284 284 285 284 284 283 284 283 283

GFSMA_850_thetae_078.txt.gz
Theta_e
313 314 317 319 321 321 321 321 321 322 321 310 309 309 308 308 307 308 308 307 306 300 301 306 305 304 304 303 303 303 303 303 303 302 302 302 300 300 299 300 299 298 297
325 325 324 323 323 322 322 321 319 318 311 310 310 310 309 308 307 307 306 306 306 304 300 299 302 302 304 303 303 302 304 306 304 304 304 302 302 302 301 300 300 300 300
325 325 324 323 323 322 321 320 317 312 310 309 309 309 309 308 307 304 305 305 305 303 302 302 300 300 302 302 303 303 305 306 305 306 304 302 304 304 303 302 302 302 301
323 324 324 324 323 322 321 320 315 310 311 310 310 309 308 307 307 306 304 304 303 302 302 301 301 300 297 297 297 296 296 297 299 303 305 305 304 304 304 305 304 303 302
325 325 325 324 323 321 319 316 312 312 311 311 310 309 309 309 307 305 304 304 303 303 302 302 302 301 301 300 299 298 296 294 294 301 302 304 304 303 304 303 304 304 303
324 323 324 324 322 319 316 312 312 312 312 312 311 311 311 311 309 306 306 305 304 304 303 302 302 302 301 300 299 299 297 296 294 295 300 300 301 301 300 301 301 302 301
325 324 324 323 321 317 316 312 312 312 312 312 312 313 313 311 310 308 305 305 305 304 303 303 302 302 301 300 300 300 298 297 296 294 293 294 296 297 298 299 299 300 300
324 324 324 322 320 316 315 313 312 313 314 313 311 311 311 310 309 308 305 304 304 304 303 303 302 302 301 301 300 299 298 298 297 296 293 292 292 293 295 297 297 298 298
322 323 323 322 319 316 315 313 313 314 314 313 312 311 309 308 307 305 305 305 304 303 302 302 302 302 301 301 300 299 298 298 297 296 294 292 291 294 294 295 295 296 296
323 324 323 322 318 316 315 313 313 313 313 312 311 310 307 306 305 305 304 304 304 304 303 302 301 300 300 300 300 299 298 297 296 295 293 292 290 291 293 293 293 294 294
323 324 322 320 318 316 314 313 313 313 313 312 311 310 306 305 304 303 302 302 302 303 302 300 299 298 299 299 299 298 298 297 296 294 293 290 290 290 291 292 292 292 293
323 323 321 319 317 316 314 313 313 312 311 311 311 307 304 303 302 302 302 302 302 301 300 299 298 297 298 299 298 298 297 296 295 294 293 291 290 289 289 288 289 290 291
324 322 320 318 317 315 313 313 313 311 310 310 309 307 304 302 301 301 301 301 300 299 299 298 297 297 297 297 298 297 296 296 295 294 292 290 290 289 288 287 285 286 288
322 323 321 317 316 315 314 313 311 309 309 308 306 304 302 301 300 301 301 300 299 298 298 297 297 296 296 296 296 297 296 295 294 293 291 291 290 289 288 285 283 284 285
321 323 320 317 315 315 314 312 309 309 309 308 306 303 302 301 301 301 300 299 298 298 298 297 296 296 295 295 295 295 295 294 294 293 292 291 289 289 288 286 284 283 283
322 320 319 317 315 314 313 309 309 309 308 305 303 303 301 301 301 300 299 298 298 298 297 297 296 296 295 295 295 294 294 293 293 292 291 290 289 288 287 286 284 283 283
322 319 318 316 315 314 311 308 309 308 303 303 302 302 301 301 300 300 299 298 298 298 297 297 296 296 295 295 294 294 293 293 293 293 291 289 289 288 287 285 284 284 283
322 319 317 316 314 312 310 309 309 304 304 302 302 301 301 301 300 299 299 298 298 297 297 297 296 295 295 295 294 293 293 292 292 292 290 289 288 287 286 285 285 285 284
321 319 316 314 312 310 309 308 305 304 302 302 301 301 300 299 298 298 297 297 297 297 297 296 295 295 294 294 293 292 292 290 290 291 290 289 287 286 286 286 286 285 285
319 316 310 310 310 309 307 305 302 301 301 301 300 298 298 297 296 296 296 296 296 296 296 295 294 293 293 292 291 291 290 289 290 290 289 289 287 286 286 286 286 285 285
315 311 310 308 309 306 302 300 300 301 300 298 297 296 295 295 295 295 295 294 294 294 294 293 293 293 291 290 290 290 290 290 290 289 289 287 287 286 286 286 285 285 285
310 310 308 307 304 301 301 301 301 300 298 294 291 291 291 292 292 293 293 293 293 293 293 293 293 292 292 291 290 289 289 290 289 288 287 287 286 286 286 285 284 285 285
309 306 305 301 301 302 302 301 299 296 293 291 290 290 291 292 293 293 293 293 293 293 293 293 292 292 291 291 289 288 288 289 288 287 287 286 286 285 284 284 285 285 285
305 303 302 302 302 300 298 297 296 294 293 292 291 292 292 292 292 292 292 292 292 292 291 291 291 291 290 290 289 288 288 288 287 286 286 285 284 283 284 285 285 284 283
303 303 302 300 298 297 296 295 295 294 293 292 291 289 287 286 287 287 287 286 286 285 285 288 289 289 289 289 289 288 288 287 287 286 285 284 284 284 285 284 284 284 283
301 300 297 296 295 295 295 295 293 291 290 288 286 285 285 284 284 284 286 286 286 286 286 286 286 287 288 289 288 287 287 287 286 285 285 284 284 284 284 284 283 284 283

GFSMA_850_thetae_081.txt.gz
Theta_e
315 314 315 316 318 320 321 321 321 321 320 320 310 311 310 309 308 308 308 307 306 302 302 304 302 303 301 301 300 301 301 305 304 304 304 303 302 302 303 301 301 301 302
314 313 314 317 319 321 321 322 322 321 318 310 310 310 309 307 307 306 306 305 306 304 302 301 300 300 302 301 302 303 304 305 304 306 305 303 303 304 304 303 303 303 303
314 313 317 319 322 322 322 322 321 316 311 310 311 310 309 308 308 307 305 305 305 304 302 302 301 300 300 299 300 300 300 301 304 305 304 304 305 304 304 304 304 304 303
324 322 322 322 323 322 322 321 320 316 310 311 311 310 309 310 309 307 306 305 304 304 302 302 301 301 301 300 299 298 297 296 296 299 303 304 304 303 303 303 303 303 303
321 322 323 324 323 322 322 321 319 312 311 311 310 309 309 311 310 308 305 305 304 303 304 303 302 302 302 301 300 299 298 297 295 297 302 302 303 303 301 301 300 302 302
320 322 324 324 323 322 322 321 317 311 312 311 311 310 311 312 311 310 307 306 305 304 304 303 303 302 302 301 301 300 298 298 297 296 295 294 295 297 296 297 299 299 300
321 323 324 323 323 322 321 318 312 312 312 312 312 312 312 312 312 311 309 305 304 305 304 304 303 303 302 301 301 300 299 299 299 298 296 293 292 292 293 297 297 297 298
322 323 323 323 323 321 319 316 313 312 312 312 313 311 312 311 311 310 308 306 305 305 304 303 302 303 302 302 301 301 300 299 298 297 296 295 292 291 294 295 296 296 296
322 323 323 324 323 321 319 317 314 312 312 313 313 313 311 309 309 308 306 306 305 304 304 303 302 301 301 300 301 301 300 299 298 297 296 295 293 291 290 294 294 294 295
322 322 323 323 322 321 318 317 316 312 314 314 313 312 312 311 308 306 305 304 304 304 304 303 302 301 301 300 300 300 299 298 298 297 296 295 293 292 291 290 293 293 293
322 323 323 323 322 322 318 316 316 312 313 314 313 312 312 309 305 304 303 302 302 302 302 300 299 298 298 298 298 298 298 298 298 297 296 296 294 293 291 289 290 291 291
322 322 323 323 322 321 319 317 315 313 313 313 312 311 310 306 305 304 302 302 302 302 302 301 300 299 298 297 297 297 298 297 298 297 296 296 294 293 291 290 289 289 289
323 323 323 323 322 321 318 316 314 314 313 312 310 310 308 305 304 302 301 301 301 301 300 299 299 298 296 296 297 297 297 297 297 296 296 295 294 293 292 290 289 288 286
324 323 323 323 321 319 318 315 314 313 313 311 310 309 307 307 307 303 301 300 300 300 300 298 297 296 295 296 296 296 295 295 295 295 294 294 293 292 291 290 289 288 287
324 323 322 322 320 318 317 316 313 312 312 309 308 308 308 308 303 302 301 300 300 299 299 298 297 296 296 296 295 294 294 295 294 294 294 293 293 292 291 289 288 287 286
325 322 322 322 318 316 316 313 313 312 309 308 308 309 306 303 302 301 300 300 300 299 298 298 297 297 297 296 295 295 295 294 294 294 293 293 292 292 290 289 288 286 285
324 323 322 322 319 317 315 314 314 311 310 310 308 305 303 302 302 301 300 300 300 299 298 298 297 297 296 296 296 295 295 294 294 293 293 292 292 291 289 288 287 286 285
324 323 322 321 319 317 314 314 314 311 310 309 308 303 302 301 301 301 301 299 299 298 298 298 297 297 297 296 295 294 294 293 293 292 291 290 290 290 289 288 286 286 286
325 323 321 320 319 317 315 313 311 310 308 307 303 302 302 301 301 300 299 298 298 297 297 296 297 296 296 295 294 293 292 292 291 290 290 289 290 289 288 287 287 286 286
324 321 321 320 318 315 313 311 309 307 305 302 302 301 301 300 299 297 296 295 295 295 295 295 294 294 293 293 293 293 292 291 290 288 289 290 290 289 288 287 286 286 286
321 321 319 315 312 311 310 308 306 302 301 302 301 301 299 298 296 294 295 294 293 293 293 293 293 293 293 293 293 292 292 290 290 288 289 290 289 287 287 286 286 286 286
320 317 312 310 310 309 307 303 301 301 301 301 301 299 296 291 290 291 291 292 293 293 293 293 293 292 292 292 292 292 292 291 289 288 288 288 287 287 286 286 285 285 284
316 311 310 309 309 304 303 301 301 301 301 300 297 293 290 290 290 291 292 292 292 292 293 292 292 291 290 291 291 291 290 290 289 288 288 288 287 286 286 285 284 284 285
310 310 308 305 302 302 302 302 302 300 298 295 293 292 292 291 291 290 288 287 286 286 285 285 285 285 285 286 287 288 288 289 288 288 287 287 286 286 285 284 284 284 284
309 305 303 302 301 302 301 299 298 296 295 294 293 292 291 288 286 285 285 284 284 284 284 285 286 286 286 285 286 287 288 289 288 288 287 287 286 285 284 283 283 284 284
303 303 303 302 301 299 298 296 295 295 294 293 290 287 286 285 284 283 283 283 283 283 284 285 287 287 286 286 285 285 286 288 288 287 287 286 285 284 284 283 283 283 283

GFSMA_850_thetae_084.txt.gz
Theta_e
315 316 315 317 317 319 320 320 320 320 320 320 317 309 310 310 309 308 308 306 306 305 305 303 303 302 301 300 300 300 300 306 302 306 304 303 303 304 303 303 303 303 303
315 315 316 317 316 320 320 321 321 321 321 319 310 311 310 310 309 308 307 306 306 305 303 302 302 301 301 300 300 301 301 302 305 306 304 303 304 305 304 304 304 303 303
315 315 315 315 317 319 321 321 321 321 319 311 311 310 310 310 310 308 307 306 306 305 304 302 302 301 301 300 299 298 298 297 298 300 304 305 304 303 302 303 303 301 302
314 313 314 314 317 320 322 322 321 319 315 310 311 310 310 311 310 308 307 306 306 305 303 304 303 302 302 302 301 300 299 298 297 297 302 301 303 303 302 302 301 301 301
316 317 318 316 320 322 322 322 320 319 315 311 311 310 309 309 311 311 309 308 306 305 304 304 303 303 302 302 301 301 299 297 296 296 295 295 295 298 299 297 299 299 299
321 321 322 323 322 323 322 321 320 319 313 311 311 310 309 309 311 311 311 309 306 305 304 304 303 302 302 302 302 301 300 299 297 297 295 295 294 292 292 292 293 298 298
320 321 321 322 323 323 323 322 321 320 312 311 310 311 311 312 312 311 311 309 306 305 304 304 304 303 302 302 302 301 300 298 299 298 297 296 295 294 293 291 290 295 297
317 319 322 323 324 324 322 321 321 319 312 312 311 311 312 312 311 311 310 310 307 305 305 304 304 303 302 301 301 300 298 298 298 298 297 296 295 294 293 293 292 292 295
317 320 322 322 323 323 323 322 320 317 314 312 312 312 311 312 311 311 310 309 306 305 304 304 303 303 302 301 301 300 300 300 299 298 297 297 296 296 295 294 293 292 291
317 320 321 322 323 323 323 322 319 317 314 312 312 313 313 312 311 309 308 306 305 305 305 304 303 303 302 301 300 301 300 299 298 297 297 297 297 296 295 294 294 293 292
315 319 322 323 323 323 323 321 319 317 315 312 312 313 313 311 311 309 306 305 305 303 302 302 302 302 299 298 298 298 297 297 297 297 297 297 297 296 295 295 294 292 292
318 321 322 323 323 323 323 321 319 317 316 313 313 313 313 312 311 308 306 306 304 302 302 302 301 301 299 298 298 297 296 297 297 297 297 297 296 296 295 294 293 292 291
320 321 322 322 323 323 323 322 321 317 315 313 313 313 312 311 310 306 305 304 302 301 301 301 301 299 298 296 295 295 296 296 295 295 296 296 295 295 294 293 293 292 290
319 318 323 322 322 323 323 320 319 316 314 313 313 313 311 310 306 305 309 306 301 300 300 300 300 298 296 294 294 294 294 293 293 294 294 294 294 294 293 293 292 291 289
324 323 322 323 323 323 323 320 317 315 315 313 313 311 311 307 307 309 305 302 301 300 300 300 298 296 294 295 296 296 296 295 295 294 294 294 294 293 293 293 292 291 288
324 324 324 324 323 322 323 320 319 316 315 313 312 311 309 309 309 307 306 301 300 300 300 299 298 297 296 296 296 296 296 296 295 295 294 294 294 292 292 292 291 290 288
325 324 324 324 322 322 322 320 318 316 315 312 311 310 309 308 307 304 302 301 300 300 300 299 299 298 298 297 297 296 296 295 295 294 294 294 293 292 291 290 290 289 288
326 325 324 323 321 321 321 320 317 316 314 313 311 310 308 306 303 302 301 300 301 300 299 298 298 297 297 296 296 296 295 295 293 293 293 292 291 290 289 290 290 289 288
321 324 323 322 321 320 320 319 317 315 314 312 310 308 306 303 302 301 301 300 299 298 297 296 295 294 295 294 294 293 293 293 293 292 292 291 290 288 289 290 290 288 286
318 324 324 323 321 320 319 318 316 314 311 309 307 303 302 302 301 300 300 299 297 296 294 294 294 293 293 293 293 293 293 292 292 292 292 290 289 288 289 289 289 288 287
322 322 324 323 320 319 318 316 314 311 308 306 303 302 301 301 300 298 297 296 294 294 293 293 292 293 292 292 292 292 291 291 291 290 291 290 289 288 289 289 287 286 286
325 323 322 321 320 318 314 312 310 309 306 303 301 301 300 299 298 297 292 290 290 291 291 292 292 292 292 292 290 288 288 289 290 290 290 289 288 287 288 287 287 286 286
323 322 321 318 315 313 311 309 308 305 301 301 300 300 299 298 296 291 290 291 290 291 291 291 290 288 286 285 285 285 285 285 286 286 288 289 288 287 287 287 286 285 285
321 319 316 311 309 309 309 307 304 300 300 299 299 298 296 293 292 292 291 289 287 286 285 284 284 284 284 285 286 286 286 285 286 288 288 289 288 287 287 286 285 284 283
316 312 309 309 308 304 305 302 301 301 300 298 296 294 293 293 291 288 286 285 284 284 283 283 283 284 284 285 287 286 286 285 286 286 286 288 288 287 287 285 284 284 283
312 309 307 305 302 302 301 300 299 298 297 296 294 294 291 287 286 284 283 283 283 283 283 284 284 284 286 286 287 286 285 286 287 286 286 287 287 287 285 285 284 283 283

GFSMA_850_thetae_087.txt.gz
Theta_e
318 316 315 316 316 318 318 319 320 319 319 319 315 309 310 310 308 308 308 306 306 306 306 307 305 303 302 302 300 300 303 301 302 306 302 303 305 305 304 304 304 303 302
316 315 316 316 316 318 319 320 320 320 320 319 311 311 311 310 309 308 307 307 306 305 303 303 303 302 302 302 301 300 298 299 300 305 301 304 305 304 303 303 303 302 301
315 315 315 317 315 319 320 320 320 321 320 317 310 311 310 310 311 309 308 306 306 305 304 303 304 303 302 302 302 300 300 298 297 297 300 303 303 303 303 302 301 301 301
316 315 315 316 317 319 320 321 321 321 319 310 311 311 310 311 310 309 308 307 306 305 304 305 304 303 303 303 302 301 300 298 296 296 295 296 299 300 300 299 297 294 298
315 315 316 317 317 319 320 321 322 321 314 310 311 311 310 310 311 311 309 309 307 305 305 305 304 303 303 302 302 301 301 299 297 296 295 295 295 294 293 292 292 291 291
316 315 317 318 317 319 321 322 322 319 317 312 311 311 310 310 311 312 311 310 309 306 305 304 304 303 303 302 302 301 301 299 298 297 297 296 295 294 294 293 292 293 292
315 317 319 319 320 320 322 322 321 320 319 314 311 310 310 310 311 311 311 310 310 308 305 304 304 304 303 302 301 300 300 299 299 298 297 296 296 295 295 294 294 294 293
317 319 321 322 322 322 323 322 322 320 319 314 312 311 310 310 311 311 311 310 309 308 306 305 304 304 303 303 301 301 300 300 301 299 298 297 296 296 295 295 294 294 293
317 318 319 320 322 322 323 323 322 321 320 317 312 311 311 311 312 312 311 310 309 309 306 305 304 304 304 303 302 301 300 299 300 300 298 297 297 297 296 296 295 295 294
318 318 318 321 322 323 323 323 323 321 321 319 314 312 311 312 311 311 311 310 309 308 306 306 305 304 304 303 303 302 301 301 299 298 297 298 297 297 297 296 295 295 294
317 316 317 320 321 322 322 323 323 322 321 318 315 313 312 312 312 312 311 311 308 306 305 304 303 303 303 303 301 299 298 297 297 297 297 298 297 297 296 296 295 294 293
315 316 315 317 320 321 322 323 323 322 321 318 316 312 312 312 312 312 311 311 307 305 304 303 302 302 301 301 300 299 297 296 296 296 296 296 296 296 296 295 295 293 293
316 316 314 317 320 322 322 322 323 322 321 318 316 313 313 313 312 310 309 310 305 304 303 302 301 301 300 300 298 296 295 295 295 295 294 293 294 294 294 294 294 294 294
313 313 315 318 319 321 321 322 323 322 322 317 315 313 314 313 313 311 312 306 304 306 306 303 302 301 300 298 296 295 294 294 294 295 294 294 294 294 294 294 294 293 293
318 320 320 318 319 321 322 322 323 323 322 320 315 316 314 313 312 310 310 305 309 304 304 304 301 300 298 297 295 294 295 295 295 295 295 295 295 294 294 294 293 293 292
321 321 322 322 320 320 323 322 323 323 321 319 316 316 314 313 311 311 307 308 307 305 301 300 300 299 298 297 296 295 296 296 296 295 294 295 294 294 294 294 293 292 291
324 323 322 323 324 323 323 322 323 322 321 319 315 316 314 313 311 310 309 307 303 301 301 300 300 300 299 297 296 296 296 295 294 295 294 294 293 293 292 292 291 290 288
325 325 323 323 324 324 324 322 322 322 322 319 316 316 314 312 310 309 306 303 302 301 300 300 300 299 297 296 295 293 293 293 293 293 292 292 292 292 292 291 290 288 289
326 325 323 322 321 324 324 323 321 321 320 318 316 314 313 310 309 306 303 302 301 301 300 299 298 297 295 293 293 293 292 292 292 292 292 292 292 292 291 291 290 287 288
326 318 316 317 319 323 322 321 321 321 319 317 315 313 310 309 306 304 302 301 301 300 299 298 296 294 293 293 292 292 291 291 291 291 291 291 291 291 289 290 289 288 289
326 322 320 320 317 323 322 321 319 319 317 315 312 310 307 306 305 302 301 301 299 298 297 295 292 291 291 291 291 291 290 288 286 285 285 285 289 289 290 289 288 287 289
327 326 321 323 321 322 322 321 318 317 312 309 309 306 305 302 301 301 299 299 297 294 291 290 290 291 290 290 288 286 285 284 284 285 285 285 286 287 288 288 287 288 287
324 323 322 323 322 321 319 319 316 311 310 309 306 303 301 300 299 298 296 296 293 291 291 291 290 288 286 285 284 284 284 285 286 286 285 285 285 287 287 288 287 287 287
322 323 322 320 319 316 316 310 309 308 307 305 301 299 298 297 297 295 294 292 292 290 287 285 284 284 284 283 284 284 286 286 286 286 286 285 285 286 287 288 287 287 286
321 320 319 316 311 309 309 308 308 306 303 300 299 297 298 296 294 293 292 288 286 285 284 284 284 283 284 284 285 286 286 285 286 286 285 285 285 285 285 287 287 286 285
316 312 310 309 308 309 307 305 304 299 300 299 297 296 294 293 291 287 285 284 284 283 283 283 283 283 283 283 283 283 285 286 286 285 285 285 285 285 286 287 287 285 285

GFSMA_850_thetae_090.txt.gz
Theta_e
315 316 317 317 317 318 318 319 319 319 318 315 311 309 309 310 309 308 307 307 307 306 307 305 305 303 302 302 301 301 300 300 306 301 299 305 304 302 302 303 302 301 303
317 316 316 317 317 317 318 319 319 319 319 318 310 310 310 310 309 308 307 307 306 305 304 304 304 303 303 302 302 301 300 299 300 300 299 306 303 300 299 298 295 294 294
319 316 315 316 316 318 319 320 319 319 319 319 310 310 310 310 311 309 307 306 306 305 304 304 304 303 302 303 302 301 300 299 297 297 301 303 302 299 296 295 294 293 293
317 315 316 316 315 318 319 320 320 320 320 318 310 310 310 311 310 308 307 307 306 305 305 305 304 303 303 303 302 301 301 299 297 296 295 295 295 294 294 293 292 292 292
318 318 318 316 316 318 319 320 321 321 320 314 310 310 310 311 310 311 309 308 308 306 305 305 304 303 303 303 302 301 301 299 298 297 296 296 295 295 294 294 293 293 293
319 320 318 317 316 318 319 320 321 321 319 314 310 310 310 310 311 312 311 310 309 308 306 305 304 304 303 303 303 302 301 299 299 298 297 297 296 295 295 294 294 293 293
321 318 318 317 316 318 319 320 321 321 318 314 310 310 310 310 310 310 311 311 311 309 308 306 305 304 304 303 303 302 301 301 300 301 300 298 297 296 296 295 294 294 294
317 317 316 317 316 318 319 320 322 321 319 317 314 311 310 310 310 311 311 312 311 310 309 307 305 304 304 304 303 302 301 303 305 304 303 300 298 296 296 296 296 295 294
316 315 315 316 318 320 321 321 322 322 321 319 318 313 311 311 311 311 311 311 311 310 309 308 306 305 304 304 303 303 302 302 300 301 303 302 301 300 297 297 296 295 295
316 315 318 319 321 322 321 322 322 322 322 321 319 316 313 312 312 311 311 312 311 311 310 309 307 305 305 305 304 303 303 302 300 299 299 301 301 301 300 299 297 296 295
315 316 318 318 319 320 321 322 323 322 322 322 321 320 316 312 311 311 311 311 311 310 309 308 307 306 305 304 303 303 302 299 298 298 297 298 300 300 300 299 298 297 296
315 317 318 319 317 317 320 321 322 322 323 322 321 320 318 314 312 311 311 312 311 307 306 305 304 303 302 302 301 300 299 299 298 296 296 296 295 296 299 299 298 298 297
316 316 316 317 316 316 316 318 320 321 322 322 321 321 316 313 314 313 314 312 312 311 311 305 304 302 302 302 300 300 299 297 295 294 294 294 293 293 293 296 297 297 297
316 315 316 316 315 315 314 315 317 321 322 322 322 322 319 317 315 314 314 312 312 311 309 304 305 306 302 301 300 299 296 295 294 294 294 294 294 294 295 294 294 295 295
315 315 315 314 315 315 313 316 318 320 321 321 321 321 321 318 314 315 313 313 312 310 306 306 307 307 304 300 299 298 296 295 295 295 295 295 294 295 294 294 294 294 293
316 316 316 315 314 314 320 321 319 320 322 322 321 322 321 319 315 315 313 313 311 310 306 307 307 305 301 300 299 298 297 296 296 296 295 295 295 294 294 294 292 293 292
314 314 314 316 319 321 322 322 322 321 321 320 322 322 321 317 315 315 313 312 311 307 306 307 303 301 300 300 299 298 297 295 294 293 293 292 292 292 292 292 292 292 291
319 320 321 322 323 323 324 323 322 323 316 317 321 322 321 317 315 315 313 312 308 308 305 302 301 301 300 300 299 297 294 293 293 292 292 291 291 291 292 292 292 292 291
323 324 324 324 325 323 322 322 321 318 323 318 320 320 320 319 316 314 312 310 308 305 303 302 301 300 300 298 297 294 292 292 291 291 290 290 289 289 289 290 292 291 290
320 321 322 321 319 322 318 320 321 319 322 322 320 319 320 317 315 313 310 308 305 304 302 301 300 299 297 296 293 291 291 290 290 288 287 286 286 285 285 286 289 291 290
322 322 323 323 325 321 317 318 319 321 321 320 319 319 315 312 311 309 307 304 304 301 300 299 298 296 295 291 290 290 290 287 286 286 286 285 286 286 286 286 286 288 290
323 324 324 322 323 322 322 320 319 322 321 320 319 317 312 310 307 305 304 302 300 299 297 297 295 292 291 291 290 287 285 284 284 285 285 285 286 286 286 285 285 288 288
324 324 323 324 323 321 320 321 319 320 317 315 313 309 308 308 307 305 301 298 295 296 294 293 292 291 289 286 284 284 284 284 284 284 285 285 285 285 285 285 286 287 288
323 324 323 322 321 320 319 314 311 310 310 308 307 306 304 304 302 299 294 296 295 294 292 290 287 285 284 283 283 284 284 284 284 285 285 284 285 286 285 285 284 286 287
321 321 321 320 317 314 311 310 309 308 308 307 307 305 302 300 296 296 296 295 292 288 285 284 283 283 283 283 283 283 283 284 283 283 284 284 285 285 285 285 285 285 287
319 316 315 312 310 309 306 306 306 306 306 304 297 297 296 295 295 293 289 286 285 284 283 283 283 282 282 282 281 281 281 284 284 284 284 284 285 285 285 284 285 287 287

GFSMA_850_thetae_093.txt.gz
Theta_e
318 319 321 320 319 316 315 316 317 315 315 311 310 309 310 310 309 308 310 308 307 306 306 306 304 303 303 303 303 301 300 305 302 298 305 305 302 300 298 296 295 294 294
317 320 320 317 316 317 318 318 318 317 317 314 309 309 310 310 308 308 308 307 306 306 305 305 304 304 303 303 303 301 300 300 301 298 303 300 298 297 295 295 294 294 293
317 317 316 316 317 318 318 319 319 318 319 317 309 310 310 309 309 309 308 307 306 305 304 305 304 304 304 304 303 301 301 299 297 297 297 296 295 295 294 294 293 293 293
316 316 316 317 317 317 318 319 319 319 319 318 311 310 309 310 310 308 307 307 306 305 304 304 304 303 303 303 303 302 301 299 297 296 296 295 295 295 294 294 294 293 293
316 316 316 317 317 318 318 319 319 320 320 319 311 310 309 310 310 309 308 308 307 306 305 305 304 304 303 303 303 302 301 300 298 297 297 296 295 295 295 294 294 294 293
317 316 316 316 317 318 318 319 320 320 320 319 312 310 310 310 310 310 310 309 309 308 306 305 305 304 304 303 303 302 302 301 300 299 298 298 297 296 295 295 295 294 293
321 319 318 317 316 318 318 319 320 320 320 315 311 310 310 309 310 310 311 311 310 309 309 307 306 304 304 304 303 303 302 302 301 301 301 301 299 297 296 295 295 295 294
318 318 320 320 317 318 318 319 320 320 319 316 312 310 309 309 310 310 310 311 311 310 310 309 308 306 304 304 304 303 303 303 305 305 304 304 303 300 299 297 296 296 295
316 316 321 320 317 317 316 318 319 320 321 318 317 314 311 312 312 311 310 310 310 310 310 309 308 307 305 305 304 304 303 303 303 305 305 304 304 302 302 301 299 298 297
316 318 317 317 315 316 315 317 319 320 321 320 318 317 316 315 313 312 312 311 310 310 311 310 309 307 307 305 305 304 304 303 302 302 301 301 303 303 303 301 301 300 299
315 315 315 318 316 315 317 320 321 321 321 321 321 320 316 315 314 313 314 312 311 311 311 311 311 308 308 307 306 305 304 303 303 302 300 299 299 302 302 301 301 301 300
314 316 316 316 316 318 319 319 320 321 322 322 322 321 320 318 317 315 317 312 313 312 312 311 310 308 307 306 304 303 302 302 301 299 299 299 298 297 296 299 300 300 300
315 316 316 318 318 317 318 318 318 319 320 321 321 321 321 320 317 317 317 312 314 313 311 310 311 311 311 305 303 302 303 301 300 300 298 296 295 294 294 293 295 298 298
316 315 316 316 317 317 317 318 316 315 315 316 318 321 322 322 320 318 318 312 313 313 310 311 312 312 310 305 302 303 303 300 299 296 294 294 293 293 293 293 294 294 297
316 315 315 314 316 316 316 316 315 315 315 314 315 317 321 322 321 319 318 316 314 312 311 312 312 311 307 305 304 302 300 298 297 295 295 295 294 294 294 294 295 294 294
316 316 315 316 316 315 315 315 315 315 316 318 320 319 320 321 321 320 320 315 314 314 311 312 311 309 307 307 304 300 299 298 298 297 296 295 295 294 294 295 294 293 293
316 316 316 316 315 315 315 315 315 317 321 322 322 321 321 319 321 320 320 318 315 314 312 312 309 307 306 306 302 301 300 299 298 297 295 294 293 292 292 292 291 291 291
316 316 316 316 316 315 315 317 320 319 319 321 319 321 318 317 317 317 319 318 315 314 313 312 310 306 305 302 301 300 300 299 298 295 293 293 292 291 291 290 290 290 290
314 315 315 316 317 319 321 323 322 322 323 318 321 321 319 317 316 317 319 318 316 314 313 310 306 305 302 302 300 300 299 298 295 292 292 291 290 289 288 288 287 287 287
320 320 321 321 321 321 322 321 319 319 322 319 321 321 319 319 319 318 316 317 315 313 310 306 304 302 301 300 299 298 296 295 291 290 290 288 287 286 286 287 286 286 286
318 318 319 319 321 322 322 323 322 323 323 317 318 321 319 320 317 317 316 315 311 309 306 303 302 301 300 298 297 295 293 291 290 288 286 286 286 286 286 286 286 286 286
318 319 322 323 322 323 323 322 323 321 321 320 318 317 317 317 313 310 309 307 307 305 302 301 300 298 296 296 293 292 290 287 286 286 285 285 286 286 286 286 286 286 285
323 323 323 324 324 322 322 322 321 320 319 317 315 313 311 310 308 307 304 304 304 303 301 299 296 295 293 293 290 286 284 284 285 286 285 285 285 286 286 285 285 286 285
323 323 324 323 320 320 320 320 319 315 312 310 309 307 306 307 305 304 302 300 299 297 295 294 293 292 288 285 284 284 284 284 284 284 285 285 286 286 286 285 285 285 285
323 322 320 319 318 318 317 317 313 310 309 307 305 303 301 301 302 300 299 295 293 293 292 286 285 286 285 283 283 283 283 283 285 286 286 285 286 286 286 286 285 285 285
318 318 316 315 314 311 310 309 307 306 305 303 301 298 294 293 293 293 293 292 290 287 285 285 284 285 284 283 283 281 283 283 284 284 285 285 286 285 285 285 286 285 285

GFSMA_850_thetae_096.txt.gz
Theta_e
326 322 324 326 326 326 325 325 324 320 317 313 316 315 318 318 319 318 317 309 308 309 309 308 305 304 304 304 303 302 301 300 299 298 300 299 298 296 296 295 295 294 294
320 320 323 324 325 326 325 324 322 319 314 313 311 311 315 317 318 318 318 312 309 309 310 309 306 304 304 304 303 302 300 299 298 298 299 297 297 296 295 295 295 294 294
318 315 319 322 322 323 322 322 318 317 314 312 310 310 311 315 316 317 318 317 312 309 306 306 305 304 304 304 303 302 301 300 298 297 297 296 295 295 295 295 295 294 294
317 314 319 321 320 320 319 318 318 317 316 314 312 311 312 311 314 317 318 317 316 315 307 305 305 304 304 304 303 302 302 300 298 297 296 296 295 295 295 295 295 294 294
317 315 320 320 316 317 318 318 318 318 318 315 313 312 312 312 312 315 317 317 316 315 314 308 305 304 304 304 304 304 303 301 300 298 297 297 297 296 295 295 295 294 294
318 316 320 317 317 318 318 318 318 319 318 316 314 312 312 312 311 313 316 313 314 313 312 313 306 305 304 304 304 304 303 302 301 300 299 299 299 298 297 296 295 294 294
318 317 316 316 317 318 318 319 319 319 320 317 312 312 310 310 310 310 310 311 309 308 310 310 310 309 306 304 304 304 304 303 303 302 301 301 301 301 300 298 296 295 294
317 316 316 317 317 318 318 319 319 318 320 320 316 312 312 311 309 309 310 310 311 311 310 310 310 310 309 307 306 304 304 305 305 304 304 304 305 304 303 301 300 299 297
318 316 316 316 316 317 317 318 319 319 320 320 318 314 315 316 316 312 310 310 310 311 311 310 310 310 309 308 308 306 304 304 304 307 306 306 306 305 304 303 302 301 300
322 321 318 317 318 317 317 318 319 317 319 320 317 317 315 317 317 317 314 312 310 310 310 311 310 310 309 309 308 307 306 305 304 303 305 307 306 305 304 303 303 302 302
318 320 318 317 321 318 317 316 316 316 319 319 318 317 316 314 315 315 317 315 313 311 310 310 310 311 310 309 308 308 306 305 305 304 303 302 302 302 305 304 303 302 302
320 319 317 316 317 317 316 316 315 316 318 319 320 319 318 318 317 316 316 317 316 316 313 314 312 311 312 311 309 309 308 306 305 304 303 303 302 300 299 302 303 302 302
319 317 316 316 316 316 315 316 316 318 319 320 320 321 321 321 320 318 318 318 319 318 314 312 314 314 313 311 311 309 311 307 303 303 304 301 300 299 299 297 297 298 300
317 316 316 316 314 315 316 317 318 318 319 318 317 318 318 318 319 319 321 320 314 314 313 315 314 315 313 313 312 312 310 307 304 304 305 301 300 298 296 294 293 293 293
317 315 314 315 317 317 318 318 319 321 320 318 318 316 316 316 315 315 318 320 314 314 313 313 316 315 314 313 312 311 309 305 305 306 303 300 297 295 293 293 293 293 293
318 318 319 319 319 319 319 319 319 320 319 319 318 318 318 317 318 320 320 319 319 313 313 313 314 314 313 313 312 309 305 304 305 303 299 298 296 295 295 295 294 294 294
318 318 318 319 319 319 319 319 319 319 319 317 317 316 319 319 318 320 320 319 319 316 312 314 315 313 311 313 310 307 303 304 301 300 299 298 297 296 295 294 293 292 292
318 318 319 319 319 319 319 319 317 316 316 315 316 318 318 322 320 318 319 318 319 318 317 315 317 312 311 312 310 307 305 301 300 300 300 299 298 295 293 293 292 291 291
319 319 319 319 319 319 319 317 316 315 316 319 321 322 320 322 318 316 319 318 317 315 316 315 314 311 310 310 307 304 300 299 299 299 298 298 296 293 292 291 290 290 289
316 316 316 316 317 318 319 320 319 321 321 322 322 321 321 322 317 319 318 318 317 318 317 315 313 308 309 306 304 301 299 300 299 296 294 295 294 291 290 289 288 287 287
316 317 319 320 320 321 320 320 321 322 323 323 322 321 320 317 316 316 315 314 313 312 310 310 307 305 304 303 300 299 299 297 295 294 293 292 290 289 287 288 289 288 287
319 319 320 320 320 321 322 323 323 322 321 320 318 317 317 315 314 313 312 310 309 308 307 306 302 303 301 300 299 298 295 293 292 291 290 290 288 288 287 287 289 289 287
321 320 321 322 322 322 322 323 322 320 318 317 316 314 312 311 310 309 308 307 306 305 304 302 301 299 298 296 294 293 292 289 288 288 288 289 289 289 288 288 288 287 286
322 322 322 322 321 321 321 319 319 317 316 314 313 311 308 307 304 303 302 302 300 299 299 297 295 294 292 291 290 289 288 287 287 287 287 287 288 289 289 288 288 288 287
321 320 320 318 317 317 317 316 315 312 310 309 307 304 301 299 298 297 297 295 294 294 293 293 293 293 293 291 288 285 285 286 287 288 287 287 288 288 288 287 288 288 287
318 316 314 313 311 310 309 308 306 305 304 302 299 296 295 294 294 294 294 294 294 293 293 292 291 290 288 286 286 285 284 284 284 285 286 286 287 287 288 288 287 287 288

GFSMA_850_thetae_099.txt.gz
Theta_e
325 327 327 324 326 326 323 323 323 325 324 321 321 321 321 320 320 320 316 309 312 309 309 307 306 305 305 305 304 303 302 301 300 299 299 298 297 296 296 296 296 295 295
326 326 326 326 326 327 326 325 324 324 323 320 320 320 320 320 320 320 319 311 310 311 310 310 309 306 305 305 304 303 302 301 300 300 298 297 297 296 296 296 295 295 295
327 324 326 326 326 326 326 325 326 323 321 319 319 319 319 319 320 320 319 318 313 311 310 311 312 306 305 304 304 303 303 302 299 299 298 297 297 296 296 296 295 295 295
328 324 326 326 326 326 327 325 324 321 319 317 316 316 317 318 319 320 319 319 317 316 309 308 306 305 305 305 305 304 303 302 300 299 298 297 297 297 297 297 296 296 295
326 324 324 322 326 326 325 324 322 319 318 317 316 315 315 315 318 319 319 319 318 317 316 312 306 305 305 305 305 305 304 303 301 301 300 300 299 298 298 297 296 296 295
322 322 316 318 323 324 323 322 320 319 319 319 317 316 316 315 316 317 318 318 318 317 316 316 314 306 306 305 305 305 304 303 303 302 301 300 300 300 299 299 297 296 295
322 317 314 322 322 322 320 319 319 320 320 319 317 316 316 315 314 315 317 318 317 317 316 315 314 312 311 305 304 305 305 305 304 304 303 302 302 301 301 301 300 299 296
321 320 320 320 320 319 319 319 320 321 320 319 318 317 316 314 313 311 312 314 316 316 315 313 313 313 311 310 309 306 305 305 305 305 304 304 303 303 304 303 302 301 300
318 319 317 320 318 319 319 319 320 320 320 318 317 318 317 317 317 314 313 311 311 313 314 313 312 312 312 311 310 310 309 306 305 307 306 305 304 305 305 305 303 302 302
317 315 319 319 317 319 320 318 318 319 320 319 319 319 318 319 320 318 315 315 312 313 313 312 312 312 312 312 311 310 310 310 307 305 306 306 306 306 306 305 304 303 303
318 318 319 317 316 319 321 318 317 318 319 319 319 318 318 318 318 317 319 317 315 314 313 313 313 312 312 311 311 311 309 309 310 307 305 304 306 307 307 306 305 304 304
322 318 317 317 317 318 319 318 317 318 317 318 319 320 319 319 319 318 317 318 317 315 315 315 316 317 314 312 311 310 311 311 309 309 306 305 304 303 304 305 305 305 305
322 321 319 318 319 320 320 319 317 317 317 316 317 317 319 320 320 320 320 319 319 318 318 318 319 319 319 315 312 310 312 313 309 308 307 306 304 304 303 303 302 303 305
319 319 320 320 319 317 317 317 317 316 317 318 319 320 319 320 320 319 318 318 318 317 316 316 316 318 319 318 314 312 313 313 310 309 308 310 305 304 303 302 301 299 299
319 318 318 318 319 318 317 317 317 317 317 317 318 320 320 319 320 320 320 318 316 316 317 317 316 317 317 318 316 316 313 313 311 310 311 310 305 303 305 303 300 299 296
321 320 319 318 317 316 316 316 315 317 317 319 319 320 320 320 320 319 319 318 319 318 317 317 318 317 317 316 315 316 315 314 312 312 311 310 304 303 305 301 299 296 294
320 320 319 318 318 319 319 319 318 318 319 320 320 320 320 320 320 320 318 318 318 318 316 317 317 317 315 316 316 316 315 314 311 312 310 307 303 304 302 299 297 295 294
321 320 320 320 320 320 320 320 320 320 320 320 320 320 321 321 319 317 318 319 320 319 317 315 316 318 316 315 314 314 314 312 309 309 307 303 303 301 298 298 297 297 295
321 321 320 320 320 320 320 321 321 320 320 321 321 321 320 317 318 322 322 320 320 317 316 314 314 316 314 313 313 312 310 308 302 302 301 300 299 298 298 297 297 297 295
322 322 321 322 322 322 322 322 322 321 321 321 320 319 321 322 322 321 319 317 317 316 314 314 313 312 311 311 311 310 306 303 302 300 299 299 300 299 298 298 296 294 293
322 322 322 322 322 321 321 321 321 320 321 321 322 322 322 321 319 317 316 315 313 313 313 312 311 310 310 309 308 306 303 301 300 298 299 298 298 298 297 296 295 293 290
322 322 321 321 321 321 321 321 322 322 321 321 321 320 318 316 315 314 313 312 311 310 309 308 308 307 305 303 302 302 300 298 297 296 295 295 294 292 294 294 294 292 291
322 322 322 322 322 322 322 322 322 322 320 319 318 316 313 313 310 309 308 307 306 305 304 303 301 299 298 297 296 295 294 293 293 292 292 293 293 293 293 291 288 288 289
321 321 321 321 321 321 321 321 320 318 316 313 311 310 307 306 304 301 300 299 298 297 297 296 295 295 294 294 294 293 293 293 292 292 291 289 290 289 289 289 289 289 289
321 321 320 319 318 316 315 315 313 310 309 307 305 302 300 298 296 295 295 295 295 295 295 294 294 293 293 292 292 291 289 287 287 288 288 288 288 288 288 288 289 289 289
319 315 314 312 309 309 306 306 306 305 303 300 298 297 295 295 295 294 294 293 292 291 290 290 289 289 288 287 287 286 285 284 284 284 286 286 286 286 287 288 288 288 288

GFSMA_850_thetae_102.txt.gz
Theta_e
325 327 324 323 320 321 319 317 316 321 320 319 322 321 321 321 321 320 309 308 307 308 309 306 305 305 305 305 304 303 302 301 301 300 300 299 298 298 297 297 297 297 297
326 327 325 325 322 322 320 318 322 324 323 321 321 321 321 321 320 319 311 309 309 309 309 308 306 306 306 306 305 304 303 302 302 300 299 299 298 298 297 297 297 297 296
325 327 326 325 323 323 322 320 324 325 324 321 320 320 320 320 320 320 318 313 308 308 310 309 307 306 305 305 305 305 304 303 302 301 299 299 298 298 298 297 297 296 296
325 327 324 323 323 326 324 323 325 324 322 320 320 320 320 320 320 320 320 317 315 308 309 308 308 307 306 305 305 305 304 304 302 301 301 299 299 299 298 298 298 297 296
325 326 324 324 326 326 326 325 325 323 320 319 318 317 318 319 319 320 320 319 319 317 313 310 308 307 306 305 305 305 305 304 303 302 302 301 300 300 299 299 298 297 296
324 326 324 325 326 326 325 326 325 322 319 317 316 315 315 316 317 319 319 319 319 318 316 314 313 312 307 306 306 305 306 306 305 304 304 303 302 302 301 300 299 299 298
326 325 325 325 325 325 324 325 323 320 318 317 317 316 316 315 315 317 318 319 319 318 317 317 314 315 314 308 307 307 306 306 306 305 305 305 304 302 302 302 301 301 300
325 324 325 324 324 324 324 323 322 319 320 319 318 316 316 316 315 315 316 316 318 317 317 316 314 314 313 312 312 311 308 307 307 307 306 306 305 304 304 303 303 303 302
324 324 324 320 321 318 323 323 321 320 321 320 319 317 318 316 317 316 315 313 313 315 315 314 314 314 312 313 312 312 311 310 308 307 307 307 307 306 305 305 305 305 304
325 322 320 317 315 317 321 320 319 320 321 320 319 318 318 320 320 318 316 316 316 313 312 312 312 313 313 312 312 312 312 311 311 310 308 307 307 307 307 306 305 306 306
324 321 319 316 315 320 319 320 318 320 320 321 320 319 319 319 319 319 319 318 317 317 316 315 315 313 313 313 312 312 313 314 312 311 310 309 307 307 307 306 306 306 306
325 320 320 314 319 319 320 317 319 318 319 321 319 318 318 318 317 317 318 319 318 318 318 318 317 318 317 317 315 318 318 313 314 312 311 310 308 307 306 307 307 308 308
322 319 317 315 317 319 318 316 316 319 319 318 318 319 320 317 318 318 320 320 320 320 319 319 319 318 316 315 316 317 317 319 319 315 311 310 310 309 306 306 306 306 307
319 318 317 315 316 318 316 315 319 319 317 317 316 316 316 318 318 319 319 320 320 319 318 318 316 316 316 317 317 317 317 318 318 317 312 310 310 309 308 306 305 304 304
321 317 316 316 317 318 315 319 320 318 317 317 317 317 317 318 318 318 320 320 319 319 318 318 317 317 318 318 318 317 317 317 317 318 314 316 313 312 308 306 306 304 303
321 322 319 317 317 317 318 317 318 317 317 317 317 317 316 317 317 319 319 319 319 319 319 317 317 317 318 319 318 317 317 317 316 316 316 315 315 314 311 306 306 306 304
319 319 320 321 320 320 319 317 318 318 317 316 316 317 317 318 320 319 319 320 320 320 320 317 317 319 318 317 317 316 316 316 315 315 315 316 315 314 312 307 306 304 302
321 321 321 320 319 318 318 318 317 316 318 320 318 319 319 320 320 320 321 321 321 321 321 319 319 318 317 317 316 314 314 314 314 313 313 313 313 313 308 306 305 300 300
321 321 321 321 320 319 318 318 318 319 319 319 321 321 321 321 321 322 322 322 321 319 320 318 316 315 314 314 313 313 312 312 312 311 311 310 309 306 304 304 302 299 300
321 321 320 320 320 320 320 320 320 320 320 321 321 322 322 322 322 321 320 319 318 317 315 314 312 312 312 311 311 311 310 310 311 308 306 305 304 303 301 299 299 299 297
321 321 321 321 321 321 321 322 322 323 322 322 322 322 322 322 322 318 319 317 315 314 312 310 309 308 308 307 306 304 304 304 304 304 303 302 301 301 300 299 299 299 298
322 322 322 322 322 322 321 321 321 321 321 321 321 321 319 318 314 317 314 312 312 308 308 306 304 303 302 300 299 299 298 298 298 298 298 298 298 297 297 298 297 297 297
322 321 322 321 321 320 320 320 321 321 320 320 318 316 312 311 309 307 307 302 303 300 300 299 299 298 296 296 295 294 294 294 293 293 293 293 294 294 294 294 294 294 294
322 321 321 321 321 320 320 320 320 319 319 314 310 307 306 304 303 301 300 297 296 296 296 295 294 293 292 292 292 291 290 290 290 290 290 289 289 290 290 290 290 290 290
322 321 320 318 316 315 314 315 313 310 308 306 303 302 300 298 298 296 295 294 294 294 292 291 290 289 288 288 287 287 287 286 286 285 286 286 286 286 287 288 288 288 288
321 317 316 311 309 309 305 305 305 304 303 300 299 297 296 295 294 292 291 290 289 288 287 286 285 284 284 284 284 283 282 282 282 283 285 284 284 282 282 283 285 287 288

GFSMA_850_thetae_108.txt.gz
Theta_e
326 327 330 327 310 309 309 309 314 317 321 321 321 321 321 321 321 319 308 308 306 306 306 306 306 306 305 304 304 303 303 302 302 301 301 300 300 299 298 298 297 297 297
326 324 328 323 309 309 308 308 310 317 320 321 321 321 321 321 320 320 314 308 307 306 306 306 306 306 306 305 304 304 303 303 302 301 300 300 300 299 298 298 297 297 297
328 328 329 318 309 309 309 309 310 319 320 321 320 320 321 321 320 320 315 309 307 306 306 306 306 306 306 306 306 305 305 304 303 302 301 301 300 300 299 298 298 298 297
324 326 329 315 310 311 311 310 311 320 321 321 320 320 321 320 320 319 318 310 309 307 307 306 306 307 306 307 307 307 306 306 306 304 304 302 302 301 301 301 300 300 299
324 325 329 314 312 314 313 311 312 320 321 320 321 321 320 320 320 320 319 318 315 311 308 307 307 307 308 307 307 307 308 308 307 306 306 305 304 303 303 303 303 302 302
327 324 327 314 314 316 314 313 311 314 317 318 320 320 320 320 320 320 319 319 318 318 316 313 309 309 309 308 308 308 308 308 308 309 308 308 307 306 307 306 305 304 303
327 326 325 315 316 317 316 315 319 322 322 322 319 320 319 320 320 320 319 319 319 319 318 317 315 314 313 312 313 312 311 309 310 310 310 310 309 309 309 308 307 306 305
327 326 325 317 317 319 318 318 322 324 323 322 319 319 319 318 319 319 319 319 319 319 319 318 317 315 314 313 312 312 313 312 312 311 310 311 311 310 310 309 308 308 306
326 326 325 323 319 320 319 319 323 325 324 321 319 317 316 315 316 317 317 316 319 318 318 318 317 316 315 314 314 313 313 313 312 312 312 312 312 313 312 310 309 308 307
325 325 325 324 325 321 321 320 323 325 324 321 318 315 315 316 316 316 316 316 316 317 316 315 315 316 316 315 315 315 316 317 317 316 315 314 313 312 313 313 312 310 309
326 325 325 323 325 323 322 323 323 325 324 320 317 316 316 317 317 318 318 317 317 316 316 316 316 317 317 317 318 318 318 316 316 315 315 315 314 313 312 313 312 311 310
327 326 324 323 325 324 323 324 324 323 323 320 317 317 317 317 318 318 319 318 318 317 316 317 317 318 318 319 319 317 317 317 317 316 316 316 316 314 313 313 314 313 313
327 327 324 325 324 325 323 324 325 323 321 319 319 318 317 318 318 318 318 318 317 316 316 316 316 317 318 318 318 317 317 317 317 317 316 316 317 315 314 313 314 315 313
326 325 326 324 325 325 325 324 324 321 319 318 320 317 318 318 319 318 318 318 317 316 316 317 318 318 318 318 318 318 317 317 318 317 317 317 318 317 317 316 315 315 314
326 326 324 323 325 325 324 323 321 320 320 319 318 316 316 317 319 319 318 317 318 318 318 317 316 317 317 318 319 319 319 319 318 318 319 318 317 316 316 315 315 315 314
325 325 325 324 324 324 321 320 319 317 317 318 318 316 317 318 318 318 318 318 318 317 318 316 317 319 319 319 319 320 320 320 318 318 317 316 315 315 314 313 313 313 313
324 324 322 323 323 322 321 321 320 318 318 319 317 316 317 317 318 318 318 317 316 318 319 318 318 319 320 320 320 319 318 318 317 316 315 314 313 312 311 311 310 311 310
324 324 325 322 323 323 321 321 319 318 318 318 317 317 316 319 318 318 317 317 318 320 321 320 320 320 321 319 317 317 315 315 314 312 311 310 311 310 309 309 309 309 308
323 322 322 323 322 321 320 319 319 317 318 317 316 316 318 319 318 318 318 320 321 321 321 321 320 318 317 316 316 315 312 311 310 310 309 309 308 307 307 306 305 304 305
322 321 322 321 320 320 319 318 317 317 317 318 318 318 318 319 318 319 320 321 319 319 320 316 314 312 312 311 309 308 308 306 305 304 303 302 302 301 301 299 299 300 300
320 320 320 320 320 320 319 318 317 317 317 318 319 320 319 319 320 320 319 317 314 314 311 311 311 307 305 305 303 301 299 299 299 297 298 297 296 295 294 294 294 294 294
320 319 319 319 320 321 321 320 320 320 320 320 320 320 320 318 315 310 308 308 307 307 306 307 304 301 297 295 294 294 293 293 291 291 291 291 290 290 290 289 288 288 289
319 318 320 321 321 321 321 321 321 321 321 321 320 319 313 308 305 304 304 303 303 301 303 301 298 294 291 290 290 289 287 286 285 284 284 284 284 284 285 285 285 283 285
321 320 322 322 321 321 321 321 321 321 320 318 311 307 304 302 301 301 300 300 299 298 292 291 290 288 287 286 285 284 283 283 282 282 280 280 280 279 278 279 279 279 280
321 321 322 321 321 320 320 320 320 318 314 308 301 299 299 299 298 298 298 293 289 288 287 286 284 283 283 283 282 282 281 280 279 278 278 278 276 276 276 276 276 277 277
321 321 320 318 318 317 314 313 314 313 308 302 298 296 295 295 293 291 288 286 285 283 282 281 281 280 280 280 280 278 277 276 275 275 275 274 274 273 274 274 275 274 274

GFSMA_850_thetae_111.txt.gz
Theta_e
327 326 327 318 328 312 316 323 321 320 321 321 321 321 320 320 320 318 308 308 307 306 306 306 306 305 305 305 304 304 304 303 302 302 301 300 300 299 299 298 298 298 298
327 327 326 322 328 312 312 322 320 320 320 320 320 320 320 320 320 319 309 308 307 306 306 306 306 306 306 306 305 305 304 303 302 302 301 301 300 300 299 298 298 298 299
327 327 325 322 328 310 309 320 320 320 320 320 320 321 321 321 320 319 317 309 307 306 306 306 306 306 307 307 306 305 305 304 303 303 302 301 300 300 300 300 300 299 299
326 327 327 321 328 310 309 316 319 320 320 320 321 321 321 321 320 319 318 311 308 307 306 306 306 306 307 307 307 306 306 305 306 305 304 302 302 301 302 303 302 302 302
326 327 327 324 328 311 308 311 315 319 320 321 321 320 320 320 320 319 319 311 314 311 307 307 307 307 307 307 307 308 307 307 308 308 307 306 305 304 304 304 304 305 304
326 325 324 326 327 310 308 309 313 319 320 321 320 320 320 320 320 320 319 318 317 316 313 309 308 307 308 308 308 308 309 309 310 310 309 308 307 308 307 307 306 307 307
325 324 327 325 326 309 308 308 310 318 320 321 321 320 320 320 320 320 320 319 317 317 317 316 314 313 312 312 312 311 312 311 310 310 310 310 310 310 310 309 308 308 308
324 324 324 325 325 310 309 308 310 318 320 320 320 320 320 320 320 320 320 319 318 318 318 318 318 316 315 315 314 313 313 313 313 312 312 312 312 312 311 311 311 310 309
325 324 325 325 325 311 312 310 310 316 318 319 320 320 318 319 319 319 319 319 317 317 318 318 318 317 317 316 316 315 315 314 314 314 314 314 313 313 312 312 311 312 312
325 325 327 325 326 313 314 313 311 311 315 321 321 319 318 317 317 317 317 316 316 316 316 316 316 316 316 316 316 316 316 316 316 316 316 315 315 314 315 314 314 313 312
326 327 325 327 326 317 314 316 314 318 321 321 322 320 318 316 315 316 317 317 316 317 316 317 317 316 316 317 317 318 319 319 318 317 316 316 316 316 315 314 314 314 314
327 327 326 327 326 321 315 317 316 320 324 323 323 320 318 316 317 316 318 317 318 318 317 316 316 316 316 316 318 318 318 317 317 317 317 317 316 316 315 315 315 315 315
328 327 326 328 326 326 318 318 317 319 324 324 323 319 316 316 317 317 318 317 318 318 317 316 316 316 316 316 316 317 317 318 318 317 317 317 317 316 316 316 316 317 316
327 328 328 326 326 326 324 324 320 319 322 323 322 319 317 316 317 317 317 317 317 317 318 317 317 317 317 316 316 317 317 318 319 318 318 317 318 318 317 318 317 316 316
326 326 327 327 327 326 324 324 323 324 322 320 322 318 317 317 317 317 318 319 317 318 317 317 317 316 317 317 317 318 319 319 319 320 319 318 317 318 317 316 316 315 314
325 324 326 326 326 326 324 324 324 323 323 321 321 319 318 318 317 317 317 318 318 319 318 317 317 317 319 319 319 319 319 319 319 318 318 317 317 317 316 315 314 314 313
325 324 325 325 326 325 325 325 324 322 322 320 320 319 318 318 317 317 318 318 318 318 318 317 317 319 320 320 320 318 319 319 317 317 316 315 315 314 313 311 311 310 309
325 325 324 324 324 324 324 325 324 323 320 319 319 318 318 317 316 316 317 316 317 318 318 318 319 320 320 319 319 319 317 316 315 314 314 312 310 309 309 308 307 307 306
323 323 323 322 322 323 324 324 322 321 321 320 319 318 318 317 316 317 317 319 318 318 318 320 319 318 317 317 316 315 314 313 310 308 307 305 304 303 303 302 301 301 301
323 323 322 322 321 321 322 322 322 321 320 318 319 318 318 317 316 317 318 319 318 318 319 317 314 313 311 309 308 310 308 304 304 301 300 299 297 296 296 294 294 294 294
323 322 322 322 322 322 322 323 321 319 318 318 317 318 318 318 318 319 318 317 316 313 312 309 307 308 306 306 303 299 300 298 296 295 295 293 292 291 290 290 289 289 288
322 321 321 321 320 321 320 320 319 318 317 316 316 317 317 318 318 318 315 311 308 308 306 305 302 301 298 297 294 294 291 291 289 287 286 286 285 284 284 283 283 282 282
321 320 320 320 320 320 320 320 319 319 318 318 318 318 315 313 311 308 305 304 304 302 302 300 300 296 294 290 288 286 285 283 283 282 281 281 281 281 281 281 280 279 279
321 320 319 319 319 320 320 321 321 321 320 319 316 315 311 307 303 301 301 301 299 299 298 295 290 287 285 284 283 282 282 281 280 280 279 278 278 277 278 278 278 277 277
319 320 320 319 319 320 321 320 321 320 319 316 309 305 302 300 299 298 298 298 295 289 285 283 283 283 282 281 280 280 280 279 279 279 278 275 275 276 276 275 275 276 275
320 319 318 318 318 320 320 320 319 318 315 308 299 297 296 298 297 297 293 287 285 284 282 281 280 280 280 279 278 278 277 276 275 275 275 274 274 273 272 273 273 274 274

GFSMA_850_thetae_114.txt.gz
Theta_e
328 327 327 325 325 323 312 321 326 327 325 323 323 321 319 319 318 310 308 309 312 307 308 308 306 306 305 305 305 304 304 303 303 302 302 301 301 300 300 299 299 298 298
328 328 327 324 324 322 311 318 326 326 322 322 322 321 320 320 319 315 308 309 307 306 306 307 307 306 306 305 304 304 304 303 303 302 302 301 301 301 300 299 300 299 299
329 327 327 325 321 321 313 319 325 322 321 321 321 320 319 320 320 318 310 308 307 306 306 309 307 306 306 305 305 305 304 304 304 303 302 302 301 301 302 301 301 301 300
329 327 327 325 322 324 314 320 323 320 320 320 320 320 320 320 320 319 316 311 308 306 306 306 306 306 306 306 306 306 306 306 306 306 305 304 303 302 303 302 302 303 302
328 327 328 326 325 326 313 317 323 319 320 320 320 320 320 320 320 319 318 312 309 308 307 306 306 306 306 307 307 307 308 308 308 308 307 307 306 306 306 305 305 305 304
327 327 327 327 321 325 314 314 322 319 320 320 320 320 320 320 320 319 318 313 315 312 310 308 307 307 307 307 307 308 309 309 310 310 310 310 310 310 309 309 308 307 307
326 328 327 327 322 326 314 310 321 319 319 320 321 320 320 320 320 319 319 318 318 317 316 315 314 312 310 310 311 311 311 311 312 312 312 312 312 311 311 311 311 310 310
325 327 326 326 320 326 317 309 318 319 318 320 320 320 320 320 319 319 319 319 318 318 318 318 317 315 315 314 314 313 313 313 313 313 313 314 314 314 314 313 313 312 312
327 327 326 327 325 326 318 308 311 316 318 320 321 320 320 320 320 320 319 319 319 318 318 318 316 316 316 316 316 316 315 315 315 315 315 314 314 314 315 314 314 315 315
326 325 325 325 325 326 317 308 309 313 317 320 321 320 319 319 319 319 319 319 318 318 317 317 316 316 316 316 316 316 316 317 317 317 316 316 315 315 315 316 316 316 315
325 325 324 325 324 326 323 309 308 309 316 319 320 320 319 318 317 317 317 317 317 317 316 316 316 317 316 316 316 316 317 318 318 318 317 317 317 316 316 316 315 315 315
326 326 324 324 323 324 326 312 309 308 312 319 319 318 319 318 316 316 316 317 317 316 316 315 315 315 316 316 316 316 316 316 318 318 318 318 317 316 316 315 314 315 315
328 326 325 325 325 326 325 322 310 310 309 317 318 316 320 319 316 316 317 318 317 317 318 318 317 316 316 316 317 317 316 316 317 317 318 319 319 318 317 317 316 317 317
327 325 326 326 326 325 325 326 314 312 310 312 317 321 320 318 316 316 317 317 317 317 317 317 317 317 316 317 317 317 318 317 318 319 319 319 319 319 318 318 317 317 316
327 326 328 327 326 325 325 326 322 314 315 316 320 322 320 319 316 316 317 317 317 317 317 317 317 317 317 318 318 319 319 318 319 319 319 319 318 319 317 318 317 317 316
324 324 326 326 327 326 326 326 324 317 316 316 318 321 321 320 318 316 317 317 317 317 318 316 318 317 318 318 318 319 319 320 319 318 318 318 317 317 316 315 314 315 314
326 326 325 325 326 326 327 326 326 324 318 318 318 319 321 320 319 318 316 317 317 317 318 318 317 318 318 317 318 319 319 319 318 317 316 316 316 315 313 313 312 310 310
325 325 325 325 325 326 326 326 326 325 323 321 321 321 320 318 317 317 318 317 317 317 317 317 318 318 318 318 318 316 316 314 314 313 314 310 311 311 308 307 305 304 302
324 325 324 323 324 325 325 326 325 324 323 322 322 321 320 319 318 318 317 316 316 316 318 317 317 318 317 316 313 312 312 311 310 306 307 304 301 300 299 297 296 295 294
323 322 322 323 323 324 323 324 324 324 323 321 320 319 319 318 319 318 317 316 317 317 318 317 316 313 312 311 310 311 306 305 303 300 299 297 293 290 289 287 286 285 285
322 322 321 321 321 322 322 323 324 323 321 321 320 318 318 319 318 318 317 317 317 317 316 313 311 309 307 305 303 305 302 298 296 292 290 287 286 285 285 284 284 283 283
321 322 321 321 320 321 321 321 321 322 321 319 318 318 318 317 317 317 316 316 315 313 311 309 307 304 301 301 298 293 289 287 286 284 284 285 284 283 283 282 282 281 280
320 319 319 320 320 320 320 320 319 319 319 318 318 317 316 315 315 313 312 311 308 306 304 303 301 298 297 293 287 284 283 282 281 281 281 282 281 281 280 280 280 279 278
318 318 318 318 317 319 319 320 319 319 318 317 316 315 313 311 306 305 304 303 301 300 298 296 292 288 284 283 282 282 281 280 280 280 280 278 278 278 278 278 278 277 276
319 319 318 318 318 319 319 319 320 319 318 316 312 307 303 302 299 298 298 299 297 293 287 284 283 282 281 281 280 280 281 280 280 279 278 276 276 275 275 275 275 275 276
318 318 318 318 317 317 318 320 320 319 317 312 304 299 297 298 296 294 294 290 287 285 283 281 281 280 279 280 279 279 278 278 276 276 274 274 274 273 272 272 273 274 274

GFSMA_850_thetae_117.txt.gz
Theta_e
331 327 325 326 327 326 324 321 317 321 325 324 324 322 320 311 308 310 315 317 316 309 307 311 311 309 309 307 306 305 305 305 303 302 302 301 301 300 300 299 300 300 300
331 327 325 327 325 323 325 317 314 323 326 326 324 322 319 317 312 310 312 311 307 307 315 319 318 315 307 305 304 304 303 303 303 302 302 301 301 301 300 301 301 301 302
330 327 328 327 325 324 325 318 319 325 327 324 324 322 319 319 316 312 309 308 308 310 315 315 312 308 306 305 305 305 304 303 303 303 302 302 302 302 302 302 303 303 303
330 329 328 327 327 325 325 316 316 325 327 322 323 321 319 319 318 315 309 309 313 315 310 309 308 307 307 306 306 306 306 305 305 305 305 305 304 304 303 304 304 304 304
330 329 329 327 327 325 325 316 318 322 325 321 322 321 319 319 318 318 315 311 309 310 312 307 306 306 306 307 307 308 308 307 307 307 308 308 308 307 306 306 305 306 306
327 327 327 327 327 325 326 316 317 325 323 321 321 320 319 319 319 318 317 313 310 309 308 307 307 306 307 307 307 308 309 309 310 310 310 310 310 310 310 310 310 311 310
326 327 328 327 328 326 325 318 319 324 320 320 320 320 319 319 319 318 318 313 314 313 311 310 308 308 308 308 309 310 311 311 313 314 313 313 313 313 313 313 313 313 313
326 326 327 327 327 326 322 321 316 323 320 320 320 320 318 319 319 319 318 318 317 317 316 316 315 315 315 314 313 312 312 313 313 314 315 316 317 316 315 315 315 314 314
326 325 327 327 326 327 324 322 317 322 320 319 320 321 320 321 319 319 319 319 318 318 318 317 317 317 317 317 316 316 316 316 316 316 316 316 315 315 316 316 316 316 316
325 325 325 326 327 327 323 324 312 321 321 319 320 320 320 320 320 319 319 319 319 319 318 317 317 317 317 316 316 316 316 316 316 316 317 317 317 317 316 316 316 316 316
325 325 325 326 327 326 321 324 311 319 321 319 319 320 320 319 319 318 320 319 319 318 317 316 316 317 316 316 316 316 316 316 316 316 316 316 315 315 315 315 315 316 316
326 326 326 326 326 323 321 325 313 310 317 320 318 320 320 319 318 318 317 318 318 317 317 316 316 316 315 315 316 316 317 317 317 316 317 317 317 317 318 318 318 318 317
325 326 325 324 325 325 323 326 316 309 310 315 317 319 320 320 318 317 316 316 317 316 316 316 316 316 316 316 316 316 317 317 317 316 317 317 317 317 318 319 319 318 318
326 326 325 324 324 325 324 325 319 309 309 310 313 317 319 320 319 318 316 316 316 316 316 317 317 316 316 317 316 316 317 317 318 318 317 318 319 319 319 319 319 319 318
326 328 326 326 323 321 319 320 325 318 308 308 309 313 319 320 319 317 317 317 317 317 317 317 316 316 317 317 317 318 317 317 319 319 319 319 319 319 318 318 318 317 316
327 327 326 327 325 324 320 319 325 325 317 309 308 310 318 318 319 318 318 317 317 317 317 317 317 317 316 318 317 318 318 317 318 318 318 318 318 316 316 315 316 315 313
323 324 325 326 326 326 325 325 326 325 325 315 310 310 315 320 319 319 318 318 317 316 317 316 317 317 318 317 318 317 316 317 316 316 316 316 314 314 312 310 309 308 308
322 324 325 325 325 325 326 327 326 325 325 319 314 313 314 315 316 316 319 318 318 316 316 317 317 317 316 316 316 315 314 311 312 311 310 308 305 304 303 301 301 298 296
323 325 324 324 324 324 325 325 326 325 325 324 323 316 315 316 317 317 319 317 317 317 317 317 317 317 316 313 313 310 308 307 306 306 303 301 301 297 296 291 288 287 286
323 324 324 323 323 324 325 325 323 325 324 323 320 320 317 317 318 319 318 318 318 317 316 316 317 316 313 311 307 305 304 302 300 298 293 290 288 286 286 286 285 285 284
321 321 321 322 322 323 324 323 323 322 322 323 321 320 320 319 319 318 318 318 317 316 316 316 314 312 308 306 302 301 299 295 292 290 287 286 285 285 285 284 284 283 282
321 321 321 321 321 321 322 323 321 323 322 322 321 321 318 319 318 318 317 317 316 316 314 311 308 305 301 298 295 294 290 286 284 284 284 284 284 283 283 282 281 281 280
321 320 321 321 320 320 320 320 321 322 320 320 321 319 318 317 316 317 316 316 314 311 307 304 302 299 296 290 285 284 284 283 282 282 282 282 281 281 281 281 280 279 278
320 319 319 320 320 319 319 320 320 320 320 318 317 317 316 316 312 312 311 309 306 303 300 297 292 289 287 285 284 283 282 281 280 279 279 278 277 277 279 279 280 278 278
319 318 318 318 319 319 318 318 319 318 318 316 313 311 310 308 304 302 304 303 299 296 290 288 287 285 283 283 283 282 281 280 279 277 277 276 276 275 276 277 277 276 276
319 318 318 318 317 319 318 317 317 318 317 314 308 305 301 302 297 295 297 295 294 289 284 284 287 286 283 281 281 280 279 278 277 277 275 276 275 274 273 273 274 276 275

GFSMA_850_thetae_120.txt.gz
Theta_e
331 330 328 325 326 326 327 326 326 327 326 326 328 327 325 323 322 320 320 320 320 318 318 321 319 314 310 308 306 306 306 304 303 303 302 301 301 300 300 300 300 301 301
332 330 327 327 326 329 328 326 327 327 326 326 327 326 325 321 320 320 321 319 318 316 319 319 313 308 307 305 305 305 304 304 303 302 302 301 301 301 301 301 301 302 303
334 331 328 329 327 327 329 327 325 325 326 327 327 325 323 321 319 320 320 319 318 317 318 317 311 308 308 305 304 304 304 303 303 303 302 301 301 301 301 302 302 303 304
333 332 331 330 326 325 326 325 324 326 325 327 326 325 323 322 321 320 320 320 319 318 317 315 312 309 310 307 305 305 305 304 304 304 304 303 302 302 302 302 303 305 306
331 328 331 329 328 325 326 324 323 323 325 326 326 324 322 322 322 320 319 320 319 319 318 311 314 312 308 307 307 307 307 306 306 307 307 306 306 306 305 306 306 307 308
327 330 329 329 327 326 326 323 323 323 324 325 324 323 322 323 323 321 320 319 319 319 318 317 311 310 307 307 307 308 309 309 309 309 309 309 310 310 310 311 311 312 312
327 327 329 327 328 328 326 324 322 323 324 323 323 322 323 323 323 322 322 319 319 318 318 318 317 317 308 307 308 308 309 311 311 313 312 313 314 313 314 315 315 315 314
325 326 330 326 328 328 327 326 322 323 324 324 323 322 322 322 323 322 322 320 319 319 318 317 317 317 317 315 310 311 312 312 313 313 315 315 316 317 317 316 316 315 316
327 327 326 327 327 327 326 326 323 321 323 324 323 321 322 322 322 322 322 321 321 320 319 319 318 318 316 318 315 315 316 316 316 316 316 316 316 316 316 316 316 316 316
328 329 326 326 325 326 326 326 323 319 322 323 323 322 321 321 322 322 322 321 321 320 320 320 317 316 318 316 317 318 316 316 316 316 316 316 316 316 317 317 317 317 317
327 326 325 324 325 326 326 325 323 321 322 322 323 323 322 323 322 322 321 321 321 321 321 318 317 317 319 316 316 316 316 317 317 316 316 316 316 317 317 317 317 317 317
325 326 325 325 325 325 326 325 324 321 321 322 322 322 322 322 322 322 321 321 321 321 321 317 317 319 321 316 316 316 316 316 317 317 317 316 316 317 317 317 317 318 318
325 326 326 325 324 325 326 325 323 321 320 321 321 322 321 321 320 321 320 322 321 321 321 318 320 320 318 316 316 316 316 316 316 317 317 317 317 317 317 318 318 318 319
326 325 326 325 325 325 325 324 325 322 317 319 321 322 321 321 321 320 320 321 320 319 317 317 316 316 316 316 316 317 317 317 316 316 317 318 319 318 318 319 319 319 318
327 326 325 326 325 323 324 325 323 322 318 315 319 321 321 321 321 321 318 317 316 317 318 316 316 317 317 317 317 317 317 317 318 318 317 317 319 319 318 318 318 316 315
326 327 326 325 326 324 324 323 322 323 322 313 315 319 320 321 319 320 319 318 316 317 317 317 316 317 316 317 317 316 317 317 317 317 317 317 316 316 317 316 314 312 311
327 327 326 325 325 325 324 322 323 324 324 315 311 314 317 314 316 320 319 318 317 317 318 317 317 317 317 316 316 317 317 317 316 316 314 313 313 310 309 308 308 305 305
324 324 324 325 326 324 326 324 322 321 322 321 319 310 312 310 315 319 319 318 316 316 318 317 317 317 316 316 316 315 314 313 311 309 307 305 305 305 302 299 299 295 290
322 323 323 323 324 323 323 325 323 322 319 318 323 319 310 309 313 317 313 318 314 315 316 317 317 317 316 315 312 311 308 305 304 303 303 300 297 294 292 290 288 286 286
322 323 324 324 324 324 324 324 325 324 323 321 320 322 314 311 314 316 316 315 314 315 317 317 317 316 315 311 308 306 304 302 301 298 296 293 291 289 287 286 286 285 284
322 323 324 323 324 323 323 324 323 324 323 321 319 320 316 313 320 317 314 315 316 317 317 317 316 315 312 307 304 302 300 296 293 290 287 285 286 285 284 284 283 282 282
321 321 321 322 322 322 322 323 323 322 321 319 320 318 318 319 319 317 316 317 318 318 317 317 315 311 306 302 300 297 292 288 286 287 285 283 284 283 283 282 282 281 280
321 322 321 321 321 321 320 322 322 322 320 318 319 320 319 317 317 317 317 317 317 316 314 312 309 304 301 295 289 287 287 286 284 286 285 284 282 282 282 282 280 280 280
321 321 321 320 320 320 320 320 321 320 320 320 317 317 318 318 317 318 317 316 313 310 306 304 300 294 290 288 285 287 287 285 282 282 282 281 280 280 281 281 280 280 281
321 320 320 320 320 320 319 320 319 319 317 316 315 316 317 317 314 314 313 312 307 302 294 291 290 287 289 290 287 284 283 282 281 279 280 279 278 278 279 280 280 280 281
320 319 319 319 320 319 318 318 319 319 317 316 313 311 310 310 306 303 304 303 301 294 289 286 291 289 284 283 282 282 281 281 280 279 278 278 277 276 277 279 278 278 278